[[{"header":{"parameterUnit":"m.s-1","parameterCategory":1,"la1":30.6,"la2":28.766,"lo1":-90.7593,"lo2":-88.6598,"dx":0.0162,"dy":0.0183,"nx":116,"ny":114,"refTime":"2022-11-28T18:00:00:Z","depth":0,"parameterNumber":2,"parameterNumberName":"U-component_of_WINDS"},"data":[0.0,0.0,0.0,0.0,0.0,0.0,0.0,0.0,0.0,0.0,0.0,0.0,0.0,0.0,0.0,0.0,0.0,0.0,0.0,0.0,0.0,0.0,0.0,0.0,0.0,0.0,0.0,0.0,0.0,0.0,0.0,0.0,0.0,0.0,0.0,0.0,0.0,0.0,0.0,0.0,0.0,0.0,0.0,0.0,0.0,0.0,0.0,0.0,0.0,0.0,0.0,0.0,0.0,0.0,0.0,0.0,0.0,0.0,0.0,0.0,0.0,0.0,0.0,0.0,0.0,0.0,0.0,0.0,0.0,0.0,0.0,0.0,0.0,0.0,0.0,0.0,0.0,0.0,0.0,0.0,0.0,0.0,0.0,0.0,0.0,0.0,0.0,0.0,0.0,0.0,0.0,0.0,0.0,0.0,0.0,0.0,0.0,0.0,0.0,0.0,0.0,0.0,0.0,0.0,0.0,0.0,0.0,0.0,0.0,0.0,0.0,0.0,0.0,0.0,0.0,0.0,0.0,0.0,0.0,0.0,0.0,0.0,0.0,0.0,0.0,0.0,0.0,0.0,0.0,0.0,0.0,0.0,0.0,0.0,0.0,0.0,0.0,0.0,0.0,0.0,0.0,0.0,0.0,0.0,0.0,0.0,0.0,0.0,0.0,0.0,0.0,0.0,0.0,0.0,0.0,0.0,0.0,0.0,0.0,0.0,0.0,0.0,0.0,0.0,0.0,0.0,0.0,0.0,0.0,0.0,0.0,0.0,0.0,0.0,0.0,0.0,0.0,0.0,0.0,0.0,0.0,0.0,0.0,0.0,0.0,0.0,0.0,0.0,0.0,0.0,0.0,0.0,0.0,0.0,0.0,0.0,0.0,0.0,0.0,0.0,0.0,0.0,0.0,0.0,0.0,0.0,0.0,0.0,0.0,0.0,0.0,0.0,0.0,0.0,0.0,0.0,0.0,0.0,0.0,0.0,0.0,0.0,0.0,0.0,0.0,0.0,0.0,0.0,0.0,0.0,0.0,0.0,0.0,0.0,0.0,0.0,0.0,0.0,0.0,0.0,0.0,0.0,0.0,0.0,0.0,0.0,0.0,0.0,0.0,0.0,0.0,0.0,0.0,0.0,0.0,0.0,0.0,0.0,0.0,0.0,0.0,0.0,0.0,0.0,0.0,0.0,0.0,0.0,0.0,0.0,0.0,0.0,0.0,0.0,0.0,0.0,0.0,0.0,0.0,0.0,0.0,0.0,0.0,0.0,0.0,0.0,0.0,0.0,0.0,0.0,0.0,0.0,0.0,0.0,0.0,0.0,0.0,0.0,0.0,0.0,0.0,0.0,0.0,0.0,0.0,0.0,0.0,0.0,0.0,0.0,0.0,0.0,0.0,0.0,0.0,0.0,0.0,0.0,0.0,0.0,0.0,0.0,0.0,0.0,0.0,0.0,0.0,0.0,0.0,0.0,0.0,0.0,0.0,0.0,0.0,0.0,0.0,0.0,0.0,0.0,0.0,0.0,0.0,0.0,0.0,0.0,0.0,0.0,0.0,0.0,0.0,0.0,0.0,0.0,0.0,0.0,0.0,0.0,0.0,0.0,0.0,0.0,0.0,0.0,0.0,0.0,0.0,0.0,0.0,0.0,0.0,0.0,0.0,0.0,0.0,0.0,0.0,0.0,0.0,0.0,0.0,0.0,0.0,0.0,0.0,0.0,0.0,0.0,0.0,0.0,0.0,0.0,0.0,0.0,0.0,0.0,0.0,0.0,0.0,0.0,0.0,0.0,0.0,0.0,0.0,0.0,0.0,0.0,0.0,0.0,0.0,0.0,0.0,0.0,0.0,0.0,0.0,0.0,0.0,0.0,0.0,0.0,0.0,0.0,0.0,0.0,0.0,0.0,0.0,0.0,0.0,0.0,0.0,0.0,0.0,0.0,0.0,0.0,0.0,0.0,0.0,0.0,0.0,0.0,0.0,0.0,0.0,0.0,0.0,0.0,0.0,0.0,0.0,0.0,0.0,0.0,0.0,0.0,0.0,0.0,0.0,0.0,0.0,0.0,0.0,0.0,0.0,0.0,0.0,0.0,0.0,0.0,0.0,0.0,0.0,0.0,0.0,0.0,0.0,0.0,0.0,0.0,0.0,0.0,0.0,0.0,0.0,0.0,0.0,0.0,0.0,0.0,0.0,0.0,0.0,0.0,0.0,0.0,0.0,0.0,0.0,0.0,0.0,0.0,0.0,0.0,0.0,0.0,0.0,0.0,0.0,0.0,0.0,0.0,0.0,0.0,0.0,0.0,0.0,0.0,0.0,0.0,0.0,0.0,0.0,0.0,0.0,0.0,0.0,0.0,0.0,0.0,0.0,0.0,0.0,0.0,0.0,0.0,0.0,0.0,0.0,0.0,0.0,0.0,0.0,0.0,0.0,0.0,0.0,0.0,0.0,0.0,0.0,0.0,0.0,0.0,0.0,0.0,0.0,0.0,0.0,0.0,0.0,0.0,0.0,0.0,0.0,0.0,0.0,0.0,0.0,0.0,0.0,0.0,0.0,0.0,0.0,0.0,0.0,0.0,0.0,0.0,0.0,0.0,0.0,0.0,0.0,0.0,0.0,0.0,0.0,0.0,0.0,0.0,0.0,0.0,0.0,0.0,0.0,0.0,0.0,0.0,0.0,0.0,0.0,0.0,0.0,0.0,0.0,0.0,0.0,0.0,0.0,0.0,0.0,0.0,0.0,0.0,0.0,0.0,0.0,0.0,0.0,0.0,0.0,0.0,0.0,0.0,0.0,0.0,0.0,0.0,0.0,0.0,0.0,0.0,0.0,0.0,0.0,0.0,0.0,0.0,0.0,0.0,0.0,0.0,0.0,0.0,0.0,0.0,0.0,0.0,0.0,0.0,0.0,0.0,0.0,0.0,0.0,0.0,0.0,0.0,0.0,0.0,0.0,0.0,0.0,0.0,0.0,0.0,0.0,0.0,0.0,0.0,0.0,0.0,0.0,0.0,0.0,0.0,0.0,0.0,0.0,0.0,0.0,0.0,0.0,0.0,0.0,0.0,0.0,0.0,0.0,0.0,0.0,0.0,0.0,0.0,0.0,0.0,0.0,0.0,0.0,0.0,0.0,0.0,0.0,0.0,0.0,0.0,0.0,0.0,0.0,0.0,0.0,0.0,0.0,0.0,0.0,0.0,0.0,0.0,0.0,0.0,0.0,0.0,0.0,0.0,0.0,0.0,0.0,0.0,0.0,0.0,0.0,0.0,0.0,0.0,0.0,0.0,0.0,0.0,0.0,0.0,0.0,0.0,0.0,0.0,0.0,0.0,0.0,0.0,0.0,0.0,0.0,0.0,0.0,0.0,0.0,0.0,0.0,0.0,0.0,0.0,0.0,0.0,0.0,0.0,0.0,0.0,0.0,0.0,0.0,0.0,0.0,0.0,0.0,0.0,0.0,0.0,0.0,0.0,0.0,0.0,0.0,0.0,0.0,0.0,0.0,0.0,0.0,0.0,0.0,0.0,0.0,0.0,0.0,0.0,0.0,0.0,0.0,0.0,0.0,0.0,0.0,0.0,0.0,0.0,0.0,0.0,0.0,0.0,0.0,0.0,0.0,0.0,0.0,0.0,0.0,0.0,0.0,0.0,0.0,0.0,0.0,0.0,0.0,0.0,0.0,0.0,0.0,0.0,0.0,0.0,0.0,0.0,0.0,0.0,0.0,0.0,0.0,0.0,0.0,0.0,0.0,0.0,0.0,0.0,0.0,0.0,0.0,0.0,0.0,0.0,0.0,0.0,0.0,0.0,0.0,0.0,0.0,0.0,0.0,0.0,0.0,0.0,0.0,0.0,0.0,0.0,0.0,0.0,0.0,0.0,0.0,0.0,0.0,0.0,0.0,0.0,0.0,0.0,0.0,0.0,0.0,0.0,0.0,0.0,0.0,0.0,0.0,0.0,0.0,0.0,0.0,0.0,0.0,0.0,0.0,0.0,0.0,0.0,0.0,0.0,0.0,0.0,0.0,0.0,0.0,0.0,0.0,0.0,0.0,0.0,0.0,0.0,0.0,0.0,0.0,0.0,0.0,0.0,0.0,0.0,0.0,0.0,0.0,0.0,0.0,0.0,0.0,0.0,0.0,0.0,0.0,0.0,0.0,0.0,0.0,0.0,0.0,0.0,0.0,0.0,0.0,0.0,0.0,0.0,0.0,0.0,0.0,0.0,0.0,0.0,0.0,0.0,0.0,0.0,0.0,0.0,0.0,0.0,0.0,0.0,0.0,0.0,0.0,0.0,0.0,0.0,0.0,0.0,0.0,0.0,0.0,0.0,0.0,0.0,0.0,0.0,0.0,0.0,0.0,0.0,0.0,0.0,0.0,0.0,0.0,0.0,0.0,0.0,0.0,0.0,0.0,0.0,0.0,0.0,0.0,0.0,0.0,0.0,0.0,0.0,0.0,0.0,0.0,0.0,0.0,0.0,0.0,0.0,0.0,0.0,0.0,0.0,0.0,0.0,0.0,0.0,0.0,0.0,0.0,0.0,0.0,0.0,0.0,0.0,0.0,0.0,0.0,0.0,0.0,0.0,0.0,0.0,0.0,0.0,0.0,0.0,0.0,0.0,0.0,0.0,0.0,0.0,0.0,0.0,0.0,0.0,0.0,0.0,0.0,0.0,0.0,0.0,0.0,0.0,0.0,0.0,0.0,0.0,0.0,0.0,0.0,0.0,0.0,0.0,0.0,0.0,0.0,0.0,0.0,0.0,0.0,0.0,0.0,0.0,0.0,0.0,0.0,0.0,0.0,0.0,0.0,0.0,0.0,0.0,0.0,0.0,0.0,0.0,0.0,0.0,0.0,0.0,0.0,0.0,0.0,0.0,0.0,0.0,0.0,0.0,0.0,0.0,0.0,0.0,0.0,0.0,0.0,0.0,0.0,0.0,0.0,0.0,0.0,0.0,0.0,0.0,0.0,0.0,0.0,0.0,0.0,0.0,0.0,0.0,0.0,0.0,0.0,0.0,0.0,0.0,0.0,0.0,0.0,0.0,0.0,0.0,0.0,0.0,0.0,0.0,0.0,0.0,0.0,0.0,0.0,0.0,0.0,0.0,0.0,0.0,0.0,0.0,0.0,0.0,0.0,0.0,0.0,0.0,0.0,0.0,0.0,0.0,0.0,0.0,0.0,0.0,0.0,0.0,0.0,0.0,0.0,0.0,0.0,0.0,0.0,0.0,0.0,0.0,0.0,0.0,0.0,0.0,0.0,0.0,0.0,0.0,0.0,0.0,0.0,0.0,0.0,0.0,0.0,0.0,0.0,0.0,0.0,0.0,0.0,0.0,0.0,0.0,0.0,0.0,0.0,0.0,0.0,0.0,0.0,0.0,0.0,0.0,0.0,0.0,0.0,0.0,0.0,0.0,0.0,0.0,0.0,0.0,0.0,0.0,0.0,0.0,0.0,0.0,0.0,0.0,0.0,0.0,0.0,0.0,0.0,0.0,0.0,0.0,0.0,0.0,0.0,0.0,0.0,0.0,0.0,0.0,0.0,0.0,0.0,0.0,0.0,0.0,0.0,0.0,0.0,0.0,0.0,0.0,0.0,0.0,0.0,0.0,0.0,0.0,0.0,0.0,0.0,0.0,0.0,0.0,0.0,0.0,0.0,0.0,0.0,0.0,0.0,0.0,0.0,0.0,0.0,0.0,0.0,0.0,0.0,0.0,0.0,0.0,0.0,0.0,0.0,0.0,0.0,0.0,0.0,0.0,0.0,0.0,0.0,0.0,0.0,0.0,0.0,0.0,0.0,0.0,0.0,0.0,0.0,0.0,0.0,0.0,0.0,0.0,0.0,0.0,0.0,0.0,0.0,0.0,0.0,0.0,0.0,0.0,0.0,0.0,0.0,0.0,0.0,0.0,0.0,0.0,0.0,0.0,0.0,0.0,0.0,0.0,0.0,0.0,0.0,0.0,0.0,0.0,0.0,0.0,0.0,0.0,0.0,0.0,0.0,0.0,0.0,0.0,0.0,0.0,0.0,0.0,0.0,0.0,0.0,0.0,0.0,0.0,0.0,0.0,0.0,0.0,0.0,0.0,0.0,0.0,0.0,0.0,0.0,0.0,-5.6884,-5.7115,0.0,0.0,0.0,0.0,0.0,0.0,0.0,0.0,0.0,0.0,0.0,0.0,0.0,0.0,0.0,0.0,0.0,0.0,0.0,0.0,0.0,0.0,0.0,-4.9663,-5.0682,-5.0594,-4.9736,0.0,0.0,0.0,0.0,0.0,0.0,0.0,0.0,0.0,-4.3758,-4.4844,-4.5423,-4.6781,-4.8932,-5.0433,-5.0648,-4.97,0.0,0.0,0.0,0.0,0.0,0.0,0.0,0.0,0.0,0.0,0.0,0.0,0.0,0.0,0.0,0.0,0.0,0.0,0.0,0.0,0.0,0.0,0.0,0.0,0.0,0.0,0.0,0.0,0.0,0.0,0.0,0.0,0.0,0.0,0.0,0.0,0.0,0.0,0.0,0.0,0.0,0.0,0.0,0.0,0.0,0.0,0.0,0.0,0.0,0.0,0.0,0.0,0.0,0.0,0.0,0.0,0.0,0.0,0.0,0.0,0.0,0.0,0.0,0.0,0.0,0.0,0.0,0.0,0.0,0.0,-5.6249,-5.671,0.0,0.0,0.0,0.0,0.0,0.0,0.0,0.0,0.0,0.0,0.0,0.0,0.0,0.0,0.0,0.0,0.0,0.0,0.0,0.0,0.0,-4.7192,-4.8009,-4.9663,-5.0712,-5.0712,-4.9941,-4.9458,-4.9437,-4.7612,0.0,0.0,0.0,0.0,-4.4039,-4.3953,-4.4692,-4.6339,-4.6822,-4.8245,-5.0489,-5.3458,-5.354,-5.1137,-5.0755,0.0,0.0,0.0,0.0,0.0,0.0,0.0,0.0,0.0,0.0,0.0,0.0,0.0,0.0,0.0,0.0,0.0,0.0,0.0,0.0,0.0,0.0,0.0,0.0,0.0,0.0,0.0,0.0,0.0,0.0,0.0,0.0,0.0,0.0,0.0,0.0,0.0,0.0,0.0,0.0,0.0,0.0,0.0,0.0,0.0,0.0,0.0,0.0,0.0,0.0,0.0,0.0,0.0,0.0,0.0,0.0,0.0,0.0,0.0,0.0,0.0,0.0,0.0,-5.5532,-5.4984,-5.477,-5.4553,-5.4794,-5.5374,-5.5374,-5.6093,-5.7204,-5.7093,0.0,0.0,0.0,0.0,0.0,0.0,0.0,0.0,0.0,0.0,0.0,0.0,0.0,0.0,0.0,0.0,0.0,0.0,0.0,-4.7192,-4.8009,-4.9663,-5.0712,-5.0712,-5.0577,-5.046,-5.0357,-4.9175,0.0,0.0,0.0,-4.6142,-4.6094,-4.5766,-4.6389,-4.8085,-5.0229,-5.1494,-5.1856,-5.2945,-5.3584,-5.3886,-5.5675,-5.5235,-5.3136,0.0,0.0,0.0,0.0,0.0,0.0,0.0,0.0,0.0,0.0,0.0,0.0,0.0,0.0,0.0,0.0,0.0,0.0,0.0,0.0,0.0,0.0,0.0,0.0,0.0,0.0,0.0,0.0,0.0,0.0,0.0,0.0,0.0,0.0,0.0,0.0,0.0,0.0,0.0,0.0,0.0,-5.5476,-5.6895,0.0,0.0,0.0,0.0,0.0,0.0,0.0,0.0,0.0,0.0,0.0,0.0,0.0,-5.7211,-5.8126,-5.9089,-5.9053,-5.8034,-5.8141,-5.7652,-5.6622,-5.5567,-5.5118,-5.5258,-5.5258,0.0,-5.667,-5.7302,0.0,0.0,0.0,0.0,0.0,0.0,0.0,0.0,0.0,0.0,0.0,0.0,0.0,0.0,0.0,0.0,0.0,0.0,0.0,0.0,0.0,-5.027,-5.1729,-5.1729,-5.2583,-5.2712,-5.1684,-5.0952,0.0,0.0,-4.7462,-4.6666,-4.651,-4.6539,-4.7627,-4.9813,-5.1821,-5.2879,-5.2942,-5.4992,-5.6078,-5.6426,-5.9245,-5.8067,-5.4036,-5.4383,0.0,0.0,0.0,0.0,0.0,0.0,0.0,0.0,0.0,0.0,0.0,0.0,0.0,0.0,0.0,0.0,0.0,0.0,0.0,0.0,0.0,0.0,0.0,0.0,0.0,0.0,0.0,0.0,0.0,0.0,0.0,0.0,0.0,0.0,0.0,0.0,0.0,0.0,0.0,-5.5848,-5.6432,-5.7504,-5.7535,-5.754,0.0,0.0,0.0,0.0,0.0,0.0,0.0,0.0,0.0,-5.9468,-5.894,-5.9235,-6.0419,-6.0409,-6.0115,-5.9589,-5.8358,-5.7527,-5.6943,-5.572,-5.5179,-5.5179,-5.5179,-5.5387,-5.581,-5.6419,-5.6293,-5.5764,0.0,0.0,0.0,0.0,-5.6381,-5.6574,0.0,0.0,0.0,0.0,0.0,0.0,0.0,0.0,0.0,0.0,0.0,0.0,-4.8971,-5.1694,-5.3351,-5.3173,-5.4468,-5.4583,-5.2945,-5.2414,-5.1393,-4.9728,-4.831,-4.7447,-4.728,-4.7792,-4.9199,-5.1494,-5.2795,-5.3558,-5.385,-5.6527,-5.7944,-5.8312,-6.0598,-5.9421,-5.5769,-5.6206,-5.4481,-5.1447,0.0,0.0,0.0,0.0,0.0,0.0,0.0,0.0,0.0,0.0,0.0,0.0,0.0,0.0,0.0,0.0,0.0,0.0,0.0,0.0,0.0,0.0,0.0,0.0,0.0,0.0,0.0,0.0,0.0,0.0,0.0,0.0,0.0,0.0,0.0,0.0,0.0,-5.6863,-5.7338,-5.7996,-5.8258,-5.8208,0.0,0.0,0.0,0.0,0.0,0.0,-5.9559,-5.9623,-5.9947,-6.0655,-6.0689,-6.1231,-6.2381,-6.148,-6.0912,-6.0586,-5.878,-5.7761,-5.7434,-5.6541,-5.5967,-5.5651,-5.5651,-5.5501,-5.525,-5.5749,-5.5888,-5.5843,-5.6979,-5.7023,-5.6535,-5.7176,-5.7536,-5.7665,0.0,0.0,0.0,0.0,0.0,0.0,0.0,0.0,0.0,0.0,0.0,-4.9894,-5.1538,-5.4294,-5.5712,-5.4939,-5.5649,-5.5445,-5.3821,-5.3364,-5.2731,-5.1788,-5.0215,-4.9361,-4.9361,-5.0257,-5.1538,-5.3172,-5.3378,-5.3847,-5.4579,-5.6198,-5.7692,-5.9012,-5.8897,-5.9173,-5.9702,-5.8351,-5.6914,-5.5258,-5.2338,0.0,0.0,0.0,0.0,0.0,0.0,0.0,0.0,0.0,0.0,0.0,0.0,0.0,0.0,0.0,0.0,0.0,0.0,0.0,0.0,0.0,0.0,0.0,0.0,0.0,0.0,0.0,0.0,0.0,0.0,0.0,0.0,0.0,0.0,0.0,0.0,0.0,0.0,-5.8298,-5.8495,0.0,0.0,0.0,0.0,-6.0355,-6.0702,-6.1172,-6.1892,-6.2119,-6.2251,-6.2279,-6.2279,-6.2313,-6.2381,-6.2341,-6.1716,-6.0586,-6.0459,-5.9827,-5.8722,-5.8632,-5.7993,-5.6896,-5.6896,-5.628,-5.5239,-5.5909,-5.581,-5.536,-5.6642,-5.6762,-5.6293,-5.6998,-5.7645,-5.8246,0.0,0.0,0.0,0.0,0.0,-4.6654,-4.6771,-4.6125,-4.6116,-4.748,-4.9625,-5.1664,-5.3395,-5.6155,-5.8206,-5.9035,-5.9364,-5.883,-5.7139,-5.5638,-5.4402,-5.347,-5.1391,-5.0772,-5.1844,-5.3274,-5.4271,-5.4844,-5.4886,-5.5334,-5.6123,-5.767,-5.8937,-5.9908,-6.0323,-6.0458,-6.0281,-5.8137,-5.6234,-5.4505,-5.3605,-5.2384,0.0,0.0,0.0,0.0,0.0,0.0,0.0,0.0,0.0,0.0,0.0,0.0,0.0,0.0,0.0,0.0,0.0,0.0,0.0,0.0,0.0,0.0,0.0,0.0,0.0,0.0,0.0,0.0,0.0,0.0,0.0,0.0,0.0,0.0,0.0,0.0,0.0,-5.9288,-5.9927,0.0,-5.9891,-6.0096,-6.0435,-6.1018,-6.1582,-6.2013,-6.2285,-6.2363,-6.2381,-6.2381,-6.2381,-6.2381,-6.2381,-6.2381,-6.215,-6.1756,-6.0953,-6.0374,-5.9913,-5.917,-5.881,-5.881,-5.8026,-5.7678,-5.7725,-5.7488,-5.6795,-5.5897,-5.6765,-5.6944,-5.6877,-5.7557,-5.7962,-5.8173,0.0,0.0,0.0,-4.9683,-4.873,-4.8167,-4.8599,-4.7965,-4.8017,-4.9643,-5.1568,-5.3664,-5.5934,-5.8514,-6.0546,-6.1682,-6.2063,-6.1247,-5.8945,-5.7097,-5.5362,-5.3793,-5.2445,-5.2714,-5.4788,-5.5644,-5.6118,-5.6118,-5.6087,-5.6674,-5.7739,-5.9558,-6.0642,-6.1119,-6.1206,-6.0513,-5.9194,-5.662,-5.5252,-5.4829,-5.4394,-5.3288,-5.1785,0.0,0.0,0.0,0.0,0.0,0.0,0.0,0.0,0.0,0.0,0.0,0.0,0.0,0.0,0.0,0.0,0.0,0.0,0.0,0.0,0.0,0.0,0.0,0.0,0.0,0.0,0.0,0.0,0.0,0.0,0.0,0.0,0.0,0.0,-5.9597,-6.0069,-5.9925,-6.0714,-6.1095,-6.0554,-6.0994,-6.14,-6.1637,-6.211,-6.2381,-6.2381,-6.2381,-6.2381,-6.2381,-6.2381,-6.2381,-6.2381,-6.2381,-6.2381,-6.2381,-6.1595,-6.1368,-6.1559,-6.0735,-6.0576,-6.0825,-5.9989,-5.9681,-5.9642,-5.8808,-5.8092,-5.7495,-5.7723,-5.7633,-5.7513,-5.8201,-5.8471,-5.8471,0.0,-5.1196,-5.0924,-5.0076,-4.9873,-4.9828,-4.9821,-4.9003,-4.9586,-5.2886,-5.4033,-5.5857,-5.9204,-6.1423,-6.2658,-6.2727,-6.3398,-6.2444,-5.9112,-5.757,-5.5578,-5.2794,-5.3524,-5.5306,-5.802,-5.7411,-5.7046,-5.701,-5.7025,-5.7866,-5.9463,-6.1629,-6.2672,-6.2702,-6.1385,-5.9389,-5.6784,-5.4146,-5.443,-5.6552,-5.4589,-5.3821,-5.3687,0.0,0.0,0.0,0.0,0.0,0.0,0.0,0.0,0.0,0.0,0.0,0.0,0.0,0.0,0.0,0.0,0.0,0.0,0.0,0.0,0.0,0.0,0.0,0.0,0.0,0.0,0.0,0.0,0.0,0.0,0.0,0.0,0.0,-5.9695,-6.0414,-6.0745,-6.0224,-6.0858,-6.1332,-6.1332,-6.1332,-6.1637,-6.2347,-6.2381,-6.2381,-6.2381,-6.2415,-6.2415,-6.2415,-6.2448,-6.2448,-6.2415,-6.2415,-6.2415,-6.2381,-6.2415,-6.2821,-6.3531,-6.3531,-6.3299,-6.288,-6.2837,-6.2187,-6.1017,-5.9753,-5.9619,-6.0152,-5.9357,-5.871,-5.8231,-5.886,-5.9099,-5.9099,-5.119,-5.1121,-5.0972,-5.0739,-5.0687,-5.0653,-5.0596,-5.0357,-5.0919,-5.3011,-5.5073,-5.7599,-6.1023,-6.2964,-6.4525,-6.5767,-6.4947,-6.3488,-6.1352,-5.8436,-5.6166,-5.47,-5.7411,-5.9191,-5.9722,-6.0689,-6.0589,-5.942,-6.0037,-6.1043,-6.2521,-6.4276,-6.4746,-6.4118,-6.3233,-6.133,-5.8701,-5.6315,-5.585,-5.6433,-5.3543,-5.2377,-5.2257,0.0,0.0,0.0,0.0,0.0,0.0,0.0,0.0,0.0,0.0,0.0,0.0,0.0,0.0,0.0,0.0,0.0,0.0,0.0,0.0,0.0,0.0,0.0,0.0,0.0,0.0,0.0,0.0,0.0,0.0,0.0,-5.9354,-6.014,-5.9833,-6.06,-6.1113,-6.096,-6.1637,-6.211,-6.211,-6.211,-6.2178,-6.2381,-6.2381,-6.2381,-6.2381,-6.2922,-6.3193,-6.3193,-6.3734,-6.3734,-6.3193,-6.3193,-6.2922,-6.2381,-6.2956,-6.3328,-6.3531,-6.4072,-6.4518,-6.4867,-6.3945,-6.3636,-6.3701,-6.2444,-6.2043,-6.1958,-5.9392,-5.859,-5.886,-5.9039,-5.9099,-5.9099,-5.1242,-5.1391,-5.149,-5.114,-5.1373,-5.1554,-5.1513,-5.1794,-5.2864,-5.5198,-5.6724,-5.899,-6.2755,-6.432,-6.5667,-6.6974,-6.5897,-6.4115,-6.1644,-5.8192,-5.6954,-5.8604,-6.0611,-6.1869,-6.2258,-6.3158,-6.278,-6.1007,-6.2181,-6.3382,-6.4541,-6.6418,-6.6571,-6.525,-6.4706,-6.2504,-5.91,-5.7473,-5.6599,-5.6114,-5.4218,-5.3652,-5.3831,-5.2584,-5.1721,-5.1223,-5.0894,-5.1055,-5.1636,-5.2686,0.0,0.0,0.0,0.0,0.0,0.0,0.0,0.0,0.0,0.0,0.0,0.0,0.0,0.0,0.0,0.0,0.0,0.0,0.0,0.0,0.0,0.0,0.0,0.0,-6.066,-6.1381,-6.0941,-6.1389,-6.1772,-6.1772,-6.2144,-6.2516,-6.2821,-6.2854,-6.2854,-6.2854,-6.3159,-6.3193,-6.2888,-6.3565,-6.3971,-6.3971,-6.4377,-6.441,-6.3971,-6.3971,-6.3768,-6.3328,-6.3768,-6.414,-6.4444,-6.485,-6.5459,-6.6094,-6.5349,-6.5324,-6.5603,-6.4322,-6.3811,0.0,0.0,0.0,0.0,0.0,-5.9099,-5.9099,-5.1507,-5.1924,-5.2135,-5.1358,-5.1863,-5.2407,-5.2407,-5.3094,-5.4793,-5.8208,-5.8607,-6.0138,-6.4294,-6.555,-6.6371,-6.7026,-6.6359,-6.4411,-6.0904,-5.7791,-5.8237,-6.297,-6.3174,-6.3725,-6.4912,-6.4979,-6.4083,-6.218,-6.3859,-6.5087,-6.588,-6.8036,-6.8016,-6.6187,-6.5851,-6.3221,-5.8959,-5.8186,-5.7272,-5.633,-5.6205,-5.6482,-5.6768,-5.4893,-5.4283,-5.4152,-5.1801,-5.1619,-5.2505,-5.2706,0.0,0.0,0.0,0.0,0.0,0.0,0.0,0.0,0.0,0.0,0.0,0.0,0.0,0.0,0.0,0.0,0.0,0.0,0.0,0.0,0.0,0.0,0.0,0.0,-6.1745,-6.2381,-6.2381,-6.2381,-6.2381,-6.2381,-6.2381,-6.2685,-6.3429,-6.3531,-6.3531,-6.3632,-6.4241,-6.4309,-6.3666,-6.4343,0.0,0.0,0.0,-6.4816,-6.4715,-6.4715,-6.4681,-6.4613,-6.4681,-6.5053,-6.5696,-6.5764,-6.617,-6.6812,-6.6812,-6.6812,-6.6728,-6.5603,-6.5036,-6.4642,-6.2013,-6.0989,-6.0866,-5.9576,-5.9099,-5.9099,-5.2524,-5.2319,-5.2135,-5.1358,-5.1863,-5.2407,-5.2407,-5.3094,-5.5025,-5.902,-5.9581,-6.1164,-6.5216,-6.651,-6.7106,-6.7116,-6.6359,-6.4485,-6.1202,-6.0719,-6.1349,-6.3141,-6.4661,-6.5566,-6.5769,-6.6212,-6.5593,-6.3936,-6.5559,-6.6634,-6.725,-6.9048,-6.8767,-6.6704,-6.6026,-6.3984,-6.0977,-6.0203,-6.0007,-6.0194,-5.9232,-5.8038,-5.6709,-5.578,-5.5412,-5.5393,-5.5142,-5.5193,-5.5671,-5.7591,-5.7604,-5.7049,-5.843,-5.7938,0.0,0.0,0.0,0.0,0.0,0.0,0.0,0.0,0.0,0.0,0.0,0.0,0.0,0.0,0.0,0.0,0.0,0.0,0.0,-6.0825,-6.1745,-6.2381,-6.2381,-6.2381,-6.2381,-6.2381,-6.2381,-6.2685,-6.3429,-6.3531,-6.3768,-6.4343,-6.4512,-6.4546,-6.441,-6.5087,-6.5493,-6.5493,-6.6068,-6.6102,-6.5493,-6.5493,-6.5189,-6.4613,0.0,0.0,-6.5696,-6.6305,-6.6677,-6.6812,-6.6812,-6.6812,-6.677,-6.6525,-6.5855,-6.4642,-6.2013,-6.0989,-6.0866,-5.9576,-5.9099,-5.9099,-5.4051,-5.3758,-5.3183,-5.1474,-5.257,-5.3527,-5.31,-5.4096,-5.6087,-5.9469,-5.9545,-6.0544,-6.3776,-6.4162,-6.4103,-6.4067,-6.3549,-6.3037,-6.2481,-6.3027,-6.4426,-6.6805,-6.7835,-6.8048,-6.7406,-6.7675,-6.6923,-6.5153,-6.6815,-6.7958,-6.867,-6.9919,-6.9675,-6.8107,-6.6849,-6.4763,-6.2153,-6.135,-6.1406,-6.2013,-6.1849,-6.1416,-6.0541,-5.7409,-5.6347,-5.6457,-5.5669,-5.5738,-5.6486,-5.8466,-5.8998,-5.9064,-6.059,-6.029,-5.9129,0.0,0.0,0.0,0.0,0.0,0.0,0.0,0.0,0.0,0.0,0.0,0.0,0.0,0.0,-5.9633,-5.9731,0.0,-6.1204,-6.1616,-6.2067,-6.2381,-6.2381,-6.2381,-6.2381,-6.2381,-6.2719,-6.326,-6.4005,-6.4377,-6.4749,-6.5121,-6.5493,-6.5561,-6.5155,-6.5831,-6.6237,-6.6237,-6.6609,-6.6643,-6.6237,-6.6237,-6.6068,-6.573,-6.6068,-6.6237,-6.6271,-6.6643,-6.6812,-6.6812,-6.6812,-6.6812,-6.6812,-6.6812,-6.644,-6.5646,-6.37,-6.2161,-6.0949,-6.0674,-6.0143,-5.9638,-5.5278,-5.518,-5.4504,-5.2096,-5.3482,-5.4703,-5.4032,-5.5197,-5.7048,-5.9653,-5.9111,-5.9405,-6.1865,-6.1301,-6.0703,-6.0703,-6.1416,-6.2487,-6.3924,-6.5373,-6.7576,-7.0674,-7.0927,-7.0403,-6.9087,-6.919,-6.8282,-6.6189,-6.7884,-6.9027,-6.9759,-7.0695,-7.0646,-6.97,-6.809,-6.5993,-6.3603,-6.2703,-6.2637,-6.3235,-6.4084,-6.4702,-6.4734,-6.008,-5.8488,-5.8451,-5.6803,-5.6651,-5.742,-5.8825,-5.975,-6.0588,-6.1941,-6.1999,-6.1185,-5.9543,-5.9294,0.0,0.0,0.0,0.0,0.0,0.0,0.0,0.0,-5.8448,-5.8906,-5.9286,-5.9864,-6.033,-6.0495,-6.1061,-6.1704,-6.2279,-6.2381,-6.2381,-6.2381,-6.2516,-6.2618,-6.2618,-6.3159,-6.3869,-6.4715,-6.5358,-6.5764,-6.5899,-6.6474,-6.6542,-6.5933,-6.6474,-6.6812,-6.6812,-6.6812,-6.6812,-6.6812,-6.6812,-6.6812,-6.6812,-6.6812,-6.6812,-6.6812,-6.6812,-6.6812,-6.6812,-6.6812,-6.6812,-6.6812,-6.6812,-6.6652,-6.6397,-6.5725,-6.3879,-6.1594,-6.1908,-6.1461,-6.0711,-5.5339,-5.5637,-5.5592,-5.3733,-5.4304,-5.4958,-5.4854,-5.5663,-5.7144,-5.9575,-5.8616,-5.862,-6.0973,-6.0507,-5.9913,-5.9705,-6.3794,-6.5918,-6.4931,-6.8498,-7.0988,-7.1659,-7.2111,-7.1624,-6.998,-7.0606,-6.9705,-6.7222,-6.8886,-6.9776,-6.991,-7.1377,-7.1735,-7.1128,-6.974,-6.8248,-6.6709,-6.5444,-6.4876,-6.4884,-6.5779,-6.6101,-6.5955,-6.4631,-6.372,-6.3049,-6.2174,-6.1462,-6.1013,-6.1841,-6.1708,-6.1298,-6.2144,-6.2324,-6.2059,-6.1048,-6.0935,-6.0955,-5.9984,-5.9726,-5.9695,-5.9325,-5.9225,-5.9588,0.0,-6.0911,-6.083,-6.1549,-6.1927,-6.212,-6.2149,-6.2212,-6.2279,-6.2381,-6.2381,-6.2381,-6.2381,-6.2956,-6.3396,-6.3396,-6.3463,-6.4072,-6.5425,-6.5628,-6.5967,-6.6643,-6.6779,-6.6779,-6.6677,-6.6779,-6.6812,-6.6812,-6.6812,-6.6812,-6.6812,-6.6812,-6.6812,-6.6812,-6.6812,-6.6812,-6.6812,-6.6812,-6.6812,-6.6812,-6.6812,-6.6812,-6.6812,-6.6812,-6.6148,-6.5281,-6.694,-6.6006,-6.3606,-6.2424,-6.2341,-6.2601,-5.5916,-5.6069,-5.6131,-5.5333,-5.5443,-5.5527,-5.5119,-5.5715,-5.6774,-5.8333,-5.7136,-5.6695,-5.8192,-5.6636,-5.5775,-5.6515,-6.0319,-6.3489,-6.5402,-6.9044,-7.1819,-7.3399,-7.368,-7.3047,-7.136,-7.1733,-7.0718,-6.8171,-6.9955,-7.1025,-7.1433,-7.2573,-7.2773,-7.2036,-7.0548,-6.892,-6.723,-6.6206,-6.5801,-6.5979,-6.6846,-6.712,-6.7082,-6.7257,-6.6822,-6.5793,-6.3298,-6.1884,0.0,-6.2534,-6.2015,-6.1185,-6.2687,-6.2161,-6.1073,-6.1008,-6.0866,-6.0963,-6.1858,-6.2049,-6.18,-6.0742,-6.0806,-6.1046,-6.0832,-6.0978,-6.1337,-6.2123,-6.2339,-6.2381,-6.2381,-6.2381,-6.2381,-6.2381,-6.2753,-6.3057,-6.3057,-6.37,-6.4309,-6.4715,-6.4783,-6.5019,-6.5628,-6.6102,-6.6474,-6.6779,-6.6812,-6.6812,-6.6812,-6.6812,-6.6812,-6.6812,-6.6812,-6.6812,-6.6812,-6.6812,-6.6812,-6.6812,-6.6812,-6.6812,-6.6812,-6.7252,-6.7455,-6.7421,-6.7015,-6.6812,-6.6812,-6.6812,-6.6718,-6.6742,-6.7588,-6.7802,-6.7506,-6.608,-6.5286,-6.4891,-5.6419,-5.6391,-5.6378,-5.6342,-5.622,-5.5961,-5.5486,-5.5832,-5.6425,-5.7146,-5.5786,-5.4796,-5.4901,-5.3327,-5.2686,-5.3705,-5.7511,-6.1473,-6.5282,-6.9129,-7.2399,-7.4938,-7.5053,-7.4284,-7.2591,-7.2811,-7.1678,-6.9127,-7.0979,-7.2132,-7.2551,-7.3393,-7.3588,-7.3122,-7.1324,-6.9739,-6.8372,-6.7218,-6.6874,-6.7104,-6.7767,-6.8017,-6.8091,-6.8678,-6.8292,-6.7106,-6.4148,-6.257,-6.1947,-6.2493,-6.1795,-6.0924,-6.1973,-6.1388,-6.0342,-6.0713,-6.086,-6.1254,-6.2907,-6.3537,-6.3362,-6.1919,-6.211,-6.2336,-6.103,-6.1197,-6.1738,-6.2279,-6.2381,-6.2381,-6.2381,-6.255,-6.2685,-6.2685,-6.3328,-6.3802,-6.3802,-6.4444,-6.5087,-6.5628,-6.5865,-6.6,-6.6,-6.6508,-6.6812,-6.6812,-6.6812,-6.6812,-6.6812,-6.6812,-6.6812,-6.6812,-6.6812,-6.6812,-6.6812,-6.6812,-6.6812,-6.6812,-6.7015,-6.7117,-6.7117,-6.7658,-6.7793,-6.7557,-6.7049,-6.6812,-6.6846,-6.7015,-6.7217,-6.7463,-6.8205,-6.9005,-6.9592,-6.9131,-6.814,-6.7046,-5.6685,-5.6388,-5.6411,-5.639,-5.6276,-5.6212,-5.6265,-5.6291,-5.6291,-5.633,-5.4891,-5.3156,-5.1372,-5.1781,-5.2136,-5.1991,-5.7357,-6.1858,-6.4474,-6.936,-7.3283,-7.5861,-7.5976,-7.5168,-7.3514,-7.3801,-7.2701,-7.0141,-7.2023,-7.2871,-7.2726,-7.3471,-7.4084,-7.4548,-7.2357,-7.1353,-7.1152,-6.9235,-6.8436,-6.8453,-6.8762,-6.8862,-6.8862,-6.8898,-6.8084,-6.6828,-6.5891,-6.5033,-6.3966,-6.1933,-6.1173,-6.0816,-5.9266,-5.9624,-6.0652,-6.0392,-6.1262,-6.2423,-6.2741,-6.3357,-6.368,-6.2789,-6.3098,-6.3395,-6.2513,-6.2347,-6.2347,-6.2381,-6.2381,-6.2381,-6.2381,-6.299,-6.3497,-6.3497,-6.4106,-6.458,-6.458,-6.5189,-6.5662,-6.5696,-6.6339,-6.6779,-6.6779,-6.6812,-6.6812,-6.6812,-6.6812,-6.6812,-6.6812,-6.6812,-6.6812,-6.6812,-6.6812,-6.6812,-6.6812,-6.6812,-6.6812,-6.6812,-6.7523,-6.7861,-6.7861,-6.7895,-6.7523,-6.6846,-6.6812,-6.6812,-6.688,-6.7557,-6.7144,-6.6304,-6.9043,-6.9355,-6.8512,-7.0489,-7.0322,-6.8943,-5.7313,-5.678,-5.6566,-5.7096,-5.7142,-5.712,-5.7053,-5.6527,-5.6199,-5.6285,-5.5319,0.0,0.0,0.0,0.0,0.0,-5.5229,-5.8235,-6.1924,-6.632,-6.9937,-7.2514,-7.4245,-7.4665,-7.3647,-7.3311,-7.2504,-7.1204,-7.2416,-7.2881,-7.2709,-7.3442,-7.3516,-7.3014,-7.227,-7.1405,-7.0497,-6.9834,-6.9373,-6.9037,-6.914,-6.9162,-6.9087,-6.8526,-6.7621,-6.635,0.0,-6.2691,-6.1763,-6.1048,-6.0033,-5.91,-5.9419,-5.8983,-5.8487,-5.9295,-6.1053,-6.2936,-6.4138,-6.5045,-6.5532,-6.522,-6.5292,-6.5267,-6.4323,-6.3683,-6.324,-6.324,-6.271,-6.2176,-6.2176,-6.2825,-6.3299,-6.3299,-6.4415,-6.5324,-6.5324,-6.5967,-6.644,-6.644,-6.6643,-6.6812,-6.6812,-6.6812,-6.6812,-6.6812,-6.6812,-6.6812,-6.6812,-6.6812,-6.6812,-6.6812,-6.6812,-6.6812,-6.6812,-6.6812,-6.6812,-6.6812,-6.7557,-6.8166,-6.8673,-6.8132,-6.776,-6.7489,-6.7015,-6.7083,-6.7557,-6.7793,-6.8253,-6.8887,-6.9826,-7.0243,-7.033,-7.1075,-7.1007,-7.0528,0.0,0.0,0.0,-5.794,-5.7994,0.0,0.0,0.0,0.0,0.0,0.0,0.0,0.0,0.0,0.0,0.0,0.0,-5.6126,-5.978,-6.3033,-6.6244,-6.9398,-7.0821,-7.1364,-7.096,-7.061,-7.0419,-7.0298,-7.1558,-7.2373,-7.2716,-7.3212,-7.2999,-7.2168,-7.186,-7.1233,-7.0362,-7.0179,-6.9883,-6.9531,-6.8731,-6.8425,-6.8274,-6.7085,-6.5913,0.0,-6.2426,-6.0914,-5.9824,-5.9241,-5.8596,-5.8131,-5.8386,-5.8275,-5.8297,-5.9637,-6.1594,-6.3649,-6.5301,-6.6109,-6.6499,-6.6431,-6.6404,-6.6156,-6.5196,-6.4598,-6.4078,-6.3755,-6.3093,-6.2465,-6.2172,-6.2864,-6.3454,-6.323,-6.4561,-6.5678,-6.567,-6.6102,-6.6508,-6.6779,-6.6812,-6.6812,-6.6812,-6.6812,-6.6812,-6.6812,-6.6812,-6.6812,-6.6812,-6.6812,-6.6812,-6.6812,-6.6812,-6.6812,-6.6812,-6.6812,-6.7083,-6.7624,-6.8368,-6.8977,-6.9485,-6.8944,-6.8571,-6.8301,-6.7827,-6.7895,-6.8335,-6.8605,-6.9282,-7.0229,-7.0466,-7.0872,-7.1312,-7.1312,-7.1312,-7.1312,0.0,0.0,0.0,0.0,0.0,0.0,0.0,0.0,0.0,0.0,0.0,0.0,0.0,0.0,0.0,0.0,0.0,0.0,-5.8055,-5.976,-6.2512,-6.659,-6.6167,-6.5883,-6.5924,-6.6181,-6.6768,-6.7657,-6.9548,-7.1131,-7.2366,-7.2443,-7.2259,-7.1849,-7.1041,-7.0681,-7.0667,-7.0133,-6.9916,-6.9768,-6.7638,-6.6729,-6.6578,-6.4879,-6.335,-6.2022,-6.1097,-5.9879,-5.8461,-5.6838,-5.7175,-5.8028,-5.6452,-5.7711,-6.0004,-6.1275,-6.2792,-6.4442,-6.6072,-6.6512,-6.6536,-6.646,-6.6464,-6.6217,-6.5326,-6.5098,-6.4833,-6.4007,-6.3624,-6.3135,-6.232,-6.3195,-6.3859,-6.334,-6.4564,-6.5602,-6.5711,-6.5764,-6.6,-6.6745,-6.6812,-6.6812,-6.6812,-6.6812,-6.6812,-6.6812,0.0,-6.6812,-6.6812,-6.6812,-6.6812,-6.6812,-6.6812,-6.6812,-6.6812,-6.6846,-6.7624,-6.9113,-6.9857,-7.0195,-7.0195,-7.0195,-6.9789,-6.9113,-6.9113,-6.9113,-6.9214,-6.9891,-7.0195,-7.0331,-7.1041,-7.1312,-7.1312,-7.1312,-7.1312,-7.1312,0.0,0.0,0.0,0.0,0.0,0.0,0.0,0.0,0.0,0.0,0.0,0.0,0.0,0.0,0.0,0.0,0.0,0.0,-5.5504,-5.7695,-5.9973,-6.2281,-6.4012,-6.4991,-6.5171,-6.5311,-6.5551,-6.5957,-6.699,-6.7681,-6.8013,-6.7933,-6.7851,-6.7729,-6.7498,-6.7741,-6.8231,-6.7409,-6.7411,-6.7898,-6.6657,-6.615,-6.6035,-6.491,-6.382,-6.2639,-6.1071,-5.9786,-5.8737,-5.7893,-5.8502,-5.9577,-5.9453,-5.9883,-6.0708,-6.2041,-6.3128,-6.4347,-6.605,-6.6953,-6.7403,-6.736,-6.7378,-6.7286,-6.7081,-6.6487,-6.5966,-6.5748,-6.4365,-6.3138,-6.3065,-6.3589,-6.3996,-6.3989,-6.5409,-6.6471,-6.6508,-6.6542,-6.6609,-6.6779,-6.6812,-6.6812,-6.6812,-6.6812,-6.6812,-6.6812,-6.6812,-6.6812,-6.6812,-6.6812,-6.6812,-6.6812,-6.6812,-6.6812,-6.6812,-6.7354,-6.8132,-6.9113,-6.9857,-7.0195,-7.0195,-7.0195,-6.9789,-6.9113,-6.9113,-6.9417,-6.9925,-7.0094,-7.0534,-7.1041,-7.1244,-7.1312,-7.1312,-7.1312,-7.1312,-7.1312,0.0,0.0,0.0,0.0,0.0,0.0,0.0,0.0,0.0,0.0,0.0,0.0,0.0,0.0,0.0,0.0,0.0,0.0,0.0,-5.5894,-5.7396,-5.9061,-6.0127,-6.0933,-6.1457,-6.1544,-6.2242,-6.3575,-6.3953,-6.4766,-6.5867,-6.5355,-6.5054,-6.5009,-6.5009,-6.5473,-6.6168,-6.5631,-6.5916,0.0,0.0,-6.4743,-6.4628,-6.3397,-6.2554,-6.1927,-6.1234,-6.1111,-6.1193,-6.1149,-6.1056,-6.1137,-6.196,-6.2183,-6.2485,-6.3912,-6.4684,-6.5313,-6.6663,-6.7357,-6.7687,-6.7687,-6.7687,-6.763,-6.7447,-6.6911,-6.6256,-6.5649,-6.4347,-6.3238,-6.2941,-6.3515,-6.3974,-6.3824,-6.5181,-6.6262,-6.6313,-6.6305,-6.644,-6.6779,-6.6812,-6.6812,-6.6812,-6.6812,-6.6812,-6.6812,-6.6812,-6.6812,-6.6812,-6.6812,-6.6812,-6.6812,-6.6812,-6.6812,-6.6812,-6.7895,-6.8639,-6.9113,-7.0195,-7.0669,-7.0669,-7.0669,-7.0466,-7.006,-7.006,-7.0297,-7.0669,-7.0669,-7.0939,-7.1312,-7.1312,-7.1312,-7.1312,-7.1312,-7.1312,-7.1312,0.0,0.0,0.0,0.0,0.0,0.0,0.0,0.0,0.0,0.0,-5.9454,0.0,0.0,0.0,0.0,0.0,0.0,0.0,0.0,0.0,-5.5203,-5.6753,-5.6088,-5.6092,-5.6916,-5.7077,-5.8366,-6.0838,-6.0882,-6.2082,-6.4323,-6.3456,-6.2951,-6.286,-6.2871,-6.3383,-6.4233,-6.3904,-6.4455,-6.5368,-6.3534,-6.2846,-6.282,0.0,-6.0902,-6.0917,-6.171,-6.2905,-6.4284,-6.4951,-6.413,-6.3023,-6.42,-6.4658,-6.5024,-6.6416,-6.6746,-6.6846,-6.7623,-6.776,-6.7687,-6.7687,-6.7687,-6.7573,-6.7136,-6.6775,-6.6182,-6.4855,-6.4081,-6.3429,-6.2701,-6.3347,-6.3927,-6.3595,-6.4667,-6.5596,-6.5812,-6.5831,-6.6068,-6.6745,-6.6812,-6.6812,-6.6812,-6.6812,-6.6812,-6.6812,-6.6812,-6.6812,-6.6812,-6.6812,-6.6812,-6.6812,-6.6812,-6.688,-6.6948,-6.8368,-6.9147,-6.9248,-7.0635,-7.1312,-7.1312,-7.1312,-7.1312,-7.1312,-7.1312,-7.1312,-7.1312,-7.1312,-7.1312,-7.1312,-7.1312,-7.1312,-7.1312,-7.1312,-7.1312,-7.1312,0.0,0.0,0.0,0.0,0.0,0.0,0.0,0.0,0.0,0.0,-5.965,-5.8503,0.0,0.0,0.0,0.0,0.0,0.0,0.0,0.0,0.0,-5.5857,-5.578,-5.5791,-5.5927,-5.6705,-5.7361,-5.7833,-5.8656,-5.9318,-5.9736,-5.9622,-5.9512,-5.9445,-5.9508,-6.0395,-6.1789,-6.0171,-6.0846,-6.2858,-6.0911,-6.0589,-6.1281,-6.1704,-6.1858,0.0,-6.2631,-6.3565,-6.4709,-6.5841,-6.6449,-6.6743,-6.6917,-6.7474,-6.8024,-6.8343,-6.7945,-6.7593,-6.844,-6.8201,-6.7687,-6.7687,-6.7687,-6.7573,-6.7136,-6.6976,-6.6642,-6.5743,-6.4746,-6.4103,-6.4518,-6.3957,-6.3868,-6.5204,-6.5573,-6.5888,-6.6508,-6.6609,-6.6677,-6.6779,-6.6812,-6.6812,-6.6812,-6.6812,-6.6812,-6.6812,-6.6812,-6.6812,-6.6812,-6.6812,-6.6812,-6.6812,-6.6812,-6.7117,-6.7692,-6.8639,-6.9417,-6.9992,-7.0906,-7.1312,-7.1312,-7.1312,-7.1312,-7.1312,-7.1312,0.0,-7.1312,-7.1312,-7.1312,-7.1312,-7.1312,-7.1312,-7.1312,-7.1312,-7.1312,-7.1413,0.0,0.0,0.0,0.0,0.0,0.0,0.0,-6.2043,-6.1918,-6.2258,-6.1282,-6.0119,-5.8993,-5.8001,-5.7404,0.0,0.0,0.0,0.0,0.0,0.0,-5.5665,-5.5703,-5.5895,-5.6368,-5.6806,-5.7513,-5.8461,0.0,-5.8703,-5.9223,-5.8749,-5.8565,-5.8535,-5.8579,-5.9365,-6.0561,-5.9515,-6.0104,-6.165,-6.0575,-6.0704,-6.1524,-6.1947,-6.2627,0.0,-6.3667,-6.4505,-6.549,-6.5577,-6.6823,-6.8457,-6.9026,-6.9295,-6.9515,-6.9673,-6.9039,-6.8377,-6.8788,-6.8311,-6.7687,-6.7687,-6.7687,-6.7516,-6.6823,-6.6503,-6.6073,-6.5022,-6.4244,-6.375,-6.384,-6.3704,-6.3795,-6.4427,-6.5172,-6.5748,-6.6023,-6.6419,-6.6746,-6.6821,-6.6812,-6.6812,-6.6812,-6.6812,-6.6812,-6.6812,-6.6812,-6.6812,-6.6812,-6.7184,-6.7387,-6.7387,-6.7793,-6.7963,-6.7895,-6.9079,-6.9857,-7.0195,-7.0973,-7.1312,-7.1312,-7.1312,-7.1312,-7.1312,-7.1312,-7.1312,-7.1312,-7.1312,-7.1312,-7.1312,-7.1312,-7.1312,-7.1312,-7.1312,-7.1548,-7.1921,0.0,0.0,0.0,0.0,0.0,0.0,0.0,-6.2874,-6.2745,-6.3643,-6.2998,-6.2075,-6.1182,-5.97,-5.8755,0.0,0.0,0.0,0.0,0.0,0.0,0.0,0.0,0.0,-5.6983,0.0,0.0,-5.9384,-5.8671,0.0,0.0,0.0,0.0,0.0,-5.8499,-5.9017,-5.9946,-5.9553,-6.0025,0.0,0.0,-6.132,-6.2139,0.0,0.0,0.0,0.0,-6.5355,-6.6068,-6.5551,-6.6825,-6.8812,-6.9812,-7.0198,-7.0364,-7.0565,-6.9827,-6.9007,-6.8926,-6.8311,-6.7687,-6.7687,-6.7687,-6.7458,-6.6514,-6.6095,-6.5534,-6.4171,-6.3764,-6.3474,-6.3103,-6.3349,-6.3657,-6.3662,-6.4494,-6.5194,-6.5447,-6.5975,-6.6491,-6.6753,-6.6812,-6.6812,-6.6812,-6.6812,-6.6812,-6.6812,-6.6948,-6.7049,-6.7049,-6.759,-6.7996,-6.8166,-6.8605,-6.8707,-6.8402,-6.9586,-7.0263,-7.0432,-7.1041,-7.1312,-7.1312,-7.1312,-7.1312,-7.1312,-7.1312,-7.1312,-7.1312,-7.1312,-7.1312,-7.1312,-7.1312,-7.1312,-7.1345,-7.1481,-7.1921,-7.2462,0.0,0.0,0.0,0.0,0.0,0.0,0.0,-6.2531,-6.2939,-6.4475,-6.3827,-6.3469,-6.4205,-6.1453,-5.9282,0.0,0.0,0.0,0.0,0.0,0.0,0.0,0.0,0.0,0.0,0.0,0.0,-5.8446,-5.8319,0.0,0.0,0.0,0.0,0.0,0.0,-5.8945,-5.9764,-5.8824,0.0,0.0,0.0,0.0,0.0,0.0,0.0,0.0,0.0,-6.5703,-6.5829,-6.6891,-6.7359,-6.7599,-6.8278,-6.9723,-7.1044,-7.072,-6.9999,-6.9304,-6.9007,-6.8311,-6.7687,-6.7687,-6.7687,-6.7458,-6.6514,-6.6277,-6.5829,-6.4252,-6.4125,-6.4224,-6.3995,-6.357,-6.3602,-6.4675,-6.4105,-6.4044,-6.5544,-6.5615,-6.5801,-6.6685,-6.6812,-6.6812,-6.6812,-6.6812,-6.6812,-6.6812,-6.7421,-6.7793,-6.7793,-6.7861,-6.8233,-6.8977,-6.8335,-6.8639,-6.9958,-7.0128,-7.0534,-7.121,-7.1278,-7.1312,-7.1312,-7.1312,-7.1312,-7.1312,-7.1312,-7.1312,0.0,-7.1312,-7.1312,-7.1312,-7.1312,-7.1312,-7.1379,-7.2056,-7.2326,-7.2597,0.0,0.0,0.0,0.0,0.0,0.0,-6.412,-6.4137,-6.4641,-6.6215,-6.5539,-6.4876,-6.4778,-6.3014,-6.1599,-6.0857,0.0,0.0,0.0,0.0,0.0,0.0,0.0,0.0,0.0,0.0,-5.9204,-6.0589,-6.0589,0.0,0.0,0.0,0.0,0.0,0.0,-6.0161,-6.0567,-6.0071,0.0,0.0,0.0,0.0,0.0,0.0,0.0,0.0,0.0,0.0,-6.5793,-6.5761,-6.636,-6.7009,-6.6755,-6.7853,-6.9244,-6.9407,-6.9422,-6.9355,-6.9007,-6.8311,-6.7687,-6.7687,-6.7687,-6.7458,-6.6514,-6.6299,-6.588,-6.4503,-6.4166,-6.4011,-6.3733,-6.3259,-6.3085,-6.3394,-6.3307,-6.3448,-6.4183,-6.445,-6.4962,-6.6023,-6.6136,-6.6305,-6.6779,-6.6812,-6.6981,-6.7421,-6.8605,-6.9282,-6.9282,-6.9282,-6.9214,-6.9113,-6.9654,-6.9823,-6.9553,-7.0432,-7.1007,-7.1312,-7.1312,-7.1312,-7.1312,-7.1312,-7.1312,-7.1312,-7.1312,-7.1312,0.0,-7.1312,-7.1312,-7.1312,-7.1312,-7.1582,-7.1988,-7.2293,-7.2969,-7.3815,0.0,0.0,0.0,0.0,0.0,-6.3748,-6.4824,-6.4903,-6.545,-6.7012,-6.6573,-6.5863,-6.5294,-6.4332,-6.3588,-6.3236,-6.1302,0.0,0.0,0.0,0.0,0.0,0.0,0.0,0.0,0.0,-6.0358,-6.2101,-6.2101,-6.2512,0.0,0.0,-6.2352,-6.2183,0.0,0.0,0.0,0.0,0.0,0.0,0.0,0.0,0.0,0.0,0.0,0.0,0.0,0.0,0.0,0.0,0.0,-6.6493,-6.58,-6.6519,-6.7709,-6.8269,-6.8693,-6.8878,-6.862,-6.8128,-6.7687,-6.7687,-6.761,-6.728,-6.6462,-6.6201,-6.579,-6.4647,-6.4307,-6.4025,-6.3497,-6.3265,-6.3002,-6.2578,-6.2694,-6.2951,-6.3276,-6.3519,-6.4025,-6.5044,-6.5419,-6.5848,-6.635,-6.6829,-6.7455,-6.8199,-6.9451,-7.0297,-7.05,-7.0534,-7.0195,-6.9451,-7.0229,-7.0263,-6.9417,-7.0669,-7.1312,-7.1312,-7.1312,-7.1312,-7.1312,-7.1312,-7.1312,-7.1312,-7.1312,-7.1312,0.0,-7.1312,-7.1312,-7.1312,-7.1312,-7.1751,-7.2428,-7.2631,-7.351,-7.4661,0.0,0.0,0.0,0.0,0.0,0.0,-6.3956,-6.4135,-6.4677,-6.6288,-6.6411,-6.6281,-6.6281,-6.5373,-6.4876,-6.5079,-6.2644,0.0,0.0,0.0,0.0,0.0,0.0,0.0,0.0,0.0,-6.0358,-6.2101,-6.2101,-6.2512,-6.3308,-6.3269,-6.2918,-6.2183,0.0,0.0,0.0,0.0,0.0,0.0,0.0,0.0,-6.5897,0.0,0.0,0.0,0.0,0.0,0.0,0.0,0.0,0.0,0.0,-6.6207,-6.7042,-6.763,-6.7809,-6.7778,-6.772,-6.7714,-6.7687,-6.7687,-6.7377,-6.69,-6.6418,-6.5945,-6.5401,-6.4574,-6.4671,-6.4577,-6.3587,-6.3676,-6.3639,-6.2929,-6.2521,-6.2558,-6.3285,-6.3049,-6.31,-6.3898,-6.4838,-6.5421,-6.5421,-6.6908,-6.8233,-6.9045,-6.9755,0.0,-7.1278,-7.1312,-7.0973,-7.0195,-6.9485,-6.9451,-7.0161,-7.0939,-7.1312,-7.1312,-7.1312,-7.1312,-7.1312,-7.1312,-7.1312,-7.1312,-7.1312,-7.1312,0.0,-7.1312,-7.1312,-7.1312,-7.1312,-7.1751,-7.2496,-7.3206,-7.395,-7.4728,0.0,0.0,0.0,0.0,0.0,0.0,0.0,-6.4613,-6.5379,-6.649,-6.654,-6.6419,-6.6383,-6.5437,-6.488,-6.5088,-6.3186,0.0,0.0,0.0,0.0,0.0,0.0,0.0,0.0,-6.0666,-6.182,-6.2935,-6.3512,-6.4243,-6.5051,-6.4474,-6.4063,-6.3792,-6.3178,-6.2767,0.0,0.0,0.0,0.0,0.0,-6.5628,-6.5897,0.0,0.0,0.0,0.0,0.0,0.0,0.0,0.0,0.0,0.0,0.0,0.0,-6.7389,-6.7506,-6.7248,-6.6941,-6.6816,-6.6736,-6.6736,-6.6607,-6.6418,-6.5945,-6.5697,-6.5423,-6.4859,-6.4652,-6.4444,-6.4145,-6.3963,-6.41,-6.4744,-6.4567,-6.4357,-6.4285,-6.4447,-6.4421,-6.4041,-6.5324,-6.6428,-6.7044,-6.8091,-6.9011,-6.9789,-7.0534,-7.1075,-7.1312,-7.0838,-7.0432,-7.0195,-7.0466,-7.0466,-7.0195,-7.0939,-7.1312,-7.1312,-7.1312,-7.1312,-7.1312,-7.1312,-7.1312,-7.1312,-7.1312,-7.1312,-7.1312,-7.1312,-7.1312,-7.1379,-7.1853,-7.2496,-7.324,-7.3984,-7.4728,-7.5405,0.0,0.0,0.0,0.0,0.0,0.0,0.0,-6.4121,-6.4908,-6.6134,-6.6184,-6.6209,-6.648,-6.5863,-6.545,-6.5613,-6.4286,0.0,0.0,0.0,0.0,0.0,0.0,0.0,-5.9511,-6.0896,-6.2166,-6.3308,-6.3858,-6.4705,-6.5897,-6.532,-6.4936,-6.4589,-6.4051,-6.3628,0.0,0.0,0.0,0.0,-6.6013,-6.6167,-6.5897,0.0,0.0,0.0,0.0,0.0,0.0,0.0,0.0,0.0,0.0,0.0,0.0,0.0,-6.694,-6.648,-6.6469,-6.64,-6.6299,-6.6299,-6.6185,-6.5961,-6.568,-6.5443,-6.5257,-6.4967,-6.4745,-6.4501,-6.4267,-6.4025,-6.4062,-6.4572,-6.4443,-6.4215,-6.4128,-6.4294,-6.4529,-6.4805,-6.5786,-6.6964,-6.8217,-6.9045,-6.9688,-7.0161,-7.0872,-7.1312,-7.1312,-7.0872,-7.0601,-7.0601,-7.0804,-7.0669,-7.0195,-7.0939,-7.1312,-7.1312,-7.1312,-7.1312,-7.1312,-7.1312,-7.1312,-7.1312,-7.1312,-7.1312,0.0,-7.1312,-7.1481,-7.1751,-7.2225,-7.3003,-7.395,-7.4424,-7.5067,-7.5709,0.0,0.0,0.0,0.0,0.0,0.0,0.0,-6.2904,-6.3539,-6.535,-6.5539,-6.5829,-6.6599,-6.653,-6.6457,-6.6485,0.0,0.0,0.0,0.0,0.0,0.0,0.0,0.0,-5.9577,-6.05,-6.1731,-6.3295,-6.3423,-6.432,-6.5897,-6.5897,-6.5474,-6.4705,-6.4705,-6.4243,0.0,0.0,0.0,-6.5974,-6.6705,-6.6551,0.0,0.0,0.0,0.0,0.0,0.0,0.0,0.0,0.0,0.0,0.0,0.0,0.0,0.0,0.0,0.0,0.0,-6.6277,-6.6201,-6.6201,-6.5874,-6.5534,-6.5534,-6.52,0.0,-6.4888,-6.4888,-6.4708,-6.4046,-6.392,-6.372,-6.3101,-6.2897,-6.2933,-6.3241,-6.3119,-6.3831,-6.6049,-6.6361,-6.7148,-6.9006,-6.9789,-7.0195,-7.0263,-7.0906,-7.1312,-7.1312,-7.1312,-7.1312,-7.1312,-7.0635,-7.0263,-7.0263,-7.0973,-7.1312,-7.1312,-7.1312,-7.1312,-7.1312,-7.1312,-7.1312,0.0,-7.1312,-7.1312,-7.1312,-7.1379,-7.1785,-7.2428,-7.2529,-7.3409,-7.4627,-7.4661,-7.51,-7.5709,0.0,0.0,0.0,0.0,0.0,0.0,0.0,0.0,0.0,0.0,-6.5534,-6.5893,-6.669,-6.6649,-6.6546,0.0,0.0,0.0,0.0,0.0,0.0,0.0,0.0,0.0,-6.0328,-6.1787,-6.2746,-6.313,-6.4578,-6.5513,-6.5897,-6.5897,-6.5782,-6.559,-6.559,-6.5474,0.0,0.0,-6.5897,-6.5897,-6.609,-6.6051,0.0,0.0,0.0,0.0,-6.5897,-6.5897,0.0,0.0,0.0,0.0,0.0,0.0,0.0,0.0,-6.6183,-6.539,-6.5424,0.0,-6.5238,-6.5238,-6.5142,-6.5046,0.0,-6.4987,-6.4888,-6.4888,-6.4888,-6.4781,-6.4366,-6.4287,-6.4475,-6.5025,-6.5048,-6.4983,-6.504,-6.4678,-6.5162,-6.7109,-6.7374,-6.8049,-6.9775,-7.0094,-7.0432,-7.1007,-7.121,-7.1312,-7.1312,-7.1312,-7.1312,-7.1312,-7.1142,-7.1041,-7.1041,-7.121,-7.1312,-7.1312,-7.1312,-7.1312,-7.1312,-7.1312,-7.1312,-7.1312,-7.1312,-7.1312,-7.1345,-7.1921,-7.2225,-7.2529,-7.3646,-7.4289,-7.4695,-7.5236,-7.554,-7.5709,0.0,0.0,0.0,0.0,0.0,0.0,0.0,0.0,0.0,0.0,0.0,0.0,0.0,0.0,0.0,0.0,0.0,0.0,0.0,0.0,0.0,0.0,0.0,-6.008,-6.0009,-6.1658,-6.2707,-6.309,-6.4565,-6.5513,-6.5897,-6.5897,-6.5897,-6.5897,-6.5897,-6.5897,-6.5897,-6.6282,-6.6244,-6.5936,-6.6282,0.0,0.0,0.0,0.0,0.0,-6.5897,-6.5897,0.0,-6.632,-6.6205,-6.609,0.0,0.0,0.0,0.0,-6.6139,-6.5329,-6.5073,-6.5224,-6.5381,-6.5002,-6.5192,-6.5343,-6.5002,-6.4888,-6.4888,-6.4888,-6.4888,-6.4689,-6.407,-6.4246,-6.4398,-6.4081,-6.4565,-6.5202,-6.585,-6.5923,-6.6528,-6.8017,-6.8507,-6.9081,0.0,-7.05,-7.0872,-7.1278,-7.1312,-7.1312,-7.1312,-7.1312,-7.1312,-7.1312,-7.1312,-7.1312,-7.1312,-7.1312,-7.1312,-7.1312,-7.1312,-7.1312,-7.1312,-7.1312,-7.1312,-7.1312,-7.1312,-7.1515,-7.1853,-7.2225,-7.28,-7.351,-7.4289,-7.483,-7.5168,-7.554,-7.5709,-7.5709,0.0,0.0,0.0,0.0,0.0,0.0,0.0,0.0,0.0,0.0,0.0,0.0,0.0,0.0,0.0,0.0,0.0,0.0,0.0,0.0,0.0,0.0,-5.9964,-5.9661,-5.9664,-6.1185,-6.2425,-6.3242,-6.4283,-6.5166,-6.5897,-6.5897,-6.5897,-6.5897,-6.5897,-6.5897,-6.5936,-6.6628,-6.6513,-6.5974,-6.6628,0.0,0.0,0.0,0.0,0.0,0.0,0.0,0.0,-6.6667,-6.6436,-6.6167,-6.759,0.0,0.0,0.0,0.0,0.0,-6.5145,-6.5684,-6.6063,-6.5154,-6.5419,-6.576,-6.5078,-6.4888,-6.4888,-6.4888,-6.4853,-6.4558,-6.372,-6.409,-6.4045,-6.2631,-6.3535,-6.4838,-6.6014,-6.6729,-6.7494,-6.8507,-6.9343,0.0,-7.0138,-7.0872,-7.1312,-7.1312,-7.1312,-7.1312,-7.1312,-7.1312,-7.1312,-7.1312,-7.1312,-7.1312,-7.1312,-7.1312,-7.1312,-7.1312,-7.1312,-7.1312,-7.1312,-7.1312,-7.1379,-7.1481,0.0,0.0,-7.2563,-7.2699,-7.3477,-7.4627,-7.4728,-7.5168,-7.5709,-7.5709,-7.5709,-7.5709,0.0,0.0,0.0,0.0,0.0,0.0,0.0,0.0,0.0,0.0,0.0,0.0,0.0,0.0,0.0,0.0,0.0,0.0,0.0,0.0,0.0,-6.3268,-6.1527,-6.0784,-6.1253,-6.2333,-6.3253,-6.3967,-6.5127,-6.5782,-6.5897,-6.5897,-6.5897,-6.5897,-6.5897,-6.5897,-6.5897,-6.6013,-6.6013,-6.5897,-6.6013,0.0,0.0,0.0,0.0,0.0,0.0,0.0,0.0,-6.6051,-6.6013,-6.5936,-6.6205,0.0,0.0,0.0,0.0,0.0,-6.5828,-6.6556,-6.6821,-6.5305,-6.5002,-6.504,-6.4926,-6.4888,-6.4888,-6.4888,-6.469,-6.4475,-6.4398,-6.4288,-6.4207,-6.419,-6.4888,-6.5507,-6.5784,-6.6302,-6.7039,-6.7904,-6.8735,-6.9471,-7.0172,-7.0872,-7.1312,-7.1312,-7.1312,-7.1312,-7.1312,-7.1312,-7.1312,-7.1312,-7.1312,-7.1312,-7.1312,-7.1312,-7.1312,-7.1312,-7.1312,-7.1312,-7.1312,-7.1312,-7.165,-7.2225,0.0,-7.2665,-7.3375,-7.4018,-7.4424,-7.4661,-7.5303,-7.5608,-7.5709,-7.5709,-7.5709,-7.5709,0.0,0.0,0.0,0.0,0.0,0.0,0.0,0.0,0.0,0.0,0.0,0.0,0.0,0.0,0.0,0.0,0.0,0.0,0.0,0.0,-6.5251,-6.4537,-6.3168,-6.2414,-6.2421,-6.3332,-6.4175,-6.4896,-6.5999,-6.6782,-6.7244,-6.6782,-6.632,-6.5897,-6.5897,-6.5897,-6.5897,-6.5897,-6.5897,-6.5897,0.0,0.0,0.0,0.0,0.0,0.0,0.0,0.0,0.0,0.0,-6.5897,-6.5897,-6.5897,0.0,0.0,0.0,0.0,0.0,-6.5448,-6.576,-6.6027,-6.5955,-6.6295,-6.6445,-6.5815,-6.5662,-6.555,-6.5098,-6.4902,-6.4625,-6.4204,-6.4401,-6.4809,-6.5428,-6.5408,-6.5667,-6.6655,-6.701,-6.7379,-6.7845,0.0,-6.9654,-6.962,-7.0635,-7.1312,-7.1312,-7.1312,-7.1312,-7.1312,-7.1312,-7.1312,-7.1312,-7.1312,-7.1312,-7.1312,-7.1312,-7.1312,-7.1312,-7.1312,-7.1515,-7.1887,-7.1887,-7.2293,-7.2969,0.0,-7.3409,-7.4119,-7.4458,-7.483,-7.5236,-7.5574,-7.5709,-7.5709,-7.5709,-7.5709,-7.5709,0.0,0.0,0.0,0.0,0.0,0.0,0.0,0.0,0.0,0.0,0.0,0.0,0.0,0.0,0.0,0.0,0.0,0.0,0.0,-6.6247,-6.5762,-6.5456,-6.4765,-6.4106,-6.3411,-6.4281,-6.5126,-6.589,-6.6909,-6.7628,-6.809,-6.7398,-6.6667,-6.5897,-6.5897,-6.5897,-6.5897,-6.5897,-6.5897,-6.5897,0.0,0.0,0.0,0.0,0.0,0.0,0.0,0.0,0.0,0.0,0.0,0.0,0.0,0.0,0.0,-6.5503,-6.5413,-6.5375,-6.5221,-6.5192,-6.548,-6.6661,-6.7221,-6.7347,-6.6671,-6.6407,-6.6063,-6.5416,-6.517,-6.4918,-6.431,-6.4816,-6.5501,-6.5963,-6.5729,-6.5972,-6.7324,-6.7482,-6.7591,-6.787,-6.9113,-6.9789,-6.9383,-7.0534,-7.1312,-7.1312,-7.1312,-7.1312,-7.1312,-7.1312,-7.1312,-7.1312,-7.1312,-7.1312,-7.1312,-7.1312,-7.1312,-7.1312,-7.1312,-7.1684,-7.2394,-7.2394,-7.2902,-7.3747,-7.3747,-7.4187,-7.4864,-7.4864,-7.5202,-7.5709,-7.5709,-7.5709,-7.5709,-7.5709,-7.5709,-7.5709,0.0,0.0,0.0,0.0,0.0,0.0,0.0,0.0,0.0,0.0,0.0,0.0,0.0,0.0,0.0,0.0,0.0,0.0,0.0,-6.6793,-6.6664,-6.64,-6.6262,-6.5618,-6.4331,-6.5282,-6.6127,-6.6797,-6.7831,-6.7936,-6.7167,-6.7128,-6.6667,-6.5897,-6.5897,-6.5897,-6.5897,-6.5897,-6.5897,-6.5897,-6.5897,0.0,0.0,0.0,0.0,0.0,0.0,0.0,0.0,0.0,0.0,0.0,0.0,0.0,-6.5846,-6.5503,-6.5413,-6.5489,-6.5904,-6.6025,-6.6257,-6.7192,-6.6603,-6.602,-6.701,-6.6644,-6.6066,-6.5866,-6.5453,-6.5214,-6.558,-6.5958,-6.5995,-6.5291,-6.6034,-6.6693,-6.6862,0.0,-6.7125,-6.7827,-6.8673,-6.9417,-7.006,-7.0838,-7.1312,-7.1312,-7.1312,-7.1312,-7.1312,-7.1312,-7.1312,-7.1312,-7.1312,-7.1312,-7.1312,-7.1312,-7.1312,-7.1312,-7.1312,-7.1684,-7.2394,-7.2394,-7.3172,-7.4525,-7.4525,-7.4931,-7.5608,-7.5608,-7.5642,-7.5709,-7.5709,-7.5709,-7.5709,-7.5709,-7.5709,-7.5709,0.0,0.0,0.0,0.0,0.0,0.0,0.0,0.0,0.0,0.0,0.0,0.0,0.0,0.0,0.0,0.0,0.0,0.0,0.0,-6.6874,-6.6788,-6.6588,-6.6483,-6.615,-6.5479,-6.6254,-6.7295,-6.8625,-6.9025,-6.8744,-6.7898,-6.7359,-6.6667,-6.5897,-6.5897,-6.5897,-6.5897,-6.5897,-6.6205,-6.659,-6.609,-6.6205,0.0,0.0,0.0,0.0,0.0,0.0,0.0,0.0,-6.5897,-6.5897,-6.5897,-6.5897,-6.5846,-6.5503,-6.5413,-6.5375,-6.5373,-6.5722,-6.6333,-6.7261,-6.712,-6.6895,-6.7331,-6.7208,-6.6763,-6.6086,-6.5782,-6.5504,-6.5035,-6.5654,-6.6083,-6.5393,-6.6125,-6.6812,-6.6812,-6.7218,-6.759,-6.7861,-6.9011,-6.9891,-7.0161,0.0,0.0,0.0,-7.1312,-7.1312,-7.1312,-7.1312,-7.1312,-7.1312,-7.1312,-7.1312,-7.1312,-7.1312,-7.1312,-7.1312,-7.1751,-7.236,-7.3105,-7.3578,-7.4322,-7.527,-7.527,-7.5439,-7.5709,-7.5709,-7.5709,-7.5709,-7.5709,-7.5709,-7.5709,-7.5709,-7.5709,-7.5709,0.0,0.0,0.0,0.0,0.0,0.0,0.0,0.0,0.0,0.0,0.0,0.0,0.0,0.0,0.0,0.0,0.0,0.0,-6.6873,-6.6874,-6.6832,-6.6673,-6.6564,-6.6549,-6.6597,-6.7029,-6.791,-6.9283,-6.9821,-6.9333,-6.7908,-6.7641,-6.7064,-6.6217,-6.6,-6.6051,-6.6244,-6.6013,-6.6205,-6.6705,-6.6397,-6.6436,0.0,0.0,0.0,0.0,0.0,0.0,0.0,0.0,-6.5897,-6.5897,-6.5897,-6.5897,-6.5859,-6.5561,-6.5597,-6.5734,-6.5441,-6.572,-6.6352,-6.7412,-6.7584,-6.7577,-6.7949,-6.7945,-6.7716,-6.7262,-6.6705,-6.5934,-6.4813,-6.5395,-6.5925,-6.5465,-6.6167,-6.6812,-6.6812,-6.7455,-6.7996,0.0,0.0,0.0,0.0,0.0,0.0,0.0,0.0,0.0,0.0,-7.1312,-7.1312,-7.1312,-7.1312,-7.1312,-7.1312,-7.1312,-7.1447,-7.1684,-7.2394,-7.3003,-7.351,-7.4255,-7.4999,-7.5709,-7.5709,-7.5709,-7.5709,-7.5709,-7.5709,-7.5709,-7.5709,-7.5709,-7.5709,-7.5709,-7.5709,-7.5709,0.0,0.0,0.0,0.0,0.0,0.0,0.0,0.0,0.0,0.0,0.0,0.0,0.0,0.0,0.0,0.0,0.0,0.0,-6.6815,-6.6872,-6.6873,-6.6815,-6.6619,-6.6863,-6.7649,-6.7551,-6.7807,-6.8398,-7.0052,-6.9522,-6.6912,-6.7895,-6.7856,-6.6835,-6.6179,-6.6359,-6.7051,-6.6244,-6.5897,-6.5974,-6.6782,-6.6628,-6.6013,0.0,0.0,0.0,0.0,0.0,0.0,0.0,-6.5897,-6.5897,-6.5897,-6.5897,-6.5872,-6.5635,-6.6054,-6.6551,-6.6429,-6.6243,-6.6445,-6.7741,-6.7819,-6.7848,-6.8978,-6.8984,-6.8898,-6.9564,-6.8223,-6.653,-6.5329,-6.5328,-6.5495,-6.5421,-6.6167,-6.6812,-6.6812,-6.7455,0.0,0.0,0.0,0.0,0.0,0.0,0.0,0.0,0.0,0.0,0.0,-7.1312,-7.1312,-7.1312,-7.1312,-7.1312,-7.1312,-7.1312,-7.1684,-7.2428,-7.3138,-7.351,-7.351,-7.4289,-7.4999,-7.5709,-7.5709,-7.5709,-7.5709,-7.5709,-7.5709,-7.5709,-7.5709,-7.5709,-7.5709,-7.5709,-7.5709,-7.5709,0.0,0.0,0.0,0.0,0.0,0.0,0.0,0.0,0.0,0.0,0.0,0.0,0.0,0.0,0.0,0.0,0.0,0.0,-6.6815,-6.6872,-6.6873,-6.6815,-6.6688,-6.6673,-6.6761,-6.7174,-6.7761,-6.8538,-6.8844,-6.8272,-6.6912,-6.7069,-6.6725,-6.5991,-6.6417,-6.646,-6.6244,-6.6013,-6.6244,-6.6744,-6.7013,-6.6974,-6.6782,0.0,0.0,0.0,0.0,0.0,0.0,0.0,0.0,0.0,-6.5897,-6.6204,-6.6441,-6.5685,-6.594,-6.6314,-6.5559,-6.6352,-6.7495,-6.7648,-6.8684,-6.9839,-7.0522,-7.0108,-6.9382,-6.8774,-6.8138,-6.7191,-6.5604,-6.5813,-6.6112,-6.549,-6.6167,-6.6981,-6.7489,0.0,0.0,0.0,0.0,0.0,0.0,0.0,0.0,0.0,0.0,0.0,0.0,-7.1312,-7.1312,-7.1312,-7.1312,-7.1548,-7.209,-7.209,-7.2428,-7.3172,-7.3916,-7.4289,-7.4289,-7.5033,-7.5506,-7.5709,-7.5709,-7.5709,-7.5709,-7.5709,-7.5709,-7.5709,-7.5709,-7.5709,-7.5709,-7.5709,-7.5709,-7.5709,0.0,0.0,0.0,0.0,0.0,0.0,0.0,0.0,0.0,0.0,-6.5897,-6.5897,0.0,0.0,0.0,-6.6242,-6.6556,-6.6753,-6.6753,-6.6869,-6.6873,-6.6815,-6.6736,-6.6595,-6.6384,-6.7348,-6.7757,-6.7583,-6.7985,-6.7535,-6.6327,-6.6873,-6.672,-6.6059,-6.6945,-6.6981,-6.6359,-6.6359,-6.6474,-6.6667,-6.7359,-6.7205,-6.6705,0.0,0.0,0.0,0.0,0.0,0.0,0.0,0.0,0.0,-6.5897,-6.6179,-6.6507,-6.6466,-6.706,-6.7724,-6.7732,-6.8457,-6.9297,-6.9407,-7.0041,-7.0808,-7.1589,-7.1347,-7.0645,-6.9566,-6.8751,-6.7864,-6.6712,-6.6376,-6.6199,-6.5989,-6.6411,-6.7083,0.0,0.0,0.0,0.0,0.0,0.0,0.0,0.0,0.0,0.0,0.0,0.0,0.0,-7.1312,-7.1312,-7.1312,-7.1582,-7.1954,-7.2394,-7.2699,-7.3206,-7.395,-7.439,-7.4762,-7.5067,-7.5506,-7.5709,-7.5709,-7.5709,-7.5709,-7.5709,-7.5709,-7.5709,-7.5709,-7.5709,-7.5709,-7.5709,-7.5709,-7.5709,-7.5709,0.0,0.0,0.0,0.0,0.0,0.0,0.0,0.0,0.0,-6.5897,-6.5897,-6.5897,0.0,0.0,0.0,-6.6185,-6.6497,-6.6693,-6.6705,-6.6821,-6.6872,-6.6772,-6.6801,-6.6674,-6.6441,-6.7871,-6.7746,-6.6001,-6.7395,-6.7131,-6.5413,-6.6987,-6.7293,-6.6522,-6.7514,-6.7582,-6.6962,-6.6974,-6.6551,-6.6051,-6.7628,-6.7321,-6.6051,-6.7667,0.0,0.0,0.0,0.0,0.0,0.0,0.0,0.0,-6.5897,-6.5936,-6.623,-6.7501,-6.8722,-6.9986,-7.1285,-7.1531,-7.1527,-7.2186,-7.1626,-7.1209,-7.2435,-7.2716,-7.2409,-7.1323,-6.9895,-6.8682,-6.8281,-6.6953,-6.6125,-6.6711,0.0,0.0,0.0,0.0,0.0,0.0,0.0,0.0,0.0,0.0,0.0,0.0,0.0,0.0,0.0,-7.1312,-7.1312,-7.1312,-7.2022,-7.2428,-7.2496,-7.3206,-7.395,-7.4695,-7.4695,-7.5067,-7.5709,-7.5709,-7.5709,-7.5709,-7.5709,-7.5709,-7.5709,-7.5709,-7.5709,-7.5709,-7.5709,-7.5709,-7.5709,-7.5709,-7.5709,-7.5709,0.0,0.0,0.0,0.0,0.0,0.0,0.0,0.0,-6.5897,-6.5897,-6.5897,-6.5897,-6.5897,-6.5993,0.0,-6.6175,-6.6377,-6.6519,-6.6701,-6.6763,-6.677,-6.6727,-6.7264,-6.7525,-6.7495,-6.7639,-6.7139,-6.5936,-6.6595,-6.6415,-6.5413,-6.6172,-6.6121,-6.5454,-6.6452,-6.6542,-6.5931,-6.609,-6.6051,-6.5974,-6.6974,-6.6782,-6.6013,-6.7013,-6.6744,0.0,0.0,0.0,0.0,0.0,0.0,0.0,-6.5897,-6.6243,-6.6595,-6.626,-6.7724,-6.947,-6.9091,-7.0779,-7.251,-7.2028,-7.2475,-7.3272,-7.4184,-7.4404,-7.3763,-7.154,-7.0822,-7.0082,-6.8499,-6.7891,-6.7496,0.0,0.0,0.0,0.0,0.0,0.0,0.0,0.0,0.0,0.0,0.0,0.0,0.0,0.0,0.0,-7.1312,-7.1312,-7.1312,-7.1312,-7.2022,-7.2665,-7.324,-7.3984,-7.4728,-7.5473,-7.5473,-7.554,-7.5709,-7.5709,-7.5709,-7.5709,-7.5709,-7.5709,-7.5709,-7.5709,-7.5709,-7.5709,-7.5709,-7.5709,-7.5709,-7.5709,-7.5709,-7.5709,0.0,0.0,0.0,0.0,0.0,0.0,0.0,0.0,-6.632,-6.5936,-6.5897,-6.5743,-6.532,-6.5365,0.0,0.0,-6.5691,-6.6043,-6.659,-6.6748,-6.6759,-6.6709,-6.7405,-6.7581,-6.7074,-6.7358,-6.6962,-6.5854,-6.5963,-6.5765,-6.5252,-6.5845,-6.5752,-6.5177,-6.6596,-6.6613,-6.5646,-6.623,-6.6244,-6.5974,-6.6782,-6.6628,-6.5974,-6.6782,-6.659,-6.5897,-6.5897,0.0,0.0,0.0,0.0,0.0,0.0,0.0,-6.6444,-6.6648,-6.7833,-6.9342,-7.0498,-7.1936,-7.3188,-7.3268,-7.3779,-7.4368,-7.4808,-7.4918,-7.4542,-7.3166,-7.2251,-7.1231,-6.9849,-6.88,0.0,0.0,0.0,0.0,0.0,0.0,0.0,0.0,0.0,0.0,0.0,0.0,0.0,0.0,0.0,-7.1312,-7.1312,-7.1312,-7.1481,-7.1819,-7.2529,-7.3274,-7.4018,-7.4762,-7.5337,-7.5709,-7.5709,-7.5709,-7.5709,-7.5709,-7.5709,-7.5709,-7.5709,-7.5709,-7.5709,-7.5709,-7.5709,-7.5709,-7.5709,-7.5709,-7.5709,-7.5709,-7.5709,-7.5709,0.0,0.0,0.0,0.0,0.0,0.0,0.0,0.0,0.0,-6.5974,-6.5897,-6.5551,-6.4705,-6.4686,-6.4729,0.0,0.0,0.0,-6.6201,-6.6549,-6.6769,-6.6876,-6.747,-6.7409,-6.6566,-6.7184,-6.693,-6.5782,-6.5537,-6.5283,-6.5073,-6.5641,-6.5621,-6.5128,-6.6749,-6.6674,-6.5374,-6.6294,-6.6282,-6.5743,-6.6397,-6.6359,-6.5974,-6.6602,-6.6449,-6.5859,-6.5859,-6.5859,-6.5859,-6.5859,0.0,0.0,0.0,0.0,-6.6089,-6.7231,-6.8101,-6.9337,-7.2215,-7.3243,-7.384,-7.5166,-7.5301,-7.5139,-7.5285,-7.5292,-7.5285,-7.5139,-7.3744,-7.23,-7.1452,0.0,0.0,0.0,0.0,0.0,0.0,0.0,0.0,0.0,0.0,0.0,0.0,0.0,0.0,0.0,0.0,-7.1312,-7.1312,-7.1312,-7.165,-7.2394,-7.3105,-7.3849,-7.4593,-7.5337,-7.5709,-7.5709,-7.5709,-7.5709,-7.5709,-7.5709,-7.5709,-7.5709,-7.5709,-7.5709,-7.5709,-7.5709,-7.5709,-7.5709,-7.5709,-7.5709,-7.5709,-7.5709,-7.5709,-7.5709,0.0,0.0,0.0,0.0,0.0,0.0,0.0,0.0,0.0,0.0,-6.5897,-6.5551,-6.4705,-6.4602,-6.4354,-6.3737,-6.4409,-6.4938,-6.5204,0.0,0.0,-6.7541,-6.7712,-6.7752,-6.7581,-6.7532,-6.6891,-6.5705,-6.5499,-6.5258,-6.4924,-6.5002,-6.502,-6.4941,-6.5503,-6.5199,-6.435,-6.4743,-6.4859,-6.4782,-6.4897,-6.532,-6.5885,-6.583,-6.5751,-6.5635,-6.5635,-6.5635,-6.5635,-6.5635,-6.5635,0.0,0.0,0.0,-6.5726,-6.605,-6.7355,-6.8984,-7.0153,-7.2379,-7.4889,-7.7243,-7.6889,-7.613,-7.6796,-7.698,-7.676,-7.6093,-7.4645,-7.324,0.0,0.0,0.0,0.0,0.0,0.0,0.0,0.0,0.0,0.0,0.0,0.0,0.0,0.0,0.0,0.0,-7.1312,-7.1312,-7.1312,-7.1312,-7.165,-7.2394,-7.3105,-7.3849,-7.4593,-7.5337,-7.5709,-7.5709,-7.5709,-7.5709,-7.5709,-7.5709,-7.5709,-7.5709,-7.5709,-7.5709,-7.5709,-7.5709,-7.5709,-7.5709,-7.5709,-7.5709,-7.5709,-7.5709,-7.5709,-7.5709,0.0,0.0,0.0,0.0,0.0,0.0,0.0,0.0,0.0,0.0,0.0,-6.5397,-6.4012,-6.3858,-6.3575,-6.2787,-6.3549,-6.452,-6.5661,-6.6089,-6.6516,-6.6956,-6.6951,-6.7005,-6.7052,-6.6889,-6.6485,-6.5816,-6.5126,-6.4848,-6.5006,-6.4448,-6.4434,-6.4888,-6.4934,-6.4612,-6.3993,-6.4231,-6.4315,-6.4315,-6.4315,-6.5388,-6.6907,-6.5877,-6.6077,-6.6766,-6.5824,-6.5479,-6.5479,-6.5479,-6.5479,-6.5479,-6.5479,0.0,0.0,0.0,-6.626,-6.763,-7.0594,-7.3242,-7.5697,-7.7761,-7.753,-7.69,-7.72,-7.7273,-7.72,-7.6864,-7.5836,0.0,0.0,0.0,0.0,0.0,0.0,0.0,0.0,0.0,0.0,0.0,0.0,0.0,0.0,0.0,0.0,0.0,-7.1312,-7.1312,-7.1312,-7.1312,-7.1853,-7.2969,-7.3308,-7.4052,-7.5202,-7.554,-7.5709,-7.5709,-7.5709,-7.5709,-7.5709,-7.5709,-7.5709,-7.5709,-7.5709,-7.5709,-7.5709,-7.5709,-7.5709,-7.5709,-7.5709,-7.5709,-7.5709,-7.5709,-7.5709,-7.5709,0.0,0.0,0.0,0.0,0.0,0.0,0.0,0.0,0.0,0.0,0.0,-6.5243,-6.3512,0.0,0.0,0.0,-6.2606,-6.3907,-6.5761,-6.5914,-6.6054,-6.633,-6.6303,-6.6342,-6.6508,-6.6389,-6.6167,-6.5909,-6.5039,-6.4776,-6.5085,-6.4224,-6.4211,-6.4888,-6.4795,-6.4406,-6.3883,-6.3825,-6.3809,-6.3847,-6.4267,-6.5681,-6.7499,-6.6841,-6.7359,-6.8237,-6.6558,-6.5947,-6.5887,-6.5467,-6.5314,-6.5314,-6.5314,-6.5314,0.0,0.0,0.0,-6.6778,-7.067,-7.2972,-7.4771,-7.6905,-7.6986,-7.667,-7.7082,-7.7218,-7.7273,0.0,0.0,0.0,0.0,0.0,0.0,0.0,0.0,0.0,0.0,0.0,0.0,0.0,0.0,0.0,0.0,0.0,0.0,0.0,-7.1312,-7.1312,-7.1312,-7.1312,-7.1988,-7.3443,-7.3477,-7.4187,-7.5676,-7.5709,-7.5709,-7.5709,-7.5709,-7.5709,-7.5709,-7.5709,-7.5709,-7.5709,-7.5709,-7.5709,-7.5709,-7.5709,-7.5709,-7.5709,-7.5709,-7.5709,-7.5709,-7.5709,-7.5709,-7.5709,0.0,0.0,0.0,0.0,0.0,0.0,0.0,0.0,0.0,0.0,0.0,-6.5243,-6.3512,-6.3308,-6.2627,-6.1012,-6.1678,-6.2882,-6.4588,-6.4822,-6.529,-6.6167,-6.6253,0.0,-6.6508,-6.6389,-6.6167,-6.5909,-6.5602,-6.5297,-6.5085,-6.4576,-6.4539,-6.4888,-6.504,-6.465,-6.3867,-6.3238,-6.2968,-6.3121,-6.4672,-6.5857,-6.6911,-6.9019,-6.9901,-6.9749,-6.8092,-6.7483,-6.7254,-6.5634,-6.5101,-6.5101,-6.5101,-6.5101,-6.5134,0.0,0.0,0.0,-6.9059,-6.9906,-7.1064,-7.4216,-7.4821,-7.4991,-7.6393,-7.7017,-7.7273,-7.7273,0.0,0.0,0.0,0.0,0.0,0.0,0.0,0.0,0.0,0.0,0.0,0.0,0.0,0.0,0.0,0.0,0.0,0.0,-7.1312,-7.1312,-7.1312,-7.1312,-7.1988,-7.3443,-7.3477,-7.4187,-7.5676,-7.5709,-7.5709,-7.5709,-7.5709,-7.5709,-7.5709,-7.5709,-7.5709,-7.5709,-7.5709,-7.5709,-7.5709,-7.5709,-7.5709,-7.5709,-7.5709,-7.5709,-7.5709,-7.5709,-7.5709,-7.5709,0.0,0.0,0.0,0.0,0.0,0.0,0.0,0.0,0.0,0.0,0.0,0.0,0.0,-6.3308,-6.2627,-6.0935,-6.205,-6.3358,-6.4512,-6.5177,-6.5685,-6.6069,-6.6185,-6.6292,-6.6389,-6.6414,-6.6027,-6.5283,-6.4513,-6.4321,-6.4632,-6.3688,-6.3858,-6.4985,-6.4191,-6.3795,-6.3609,-6.2287,-6.2091,-6.2721,-6.4394,-6.6218,-6.8008,-6.9133,-7.0244,-7.0921,-6.8997,-6.7779,-6.6975,-6.639,-6.5271,-6.4158,-6.4158,-6.3778,-6.3508,-6.4219,-6.5536,-6.7102,-6.8891,-6.9644,-7.0419,-7.2774,-7.3727,-7.4313,-7.5108,-7.6143,-7.6973,-7.7225,0.0,0.0,0.0,0.0,0.0,0.0,0.0,0.0,0.0,0.0,0.0,0.0,0.0,0.0,0.0,0.0,0.0,0.0,0.0,-7.1312,-7.1312,-7.1312,-7.1988,-7.3443,-7.3477,-7.4187,-7.5676,-7.5709,-7.5709,-7.5709,-7.5709,-7.5709,-7.5709,-7.5709,-7.5709,-7.5709,-7.5709,-7.5709,-7.5709,-7.5709,-7.5709,-7.5709,-7.5709,-7.5709,-7.5709,-7.5709,-7.5709,-7.5709,0.0,0.0,0.0,0.0,0.0,0.0,0.0,0.0,-6.5897,-6.5897,0.0,0.0,0.0,0.0,-6.3166,-6.1743,-6.2666,-6.3666,-6.4551,-6.5128,-6.5613,-6.5963,-6.608,-6.6195,-6.6299,-6.6126,-6.5657,-6.4909,-6.3879,-6.3584,-6.3959,-6.3077,-6.3413,-6.4692,-6.3203,-6.3098,-6.3923,-6.2538,-6.2122,-6.2597,-6.499,-6.6502,-6.7524,-6.9315,-7.0561,-7.1153,-6.9349,-6.8361,-6.7846,-6.7525,-6.6588,-6.5351,-6.4519,-6.3381,-6.2593,-6.3524,-6.4715,-6.6017,-6.7554,-6.8177,-6.8866,-7.0879,-7.175,-7.2627,-7.43,-7.5357,-7.6226,-7.7102,0.0,0.0,0.0,0.0,0.0,0.0,0.0,0.0,0.0,0.0,0.0,0.0,0.0,0.0,0.0,0.0,0.0,0.0,0.0,0.0,-7.1312,-7.1312,-7.1988,-7.3443,-7.395,-7.4695,-7.5676,-7.5709,-7.5709,-7.5709,-7.5709,-7.5709,-7.5709,-7.5709,-7.5709,-7.5709,-7.5709,-7.5709,-7.5709,-7.5709,-7.5709,-7.5709,-7.5709,-7.5709,-7.5709,-7.5709,-7.5709,-7.5709,0.0,0.0,0.0,0.0,0.0,0.0,-6.5897,-6.5897,-6.5897,-6.5897,0.0,0.0,0.0,0.0,0.0,-6.3346,-6.332,-6.3705,-6.4551,-6.4628,-6.5023,-6.5951,-6.6001,-6.6074,-6.629,-6.5515,-6.5043,-6.487,-6.3868,-6.3291,-6.3077,-6.2849,-6.3236,-6.3985,-6.2231,-6.2705,-6.4775,-6.3865,-6.309,-6.2752,-6.6404,-6.6747,-6.548,-6.9694,-7.1058,-7.0551,-6.9372,-6.9421,-6.9883,-6.9052,-6.8968,-6.8746,-6.6151,-6.3973,-6.2521,-6.3317,-6.3719,-6.4057,0.0,0.0,0.0,-6.8441,-6.8831,-6.9793,-7.3974,-7.4674,-7.4937,-7.6831,0.0,0.0,0.0,0.0,0.0,0.0,0.0,0.0,0.0,0.0,0.0,0.0,0.0,0.0,0.0,0.0,0.0,0.0,-7.1312,-7.1312,-7.1312,-7.1345,-7.1988,-7.3443,-7.4897,-7.5676,-7.5709,-7.5709,-7.5709,-7.5709,-7.5709,-7.5709,-7.5709,-7.5709,-7.5709,-7.5709,-7.5709,-7.5709,-7.5709,-7.5709,-7.5709,-7.5709,-7.5709,-7.5709,-7.5709,-7.5709,-7.5709,-7.5743,0.0,0.0,0.0,0.0,0.0,-6.5897,-6.5897,-6.5897,-6.5897,0.0,0.0,0.0,-6.4705,-6.4051,-6.3551,-6.332,-6.3897,-6.4359,-6.4589,-6.5205,-6.5641,-6.5909,-6.5967,-6.6036,-6.6063,-6.5953,-6.5247,-6.3907,-6.3604,-6.308,-6.2386,-6.2157,-6.255,-6.334,-6.2701,-6.2727,-6.3123,-6.1565,-6.1699,-6.305,-6.4726,-6.6316,-6.7963,-7.0697,-7.2383,-7.319,-7.2583,-7.1537,-7.0511,-7.0831,-6.8836,-6.5689,-6.2859,-6.1727,-6.1629,-6.2501,-6.3179,-6.3892,-6.4824,0.0,0.0,0.0,0.0,0.0,0.0,0.0,-7.2819,0.0,0.0,0.0,0.0,0.0,0.0,0.0,0.0,0.0,0.0,0.0,0.0,0.0,0.0,0.0,0.0,0.0,0.0,0.0,-7.1312,-7.1312,-7.1312,-7.1819,-7.2529,-7.3443,-7.4424,-7.5168,-7.5676,-7.5709,-7.5709,-7.5709,-7.5709,-7.5709,-7.5709,-7.5709,-7.5709,-7.5709,-7.5709,-7.5709,-7.5709,-7.5709,-7.5709,-7.5709,-7.5709,-7.5709,-7.5709,-7.5709,-7.6082,-7.6487,0.0,0.0,-6.5897,-6.5897,-6.6167,-6.6282,-6.5936,-6.6167,-6.6282,0.0,0.0,0.0,-6.5205,-6.4705,-6.4512,-6.4859,-6.5051,-6.5282,-6.5628,-6.5782,-6.5897,-6.5897,-6.5933,-6.5955,-6.6001,-6.5732,-6.4883,-6.3516,-6.3119,-6.2486,-6.155,-6.1427,-6.1851,-6.2657,-6.2128,-6.2204,-6.2574,-6.0744,-6.0892,-6.2501,-6.5131,-6.6673,-6.7681,-7.0568,-7.2113,-7.2748,-7.2712,-7.1682,-7.0612,-7.2097,-6.9813,-6.5946,-6.3688,-6.2259,-6.1533,-6.2024,-6.278,-6.3628,-6.4727,-6.5019,-6.5194,-6.578,0.0,0.0,-6.9601,-7.0788,0.0,0.0,0.0,0.0,0.0,0.0,0.0,0.0,0.0,0.0,0.0,0.0,0.0,0.0,0.0,0.0,0.0,0.0,0.0,-7.1356,-7.1312,-7.1312,-7.1312,-7.1988,-7.2732,-7.3477,-7.4221,-7.4965,-7.5676,-7.5709,-7.5709,-7.5709,-7.5709,-7.5709,-7.5709,-7.5709,-7.5709,-7.5709,-7.5709,-7.5709,-7.5709,-7.5709,-7.5709,-7.5709,-7.5709,-7.5709,-7.5709,-7.5709,-7.598,-7.6386,0.0,0.0,-6.5923,-6.6038,-6.6641,-6.6859,-6.6128,-6.6628,-6.6821,0.0,-6.5897,-6.5897,-6.5897,-6.5897,-6.6205,-6.7013,-6.6436,-6.632,-6.7051,-6.6436,-6.5974,-6.5897,-6.5897,-6.5921,-6.5978,-6.5219,-6.4447,-6.361,-6.275,-6.1847,-6.0935,-6.0858,-6.1204,-6.1935,-6.1006,-6.1362,-6.2495,-6.0951,-6.0713,-6.1867,-6.6443,-6.7359,-6.6422,-7.0159,-7.1361,-7.1152,-7.1544,-7.1174,-7.0807,-7.2863,-7.1351,-6.8321,-6.6737,-6.4475,-6.2334,-6.2071,-6.2616,-6.3539,-6.4537,-6.4669,-6.4801,-6.5935,-6.5848,0.0,-7.0384,-7.1107,-7.1869,0.0,0.0,0.0,0.0,0.0,0.0,0.0,0.0,0.0,0.0,0.0,0.0,0.0,0.0,0.0,0.0,-7.2921,-7.2448,-7.1546,-7.1356,-7.1312,-7.1312,-7.1921,-7.2665,-7.3443,-7.4153,-7.4864,-7.5676,-7.5709,-7.5709,-7.5709,-7.5709,-7.5709,-7.5709,-7.5709,-7.5709,-7.5709,-7.5709,-7.5709,-7.5709,-7.5709,-7.5709,-7.5709,-7.5709,-7.5709,-7.5709,-7.5709,-7.5743,-7.5912,-6.6299,-6.6047,-6.6198,-6.6892,-6.7089,-6.7051,-6.6898,-6.7013,-6.6821,-6.6013,-6.5897,-6.5897,-6.5897,-6.5897,-6.6205,-6.7013,-6.6974,-6.6936,-6.709,-6.6936,-6.659,-6.5936,-6.5897,-6.591,-6.5935,-6.5743,-6.5242,-6.4395,-6.351,-6.2651,-6.1831,-6.1127,-6.0896,-6.105,-6.0834,-6.0764,-6.0828,-6.1182,-6.2216,-6.3821,-6.5176,-6.7144,-6.9489,-7.2214,-7.3582,-7.4052,-7.4177,-7.367,-7.2973,-7.2789,-7.2014,-7.0491,-6.6925,-6.5626,-6.4961,-6.3044,-6.3493,-6.454,-6.4196,-6.4151,-6.4292,-6.4839,-6.4993,0.0,-6.644,-6.6818,-6.7501,0.0,0.0,0.0,0.0,0.0,0.0,0.0,0.0,0.0,0.0,0.0,0.0,0.0,0.0,0.0,0.0,-7.3733,-7.2714,-7.2498,-7.1776,-7.1312,-7.1312,-7.1447,-7.2124,-7.3443,-7.3612,-7.4356,-7.5676,-7.5709,-7.5709,-7.5709,-7.5709,-7.5709,-7.5709,-7.5709,-7.5709,-7.5709,-7.5709,-7.5709,-7.5709,-7.5709,-7.5709,-7.5709,-7.5709,-7.5709,-7.5709,-7.5709,-7.6115,-7.6589,-6.7028,-6.6758,-6.6785,-6.7209,-6.7563,-6.759,-6.7167,-6.7475,-6.7282,-6.6051,-6.5897,-6.6051,-6.6436,-6.6128,-6.6205,-6.7013,-6.709,-6.7282,-6.7705,-6.7321,-6.6898,-6.6513,-6.6513,-6.6513,-6.6513,-6.6936,-6.6513,-6.5243,-6.482,-6.3935,-6.2666,-6.182,-6.2139,-6.3281,-6.149,-6.1262,-6.2142,-6.1239,-6.1468,-6.269,-6.5677,-6.8729,-7.1793,-7.4052,-7.5139,-7.5506,-7.5506,-7.5249,-7.4698,-7.3487,-7.2389,-7.1121,-6.8652,-6.7284,-6.6189,-6.419,-6.4153,-6.4681,-6.4059,-6.3499,-6.328,-6.4059,-6.4369,0.0,0.0,-6.6144,-6.6759,-6.8929,0.0,0.0,0.0,0.0,0.0,0.0,0.0,0.0,0.0,0.0,0.0,0.0,0.0,0.0,0.0,-7.4423,-7.3166,-7.2142,-7.1556,-7.1312,-7.1312,-7.165,-7.236,-7.3443,-7.3849,-7.4593,-7.5676,-7.5709,-7.5709,-7.5709,-7.5709,-7.5709,-7.5709,-7.5709,-7.5709,-7.5709,-7.5709,-7.5709,-7.5709,-7.5709,-7.5709,-7.5709,-7.5709,-7.5709,-7.5709,-7.5709,-7.5946,-7.6284,-6.7774,-6.743,-6.7332,-6.7359,-6.7807,-6.7898,-6.7205,-6.7705,-6.7628,-6.609,-6.6167,-6.6705,-6.7513,-6.7321,-6.7436,-6.8244,-6.8321,-6.8475,-6.8859,-6.8205,-6.7744,-6.759,-6.7436,-6.7359,-6.7359,-6.7898,-6.7398,-6.5897,-6.5743,-6.4859,-6.3269,-6.2474,-6.3101,-6.482,-6.2401,-6.2153,-6.3503,-6.1903,-6.1599,-6.2672,-6.7068,-6.9855,-7.1659,-7.4454,-7.5382,-7.5249,-7.5873,-7.6019,-7.5652,-7.4184,-7.2716,-7.1321,-7.0036,-6.8783,-6.7382,-6.5151,-6.4818,-6.4964,-6.3967,-6.2977,-6.2433,-6.3333,-6.3621,-6.4087,0.0,0.0,0.0,0.0,0.0,0.0,0.0,0.0,0.0,0.0,0.0,0.0,0.0,0.0,0.0,0.0,0.0,0.0,0.0,-7.4618,-7.3238,-7.1698,-7.1182,-7.1084,-7.1481,-7.209,-7.28,-7.368,-7.4289,-7.4965,-7.5676,-7.5709,-7.5709,-7.5709,-7.5709,-7.5709,-7.5709,-7.5709,-7.5709,-7.5709,-7.5709,-7.5709,-7.5709,-7.5709,-7.5709,-7.5709,-7.5709,-7.5709,-7.5709,-7.5709,-7.5709,-7.5777,-6.8061,-6.7628,-6.749,-6.748,-6.734,-6.7205,-6.7128,-6.7167,-6.6898,-6.6013,-6.7205,-6.8436,-6.9321,-7.0629,-7.1822,-7.2706,-7.2783,-7.2168,-7.0706,-7.0514,-7.0167,-6.9436,-6.8667,-6.8244,-6.8244,-6.759,-6.6821,-6.5897,-6.5128,-6.4243,-6.3269,-6.2474,-6.182,-6.1435,-6.3117,-6.3135,-6.2022,-6.422,-6.637,-6.8382,-6.9062,-6.7778,-6.605,-7.1336,-7.2705,-7.2239,-7.5102,-7.5652,-7.4918,0.0,-7.3083,-7.1835,-6.8898,-6.9293,-6.9945,-6.5489,-6.5673,-6.6702,-6.3738,-6.2831,-6.2659,-6.2373,-6.2301,-6.2286,-6.2164,0.0,-6.2523,-6.2786,0.0,0.0,0.0,0.0,0.0,0.0,0.0,0.0,0.0,0.0,0.0,0.0,0.0,0.0,0.0,0.0,-7.2478,-7.2617,-7.0636,-7.0283,-7.2169,-7.236,-7.3037,-7.4424,-7.4559,-7.4965,-7.5676,-7.5709,-7.5709,-7.5709,-7.5709,-7.5709,-7.5709,-7.5709,-7.5709,-7.5709,-7.5709,-7.5709,-7.5709,-7.5709,-7.5709,-7.5709,-7.5709,-7.5709,-7.5709,-7.5709,-7.5709,-7.5709,-6.8756,-6.8297,-6.7984,-6.747,-6.7215,-6.709,-6.709,-6.6705,-6.641,-6.6485,-6.665,-6.7044,-6.7817,-6.9078,-7.0196,-7.1041,-7.2573,-7.3206,-7.2476,-7.1937,-7.1283,-7.0437,-6.959,-6.8936,-6.8398,-6.8552,-6.7936,-6.659,-6.6244,-6.5359,-6.4051,-6.3205,-6.3397,-6.4474,-6.4747,-6.5429,-6.6383,-6.6862,-6.6958,-6.6902,-6.7854,-6.6738,0.0,-7.218,-7.4779,-7.4962,-7.6313,-7.6276,-7.5616,0.0,-7.4037,0.0,-7.2422,-7.1027,-6.8898,-6.7357,-6.6292,-6.5191,-6.3319,-6.3172,-6.3296,-6.2082,-6.2535,-6.2889,-6.1484,-6.0874,-6.0855,-6.1714,0.0,0.0,0.0,0.0,0.0,0.0,-6.4766,0.0,0.0,0.0,0.0,0.0,0.0,0.0,0.0,0.0,0.0,0.0,0.0,-7.0168,-7.227,-7.28,-7.351,-7.4593,-7.5033,-7.5405,-7.5709,-7.5709,-7.5709,-7.5709,-7.5709,-7.5709,-7.5709,-7.5709,-7.5709,-7.5709,-7.5709,-7.5709,-7.5709,-7.5709,-7.5709,-7.5709,-7.5709,-7.5709,-7.5709,-7.5709,-7.5709,-7.5709,-6.9401,-6.885,-6.834,-6.744,-6.7024,-6.6782,-6.6782,-6.6218,-6.5999,-6.6465,-6.637,-6.6474,-6.7108,-6.9016,-7.0478,-7.0954,-7.359,-7.4956,-7.4298,-7.3469,-7.2816,-7.2417,-7.0959,-7.0018,-6.9808,-6.9513,-6.8629,-6.709,-6.6859,-6.6013,-6.4589,-6.3705,-6.4166,-6.5731,-6.5417,-6.663,-6.8919,-6.8666,-6.8157,-6.7584,-6.8453,-6.8346,-6.8214,-7.3206,-7.6019,-7.7273,-7.7273,-7.679,-7.613,-7.6276,-7.4368,0.0,-7.4184,-7.2275,-6.9376,-6.9522,-6.8054,-6.6072,-6.4567,-6.442,-6.4237,-6.2108,-6.2328,-6.2549,-6.0549,-5.9871,-6.0035,-6.1185,-6.0698,0.0,0.0,0.0,-6.1439,-6.1439,0.0,-6.5028,0.0,0.0,0.0,0.0,0.0,0.0,0.0,0.0,0.0,0.0,0.0,0.0,-7.2969,-7.364,-7.4252,-7.4864,-7.5701,-7.5973,-7.5709,-7.5709,-7.5709,-7.5709,-7.5709,-7.5709,-7.5709,-7.5709,-7.5709,-7.5709,-7.5709,-7.5709,-7.5709,-7.5709,-7.5709,-7.5709,-7.5709,-7.5709,-7.5709,-7.5709,-7.5709,-7.5709,-6.9779,-6.915,-6.834,-6.744,-6.6562,-6.5936,-6.5936,-6.5742,-6.5608,-6.5632,-6.691,-6.804,-6.859,-7.2778,-7.5414,-7.5063,-7.7812,-7.8634,-7.6368,-7.5452,-7.5338,-7.6102,-7.2976,-7.1898,-7.3308,-7.0129,-6.8013,-6.709,-6.632,-6.5474,-6.4589,-6.3705,-6.2935,-6.2358,-6.437,-6.5826,-6.6815,-6.9026,-7.1462,-7.383,-7.2758,-7.3699,-7.5499,0.0,-7.4588,-7.7273,-7.7273,0.0,0.0,-7.4331,-7.3707,0.0,0.0,0.0,0.0,0.0,0.0,0.0,0.0,0.0,-6.5632,-6.2401,-6.1043,-6.0089,-5.846,-5.8917,-5.9823,-6.0197,-6.1092,-6.192,-6.2298,-6.237,-6.237,-6.237,-6.2446,0.0,0.0,0.0,0.0,0.0,0.0,0.0,0.0,0.0,0.0,0.0,0.0,0.0,-7.466,-7.5007,-7.5244,-7.5655,-7.6701,-7.6747,-7.5709,-7.5709,-7.5709,-7.5709,-7.5709,-7.5709,-7.5709,-7.5709,-7.5709,-7.5709,-7.5709,-7.5709,-7.5709,-7.5709,-7.5709,-7.5709,-7.5709,-7.5709,-7.5709,-7.5709,-7.5709,-7.5709,-6.9875,-6.904,-6.8193,-6.7307,-6.6474,-6.5897,-6.5897,-6.5742,-6.5987,-6.698,-6.7452,-6.8147,-6.934,-7.2647,-7.4915,-7.5365,-7.7732,-7.8881,-7.8065,-7.6364,-7.5456,-7.5679,-7.3422,-7.2113,-7.2057,-7.0758,-6.909,-6.709,-6.6821,-6.5974,-6.4589,-6.3705,-6.3474,-6.3808,-6.5517,-6.7795,-7.0401,-7.2222,-7.3504,-7.4234,-7.2991,-7.3634,-7.5285,0.0,0.0,-7.7273,-7.7273,-7.679,0.0,-7.6093,-7.5028,-7.3891,-7.4955,-7.3817,-7.2202,-7.2753,-7.1945,0.0,0.0,0.0,-6.8788,-6.5007,0.0,0.0,0.0,-5.9522,-6.0259,-6.0602,-6.1575,-6.2478,-6.2805,-6.2609,-6.2408,-6.2408,-6.2408,-6.2311,0.0,0.0,0.0,0.0,0.0,0.0,0.0,0.0,0.0,0.0,0.0,0.0,0.0,-7.5125,-7.5491,-7.5956,-7.6795,-7.6792,-7.5709,-7.5709,-7.5709,-7.5709,-7.5709,-7.5709,-7.5709,-7.5709,-7.5709,-7.5709,-7.5709,-7.5709,-7.5709,-7.5709,-7.5709,-7.5709,-7.5709,-7.5709,-7.5709,-7.5709,-7.5709,-7.5709,-6.9873,-6.9013,-6.8129,-6.7244,-6.6436,-6.5885,-6.5795,-6.6251,-6.7041,-6.8203,-6.8832,-6.9512,-7.0378,-7.3099,-7.4961,-7.5145,-7.7541,-7.8811,-7.8296,-7.6858,0.0,-7.6013,-7.4535,-7.3664,-7.3531,-7.2199,-7.0628,-6.8898,-6.7705,-6.6551,-6.5474,-6.432,-6.4051,-6.4654,-6.5534,-6.8218,-7.2034,-7.2844,-7.422,-7.5787,-7.4667,-7.4661,0.0,0.0,-7.6497,-7.6503,0.0,-7.6974,-7.6607,-7.7127,-7.6276,-7.5249,-7.6796,-7.5512,-7.3641,-7.4698,-7.3891,-7.2532,-7.1945,-7.1982,0.0,-6.7871,-6.6806,0.0,-6.1814,0.0,-6.25,-6.2253,-6.2784,-6.3702,-6.5076,-6.4087,-6.3174,-6.3279,-6.2804,-6.2008,0.0,-6.1415,0.0,0.0,0.0,0.0,0.0,0.0,0.0,0.0,0.0,0.0,0.0,0.0,-7.5868,-7.6685,-7.7201,-7.7103,-7.6266,-7.5913,-7.5709,-7.5709,-7.5709,-7.5709,-7.5709,-7.5709,-7.5709,-7.5709,-7.5709,-7.5709,-7.5709,-7.5709,-7.5709,-7.5709,-7.5709,-7.5709,-7.5709,-7.5709,-7.5709,-7.5709,-6.9821,-6.8898,-6.8013,-6.7167,-6.6423,-6.5871,-6.5712,-6.7316,-6.8785,-6.9333,-7.1027,-7.2054,-7.1808,-7.443,-7.5825,-7.4848,-7.7451,-7.8575,-7.7271,-7.708,0.0,0.0,-7.6255,-7.6365,-7.7608,-7.4389,-7.2537,-7.2245,-6.8859,-6.7167,-6.7051,-6.5397,-6.4628,-6.4654,-6.4486,-6.7117,-7.1651,-7.1105,-7.3868,-7.8469,-7.7548,-7.6717,-7.6056,-7.6937,-7.6246,-7.5139,-7.6723,-7.7273,-7.7273,-7.7273,-7.7273,-7.7273,-7.7273,-7.7273,-7.7273,-7.7273,-7.7273,-7.6943,-7.5432,-7.4441,-7.323,-7.0881,0.0,0.0,0.0,0.0,-6.6287,0.0,0.0,0.0,0.0,-6.6565,-6.4501,-6.4686,-6.3358,-6.173,-6.008,-6.1381,-6.2566,0.0,0.0,0.0,0.0,0.0,0.0,0.0,0.0,0.0,0.0,0.0,-7.6302,-7.7717,-7.7815,-7.7603,-7.7267,-7.6219,-7.5709,-7.5709,-7.5709,-7.5709,-7.5709,-7.5709,-7.5709,-7.5709,-7.5709,-7.5709,-7.5709,-7.5709,-7.5709,-7.5709,-7.5709,-7.5709,-7.5709,-7.5709,-7.5709,-7.5709,-6.9013,-6.7552,-6.6397,-6.606,-6.6083,-6.6321,-6.6652,-6.8308,-7.0147,-7.1941,-7.3573,-7.4867,-7.5534,-7.6996,-7.769,-7.6978,-7.7903,0.0,0.0,0.0,0.0,-7.7238,-7.6875,-7.7005,-7.7792,-7.6196,-7.4601,-7.3168,-7.0398,-6.8359,-6.7051,-6.5397,-6.4936,-6.5551,-6.4755,-6.7535,-7.2767,-7.2315,-7.4277,-7.7599,-7.644,-7.5285,0.0,0.0,-7.5799,-7.5139,-7.6723,-7.7273,-7.7273,-7.7273,-7.7273,-7.7273,-7.7273,-7.7273,-7.7273,-7.7273,-7.7273,-7.72,-7.6796,-7.6093,-7.5065,-7.323,-7.1725,-7.0146,0.0,0.0,0.0,0.0,0.0,0.0,0.0,0.0,-6.4362,-6.2668,-6.1467,-6.0397,-5.9384,-5.9917,0.0,-6.2248,0.0,0.0,0.0,0.0,0.0,0.0,0.0,0.0,0.0,0.0,0.0,-7.7056,-7.7563,-7.7357,-7.6426,-7.5946,-7.5709,-7.5709,-7.5709,-7.5709,-7.5709,-7.5709,-7.5709,-7.5709,-7.5709,-7.5709,-7.5709,-7.5709,-7.5709,-7.5709,-7.5709,-7.5709,-7.5709,-7.5709,-7.5709,-7.5709,-6.9167,-6.7845,-6.674,-6.6235,-6.7086,-6.7905,-6.8009,-6.9109,0.0,-7.3437,-7.5319,0.0,-7.6841,-7.8041,-7.8511,-7.7612,-7.7728,0.0,-7.7356,0.0,0.0,-7.679,-7.7695,-7.8369,-7.8591,-7.8255,0.0,-7.4708,-7.2069,-6.9706,-6.7628,-6.5936,-6.5218,-6.5244,-6.5035,-6.7323,-7.1472,-7.3516,-7.5125,-7.6304,-7.6513,-7.5843,0.0,-7.6166,-7.635,-7.613,-7.7414,-7.7604,-7.7347,-7.7745,-7.7604,-7.7273,-7.7273,-7.7273,-7.7273,-7.7273,-7.7273,-7.7273,-7.7273,-7.6974,-7.6423,-7.5506,-7.4588,-7.334,-7.0991,-7.077,-7.0697,0.0,0.0,0.0,0.0,0.0,0.0,-6.1898,-6.0461,-5.9527,-5.9079,-5.9834,-6.0733,0.0,-6.3293,0.0,0.0,0.0,0.0,0.0,0.0,0.0,0.0,0.0,0.0,-7.7519,-7.6805,-7.6512,-7.6838,-7.595,-7.5795,-7.637,-7.637,-7.637,-7.6404,-7.5913,-7.5709,-7.5709,-7.5709,-7.5709,-7.5709,-7.5709,-7.5709,-7.5709,-7.5709,-7.5709,-7.5709,-7.5709,-7.5709,-7.5709,-6.9498,-6.8618,-6.7635,-6.6816,-6.8319,-6.9634,0.0,-7.0199,0.0,-7.4418,0.0,-7.7579,-7.6971,-7.8229,-7.8628,-7.7426,0.0,-7.698,-7.6313,-7.6937,-7.698,-7.6276,-7.8516,-7.9761,-7.966,-8.0243,-7.9153,0.0,-7.3606,-7.0909,-6.8179,-6.6487,-6.5282,-6.4586,-6.5158,-6.6804,-6.9487,-7.4358,-7.5863,-7.5258,-7.707,-7.7134,-7.6203,-7.698,-7.7273,-7.7384,-7.8295,-7.8038,-7.742,-7.8295,-7.8038,-7.7273,-7.7273,-7.7273,-7.7273,-7.7273,-7.7273,-7.7273,-7.7273,-7.7273,-7.7273,-7.7273,-7.7273,-7.654,-7.3634,-7.3413,-7.323,-7.1027,-6.9926,-7.0,0.0,0.0,0.0,0.0,0.0,0.0,-5.9797,-6.0787,-6.1477,-6.1391,0.0,0.0,0.0,0.0,0.0,0.0,0.0,0.0,0.0,0.0,0.0,-7.8295,-7.5946,0.0,-7.7511,0.0,-7.5726,-7.698,-7.6952,-7.7002,-7.7071,-7.6114,-7.5709,-7.5709,-7.5709,-7.5709,-7.5709,-7.5709,-7.5709,-7.5709,-7.5709,-7.5709,-7.5709,-7.5709,-7.5709,-7.5709,-6.8487,-6.75,-6.656,-6.5579,-6.6984,-6.8998,-7.1199,-7.3219,-7.4972,-7.6149,-7.783,-7.869,-7.8099,-7.8271,-7.8146,-7.7365,-7.7273,0.0,0.0,0.0,0.0,-7.709,-7.8809,-8.0057,-8.0544,-8.1132,-7.9638,0.0,-7.4019,-7.0997,-6.7146,-6.5457,-6.4907,-6.5364,-6.4661,-6.6745,-7.0915,-7.3691,0.0,-7.6005,-7.6671,-7.6618,-7.6203,-7.698,-7.7273,-7.7384,-7.8295,-7.8038,-7.742,-7.8295,-7.8038,-7.7273,-7.7273,-7.7273,-7.7273,-7.7273,-7.7273,-7.7273,-7.7273,-7.7273,-7.7273,-7.7273,-7.7273,-7.698,-7.5763,-7.5065,-7.4368,-7.3303,-7.2422,-7.1423,-6.9926,0.0,0.0,0.0,0.0,0.0,0.0,-6.2909,-6.2458,-6.3795,0.0,0.0,0.0,0.0,0.0,0.0,0.0,0.0,0.0,0.0,0.0,0.0,-7.605,0.0,0.0,0.0,-7.4292,-7.5293,-7.5128,-7.5395,-7.5973,-7.5771,-7.5709,-7.5709,-7.5709,-7.5709,-7.5709,-7.5709,-7.5709,-7.5709,-7.5709,-7.5709,-7.5709,-7.5709,-7.5709,-7.5709,-6.8776,-6.8123,-6.7807,-6.7823,-6.9043,-7.0726,0.0,-7.4859,-7.6389,-7.6655,-7.7063,-7.7208,-7.6994,-7.7761,-7.8044,-7.7365,-7.7273,-7.7273,-7.7273,-7.7273,-7.7273,-7.7273,-7.8516,-7.951,-8.0267,-8.1279,-7.9967,-7.6157,0.0,-7.1778,-6.737,-6.5226,-6.4417,-6.4749,-6.5289,-6.7259,-7.0352,0.0,0.0,-7.5952,-7.6959,-7.7134,-7.679,-7.7127,-7.7273,-7.7384,-7.8295,-7.8038,-7.742,-7.8295,-7.8038,-7.7273,-7.7273,-7.7273,-7.7273,-7.7273,-7.7273,-7.7273,-7.7273,-7.7273,-7.7273,-7.7273,-7.698,-7.6497,-7.5652,-7.4882,-7.4037,-7.323,-7.2789,-7.1908,-6.9889,-6.754,0.0,0.0,0.0,0.0,0.0,0.0,-6.4709,0.0,0.0,0.0,0.0,0.0,0.0,0.0,0.0,0.0,0.0,0.0,0.0,0.0,0.0,0.0,0.0,0.0,0.0,-7.4998,-7.5313,-7.5628,-7.5926,-7.5756,-7.5709,-7.5709,-7.5709,-7.5709,-7.5709,-7.5709,-7.5709,-7.5709,-7.5709,-7.5709,-7.5709,-7.5709,-7.5709,-7.5709,-6.9655,-6.9453,-6.9625,-7.0418,-7.1536,-7.2702,-7.3811,-7.5529,-7.6733,-7.6792,-7.6265,-7.592,-7.6057,-7.7255,-7.7875,-7.7335,-7.7273,-7.7273,-7.7273,-7.7273,-7.7273,-7.7273,-7.8148,-7.8883,-7.9507,-8.1177,-8.0169,0.0,0.0,-7.2471,-6.7821,-6.5356,-6.4318,-6.4626,-6.6294,0.0,0.0,0.0,-7.5145,-7.5856,-7.7308,-7.7636,-7.7273,-7.7273,-7.7273,-7.7384,-7.8075,-7.7892,-7.7384,-7.8112,-7.7892,-7.7273,-7.7273,-7.7273,-7.7273,-7.7273,-7.7273,-7.7273,-7.7273,-7.7273,-7.7273,-7.7273,-7.6717,-7.5909,-7.5102,-7.4294,-7.345,-7.2679,-7.2496,-7.1945,-7.0183,-6.8541,0.0,0.0,0.0,0.0,0.0,0.0,-6.6948,0.0,0.0,0.0,0.0,0.0,0.0,0.0,0.0,0.0,-7.2381,0.0,0.0,0.0,0.0,-7.3902,-7.3797,0.0,-7.406,0.0,-7.5673,-7.6037,-7.6075,-7.6085,-7.5913,-7.5709,-7.5709,-7.5709,-7.5709,-7.5709,-7.5709,-7.5709,-7.5709,-7.5709,-7.5709,-7.5709,-7.5709,-7.5709,-7.0868,-7.0995,-7.1009,-7.1023,-7.2382,-7.3616,-7.4104,-7.5014,-7.6013,-7.7105,-7.7156,-7.7156,-7.7139,-7.7286,-7.7365,-7.7341,-7.7273,-7.7273,-7.7273,-7.7273,-7.7273,-7.7273,-7.8148,-7.8626,-7.8699,-8.0881,-8.0219,0.0,0.0,-7.2635,-6.7689,-6.554,-6.5312,-6.6749,0.0,0.0,0.0,-7.3962,-7.5144,-7.6633,-7.7149,-7.7335,-7.7273,-7.7273,-7.7273,-7.731,-7.7384,-7.7347,-7.731,-7.7384,-7.7347,-7.7273,-7.7273,-7.7273,-7.7273,-7.7273,-7.7273,-7.7273,-7.7273,-7.7273,-7.7273,-7.7273,-7.6717,-7.5909,-7.5102,-7.4294,-7.345,-7.2679,-7.2496,-7.1798,-6.9449,-6.9937,-6.9739,0.0,0.0,0.0,0.0,0.0,-6.8155,-6.9614,0.0,0.0,0.0,0.0,0.0,0.0,-6.8174,0.0,0.0,0.0,0.0,-7.4909,0.0,-7.2549,-7.3358,-7.2139,-7.2712,-7.4956,-7.5119,-7.5392,-7.5811,-7.6712,-7.6645,-7.5709,-7.5709,-7.5709,-7.5709,-7.5709,-7.5709,-7.5709,-7.5709,-7.5709,-7.5709,-7.5709,-7.5709,-7.5811,-7.2583,-7.2248,-7.2235,0.0,0.0,0.0,0.0,-7.6289,-7.6781,-7.7231,-7.69,-7.679,-7.7237,-7.69,-7.679,-7.7237,-7.6864,-7.679,-7.7273,-7.7273,-7.7273,-7.7273,-7.7635,-7.8075,-7.8589,-7.9479,-7.9098,0.0,0.0,0.0,-6.905,-6.6673,-6.6695,0.0,0.0,-7.2111,-7.4036,-7.4957,-7.6,-7.7068,-7.7255,-7.7273,-7.7273,-7.7273,-7.7273,-7.7273,-7.7273,-7.7273,-7.7273,-7.7273,-7.7273,-7.7273,-7.7273,-7.7273,-7.7273,-7.7273,-7.7273,-7.7273,-7.7273,-7.7273,-7.7273,-7.7273,-7.6319,-7.5322,-7.4992,-7.3891,-7.2899,-7.2569,-7.2496,-7.2202,-7.1248,-7.0734,-7.0398,0.0,0.0,0.0,0.0,0.0,0.0,-7.2165,0.0,-7.1232,0.0,0.0,0.0,0.0,0.0,0.0,0.0,0.0,0.0,-7.1786,0.0,-7.2705,-7.1563,-7.2245,-7.2893,-7.3399,-7.4377,-7.4854,-7.5067,-7.5956,-7.6114,-7.5709,-7.5709,-7.5709,-7.5709,-7.5709,-7.5709,-7.5709,-7.5709,-7.5709,-7.5743,-7.6251,-7.642,-7.6521,-7.4275,0.0,-7.3956,0.0,-7.5365,-7.5559,-7.6894,-7.7231,-7.7273,-7.7273,-7.6827,-7.668,-7.7237,-7.6607,-7.6423,-7.7237,-7.657,-7.646,-7.7237,-7.7273,-7.7273,-7.7273,-7.7273,0.0,-7.8222,-7.8479,-7.845,-7.8094,-7.4699,0.0,-7.1032,-6.8379,-6.8589,0.0,-7.2706,-7.3998,-7.5187,-7.6066,-7.679,-7.7273,-7.7273,-7.7273,-7.7273,-7.7273,-7.7273,-7.7273,-7.7273,-7.7273,-7.7273,-7.7273,-7.7273,-7.7273,-7.7273,-7.7273,-7.7273,-7.7273,-7.7273,-7.7273,-7.7273,-7.7273,-7.7273,-7.7273,-7.6063,-7.4918,-7.4918,-7.367,-7.2496,-7.2496,-7.2496,-7.2496,-7.2496,-7.1128,-7.0307,-7.1238,0.0,0.0,0.0,-7.2534,0.0,-7.2349,-7.2165,-7.1903,-7.15,0.0,0.0,0.0,0.0,0.0,0.0,0.0,0.0,0.0,0.0,0.0,0.0,-7.2775,-7.339,-7.3855,-7.4673,-7.5034,-7.4965,-7.5473,-7.5709,-7.5709,-7.5709,-7.5709,-7.5709,-7.5709,-7.5709,-7.5709,-7.5709,-7.5709,-7.5811,-7.6589,-7.6893,-7.7029,-7.5909,-7.6056,-7.6313,-7.7121,-7.7268,-7.7268,-7.7304,-7.7304,-7.7273,-7.7273,-7.7273,-7.7273,-7.7273,-7.6607,-7.6423,-7.7237,-7.657,-7.646,-7.7237,-7.7273,-7.7273,0.0,0.0,-7.7273,-7.731,-7.8148,-7.8589,-7.8589,0.0,0.0,-7.3589,-7.0702,-7.1046,-7.4164,-7.4164,-7.5343,-7.7237,-7.7273,-7.7273,-7.7273,-7.7273,-7.7273,-7.7273,-7.7273,-7.7273,-7.7273,-7.7273,-7.7273,-7.7273,-7.7273,-7.7273,-7.7273,-7.7273,-7.7273,-7.7273,-7.7273,-7.7273,-7.7273,-7.7273,-7.7273,-7.7273,-7.7273,-7.6063,-7.4918,-7.4918,-7.367,-7.2496,-7.2496,-7.2496,-7.2496,-7.2496,-7.0998,-6.949,-6.8845,0.0,0.0,0.0,-7.0937,0.0,-6.9229,-6.688,-6.6806,-7.0357,0.0,0.0,0.0,0.0,0.0,0.0,0.0,0.0,-7.3597,-7.2538,0.0,-7.5613,-7.3476,-7.4003,-7.7223,-7.6539,-7.6025,-7.5676,-7.5709,-7.5709,-7.5709,-7.5709,-7.5709,-7.5709,-7.5709,-7.5709,-7.5709,-7.5709,-7.5709,-7.5811,-7.6589,-7.6893,-7.7096,-7.69,-7.6937,-7.7011,-7.7237,-7.7273,-7.7273,-7.7273,-7.7273,-7.7273,-7.7273,-7.7273,-7.7273,-7.7273,-7.6093,-7.5616,0.0,-7.5249,-7.5028,0.0,-7.6497,-7.6754,-7.7273,-7.7273,-7.7273,-7.7273,-7.7598,-7.8259,-7.9396,0.0,0.0,0.0,-7.3823,-7.458,-7.7156,-7.6604,-7.6661,-7.7273,-7.7273,-7.7273,-7.7273,-7.7273,-7.7273,-7.7273,-7.7273,-7.7273,-7.7273,-7.7273,-7.7273,-7.7273,-7.7273,-7.7273,-7.7273,-7.7273,-7.7273,-7.7273,-7.7273,-7.7273,-7.7273,-7.7273,-7.7273,-7.7273,-7.7273,-7.6063,-7.4918,-7.4918,-7.367,-7.2496,-7.2496,-7.2496,-7.2496,-7.2496,-7.2449,-7.2351,-7.2157,-7.274,0.0,-7.296,0.0,-7.3438,-7.2096,-7.1189,-7.1123,0.0,-6.961,0.0,0.0,0.0,0.0,0.0,0.0,0.0,0.0,-7.2215,0.0,-7.4925,-7.4426,-7.4972,-7.6539,-7.6085,-7.5782,-7.5709,-7.5709,-7.5709,-7.5709,-7.5709,-7.5709,-7.5709,-7.5709,-7.5709,-7.5709,-7.5709,-7.6048,-7.6623,-7.7367,-7.7976,-7.8551,-7.7273,-7.7273,-7.7273,-7.7273,-7.7273,-7.7273,-7.7273,-7.7273,-7.7273,-7.7273,-7.7273,-7.7273,-7.7273,-7.613,0.0,-7.6497,-7.5102,-7.4845,-7.646,-7.6276,-7.646,-7.7237,-7.7273,-7.7273,-7.7273,-7.7273,0.0,-7.8846,-7.7121,-7.657,-7.7011,-7.6533,-7.6937,-7.8112,-7.7561,-7.7273,-7.7273,-7.7273,-7.7273,-7.7273,-7.7273,-7.7273,-7.7273,-7.7273,-7.7273,-7.7273,-7.7273,-7.7273,-7.7273,-7.7273,-7.7273,-7.7273,-7.7273,-7.7273,-7.7273,-7.7273,-7.7273,-7.7273,-7.7273,-7.7273,-7.7273,-7.7273,-7.6063,-7.4735,-7.4147,-7.345,-7.2936,-7.2936,-7.3193,-7.3413,-7.3413,-7.3507,-7.3617,-7.3617,-7.4024,-7.4353,-7.4353,0.0,-7.3985,0.0,0.0,0.0,0.0,-7.0488,0.0,0.0,0.0,0.0,0.0,0.0,0.0,-7.1205,-7.2617,0.0,-7.5335,-7.5018,-7.5574,-7.7059,-7.6458,-7.598,-7.5709,-7.5709,-7.5709,-7.5709,-7.5709,-7.5709,-7.5709,-7.5709,-7.5709,-7.5709,-7.5709,-7.6183,-7.6995,-7.7705,-7.8483,-7.9228,-7.7273,-7.7273,-7.7273,0.0,-7.7273,0.0,-7.7273,-7.7273,-7.7273,-7.7273,-7.7273,-7.7273,-7.7273,-7.6644,-7.6497,-7.7237,0.0,0.0,0.0,-7.646,-7.6423,-7.7237,-7.7273,-7.7273,-7.7273,-7.7273,-7.7347,-7.7457,-7.8332,-7.8772,-7.8772,-7.8772,-7.8259,-7.7384,-7.7384,-7.7347,-7.7273,-7.7273,-7.7273,-7.7273,-7.7273,-7.7273,-7.7273,-7.7273,-7.7273,-7.7273,-7.7273,-7.7273,-7.7273,-7.7273,-7.7273,-7.7273,-7.7273,-7.7273,-7.7273,-7.7273,-7.7273,-7.7273,-7.7273,-7.7273,-7.7273,-7.7273,-7.6099,-7.4588,-7.2973,-7.3193,-7.378,-7.3707,-7.4331,-7.4918,-7.4918,-7.4233,-7.3682,-7.3682,-7.3685,-7.3655,-7.3655,-7.4134,-7.3351,0.0,0.0,0.0,0.0,-6.9033,-7.0204,0.0,0.0,0.0,0.0,0.0,-7.0401,-7.3106,-7.3641,-7.4828,-7.6753,-7.5461,-7.6027,-7.8484,-7.74,-7.6521,-7.5777,-7.5709,-7.5709,-7.5709,-7.5709,-7.5709,-7.5709,-7.5709,-7.5709,-7.5709,-7.5709,-7.6183,-7.6995,-7.7705,-7.8416,-7.916,0.0,0.0,-7.7273,-7.7273,-7.7273,-7.7273,-7.7273,-7.7273,-7.7273,-7.7273,-7.7273,-7.7273,-7.7273,-7.7127,-7.709,-7.7273,-7.5285,-7.4661,-7.6276,-7.5652,-7.5836,-7.7237,-7.7273,-7.7273,-7.7273,-7.7273,-7.7928,-7.9213,-8.0021,-8.0424,-8.0424,-8.0424,-7.969,-7.8295,-7.8295,-7.7928,-7.7273,-7.7273,-7.7273,-7.7273,-7.7273,-7.7273,-7.7273,-7.7273,-7.7273,-7.7273,-7.7273,-7.7273,-7.7273,-7.7273,-7.7273,-7.7273,-7.7273,-7.7273,-7.7273,-7.7273,-7.7273,-7.7273,-7.7273,-7.7273,-7.7273,-7.7273,-7.657,-7.5395,-7.378,-7.4037,-7.4441,-7.3817,-7.4331,-7.4918,-7.4918,-7.5208,-7.5488,-7.5488,-7.5386,-7.5245,-7.5245,-7.4107,-7.2932,0.0,-7.1367,-7.1206,-7.1966,-7.1832,-7.1707,0.0,0.0,0.0,0.0,-7.0091,-7.1198,-7.3878,-7.392,-7.531,-7.8301,-7.7207,-7.7148,-7.8074,-7.7276,-7.6792,-7.6589,-7.598,-7.5709,-7.5709,-7.5709,-7.5709,-7.5709,-7.5709,-7.5709,-7.5709,-7.5709,-7.6183,-7.6995,-7.7705,-7.8111,-7.845,-7.7892,-7.8185,-7.8442,-7.8442,-7.838,-7.8205,-7.7953,-7.7828,-7.7622,-7.7335,-7.7273,-7.7273,-7.7273,-7.7273,-7.7273,-7.7273,-7.5763,-7.5322,-7.657,-7.5909,-7.6019,-7.7237,-7.7273,-7.7273,-7.7273,-7.7273,-7.7965,-7.925,-7.969,-7.991,-7.991,-7.991,-7.9213,-7.8002,-7.8002,-7.7745,-7.7273,-7.7273,-7.7273,-7.7273,-7.7273,-7.7273,-7.7273,-7.7273,-7.7273,-7.7273,-7.7273,-7.7273,-7.7273,-7.7273,-7.7273,-7.7273,-7.7273,-7.7273,-7.7273,-7.7273,-7.7273,-7.7273,-7.7273,-7.7273,-7.72,-7.6864,-7.6423,-7.5689,-7.4074,-7.4625,-7.5212,-7.4404,-7.5175,-7.5989,-7.5989,-7.635,-7.6644,-7.6644,-7.6532,-7.633,-7.5855,-7.446,-7.3332,-7.2838,-7.1917,-7.1501,-7.2056,-7.2099,-7.1981,-7.1668,-7.1246,0.0,-7.1358,-7.1309,-7.1893,-7.3324,-7.3912,-7.5254,-7.7424,-7.7892,-7.8061,-7.7976,-7.757,-7.7232,-7.686,-7.6082,-7.5709,-7.5709,-7.5709,-7.5709,-7.5709,-7.5709,-7.5709,-7.5709,-7.5709,-7.6183,-7.6961,-7.7333,-7.7705,-7.8111,-7.8767,-7.9323,-7.9827,-7.9915,-7.9821,-7.9558,-7.912,-7.8721,-7.8276,-7.7724,-7.7439,-7.7273,-7.7273,-7.7273,-7.7273,-7.7273,-7.668,-7.657,-7.7237,-7.657,-7.646,-7.7237,-7.7273,-7.7273,-7.7273,-7.7273,-7.7745,-7.8589,-7.8589,-7.8589,-7.8589,-7.8699,-7.8259,-7.731,-7.742,-7.742,-7.7273,-7.7273,-7.7273,-7.7273,-7.7273,-7.7273,-7.7273,-7.7273,-7.7273,-7.7273,-7.7273,-7.7273,-7.7273,-7.7273,-7.7273,-7.7273,-7.7273,-7.7273,-7.7273,-7.7273,-7.7273,-7.7273,-7.7273,-7.7273,-7.7127,-7.646,-7.6276,-7.5909,-7.4404,-7.5212,-7.6056,-7.5249,-7.6246,-7.7273,-7.7273,-7.7273,-7.72,-7.698,-7.6924,-7.651,-7.5359,0.0,-7.3549,-7.2673,-7.183,-7.1312,-7.1312,-7.1312,-7.1644,-7.2498,-7.1786,-7.1995,-7.3567,-7.2969,-7.2665,-7.2902,-7.4119,-7.5236,-7.6217,-7.8247,-7.8957,-7.8314,-7.8213,-7.7773,-7.7029,-7.6251,-7.5811,-7.5709,-7.5709,-7.5709,-7.5709,-7.5709,-7.5709,-7.5709,-7.5709,-7.6115,-7.6724,-7.686,-7.7198,-7.7671,-7.959,-7.969,-7.9977,-8.0551,-8.0628,-8.0763,-8.1182,-8.0137,-7.9278,-7.9168,-7.8057,-7.7273,-7.7273,-7.7273,-7.7273,-7.7273,-7.7163,-7.7163,-7.7273,-7.657,-7.646,-7.7237,-7.7273,-7.7273,-7.7273,-7.7273,-7.7745,-7.8589,-7.8589,-7.8589,-7.8589,-7.9286,-7.8772,-7.731,-7.8075,-7.8002,-7.7273,-7.7273,-7.7273,-7.7273,-7.7273,-7.7273,-7.7273,-7.7273,-7.7273,-7.7273,-7.7273,-7.7273,-7.7273,-7.7273,-7.7273,-7.7273,-7.7273,-7.7273,-7.7273,-7.7273,-7.7273,-7.7273,-7.7273,-7.7273,-7.7273,-7.7127,-7.709,-7.69,-7.5946,-7.646,-7.69,-7.6093,-7.668,-7.7273,-7.7273,-7.7273,-7.6833,-7.5506,-7.5107,-7.4424,-7.2761,0.0,-7.1933,-7.1576,-7.1401,-7.1312,-7.1312,-7.1312,-7.1356,-7.1546,-7.1401,-7.1706,-7.2598,-7.3061,-7.3883,-7.5134,-7.5405,-7.6521,-7.8551,-7.9532,-7.9972,-7.9837,-7.9228,-7.8551,-7.7773,-7.7063,-7.6352,-7.5709,-7.5709,-7.5709,-7.5709,-7.5709,-7.5709,-7.5709,-7.5709,-7.5777,-7.598,-7.6657,-7.6555,-7.6251,-8.0472,-8.1096,-8.1622,-8.1531,-8.2072,-8.2344,-8.1918,-8.083,-7.9903,-7.9572,-7.8219,-7.7273,-7.7273,-7.7273,-7.7273,-7.7273,-7.7273,-7.7273,-7.7273,-7.6943,-7.6937,-7.7273,-7.7273,-7.7273,-7.7273,-7.69,-7.6864,-7.7268,-7.7708,-7.7671,-7.7268,-7.8552,-7.8479,-7.731,-7.7745,-7.7708,-7.7273,-7.7273,-7.7273,-7.7273,-7.7273,-7.7273,-7.7273,-7.7273,-7.7273,-7.7273,-7.7273,-7.7273,-7.7273,-7.7273,-7.7273,-7.7273,-7.7273,-7.7273,-7.7273,-7.7273,-7.7273,-7.7273,-7.7273,-7.7273,-7.7273,-7.7273,-7.7273,-7.709,-7.6276,-7.6717,-7.7053,-7.6276,-7.6754,-7.7273,-7.7273,-7.7273,-7.7053,-7.6283,-7.6121,-7.5375,-7.3432,-7.3604,-7.323,-7.1478,-7.1742,-7.1917,-7.1356,-7.1312,-7.1312,-7.1312,-7.1312,-7.1819,-7.2935,-7.3308,-7.4356,-7.6284,-7.713,-7.8044,-7.9092,-7.9837,-8.0209,-8.0175,-7.9464,-7.872,-7.7942,-7.7232,-7.6454,-7.5709,-7.5709,-7.5709,-7.5709,-7.5709,-7.5709,-7.5709,-7.5709,-7.5709,-7.5743,-7.6115,-7.6014,-7.5811,-8.183,-8.2636,-8.3294,-8.2935,-8.3626,-8.3878,-8.3088,-8.1705,-8.0564,-8.0099,-7.8409,-7.7273,-7.7273,-7.7273,-7.7273,-7.7273,-7.7273,-7.7273,-7.7273,-7.7273,-7.7273,-7.7273,-7.7273,-7.7273,-7.7273,-7.6717,-7.6387,-7.6387,-7.7011,-7.698,-7.6423,-7.7708,-7.7965,-7.7273,-7.7273,-7.7273,-7.7273,-7.7273,-7.7273,-7.7273,-7.7273,-7.7273,-7.7273,-7.7273,-7.7273,-7.7273,-7.7273,-7.7273,-7.7273,-7.7273,-7.7273,-7.7273,-7.7273,-7.7273,-7.7273,-7.7273,-7.7273,-7.7273,-7.7273,-7.7273,-7.7273,-7.7273,-7.7273,-7.7127,-7.6533,-7.6864,-7.7127,-7.6533,-7.69,-7.7273,-7.7273,-7.7273,-7.7163,-7.6796,-7.687,-7.6332,-7.4368,-7.4939,-7.4617,-7.2279,-7.2456,-7.2498,-7.1732,-7.1412,-7.1312,-7.1312,-7.1481,-7.2124,-7.3409,-7.3646,-7.4796,-7.7063,-7.8416,-7.9194,-7.9363,-7.9938,-8.0209,-8.0175,-7.9464,-7.872,-7.7942,-7.7232,-7.6454,-7.5709,-7.5709,-7.5709,-7.5709,-7.5709,-7.5709,-7.5709,-7.5709,-7.5709,-7.5709,-7.5709,-7.5709,-7.5709,-8.3928,-8.4042,-8.43,-8.4806,-8.4961,-8.5186,-8.5734,-8.343,-8.1599,-8.1514,-7.9047,-7.7273,-7.7273,-7.7273,-7.7273,-7.7273,-7.7273,-7.7273,-7.7273,-7.7273,-7.7273,-7.7273,-7.7273,-7.7273,-7.7273,-7.7237,-7.72,-7.72,-7.7273,-7.7273,-7.72,-7.7347,-7.7347,-7.7273,-7.7273,-7.7273,-7.7273,-7.7273,-7.7273,-7.7273,-7.7273,-7.7273,-7.7273,-7.7273,-7.7273,-7.7273,-7.7273,-7.7273,-7.7273,-7.7273,-7.7273,-7.7273,-7.7273,-7.7273,-7.7273,-7.7273,-7.7273,-7.7273,-7.7273,-7.7273,-7.7273,-7.7273,-7.7273,-7.7273,-7.7237,-7.7237,-7.7273,-7.72,-7.7237,-7.7273,-7.7273,-7.7273,-7.6796,-7.5322,-7.5689,-7.5567,-7.373,-7.4168,-7.4544,-7.4125,-7.3332,-7.2756,-7.2707,-7.183,-7.1312,-7.1312,-7.1954,-7.2665,-7.3443,-7.4153,-7.5574,-7.7841,-7.8686,-7.9431,-8.0107,-8.0175,-8.0209,-8.0175,-7.9464,-7.872,-7.7942,-7.7232,-7.6454,-7.5709,-7.5709,-7.5709,-7.5709,-7.5709,-7.5709,-7.5709,-7.5709,-7.5709,-7.5709,-7.5709,-7.5709,-7.5709,-8.4263,-8.4513,-8.4718,-8.4583,-8.522,-8.5664,-8.5514,-8.3737,-8.2265,-8.1774,-7.9596,-7.7892,-7.7347,-7.7273,-7.7273,-7.7273,-7.7273,-7.7273,-7.7273,-7.7273,-7.7273,-7.7273,-7.7273,-7.7273,-7.7273,-7.6827,-7.657,-7.657,-7.7053,-7.7017,-7.6607,-7.7635,-7.7818,-7.7273,-7.7273,-7.7273,-7.7273,-7.7273,-7.7273,-7.7273,-7.7273,-7.7273,-7.7273,-7.7273,-7.7273,-7.7273,-7.7273,-7.7273,-7.7273,-7.7273,-7.7273,-7.7273,-7.7273,-7.7273,-7.7273,-7.7273,-7.7273,-7.7273,-7.7273,-7.7273,-7.7273,-7.7273,-7.7273,-7.7273,-7.7273,-7.7273,-7.7273,-7.7273,-7.7273,-7.7273,-7.7273,-7.7273,-7.709,-7.6466,-7.6644,-7.6371,-7.5058,-7.5713,-7.5768,-7.4462,-7.3966,-7.3492,-7.288,-7.1917,-7.1515,-7.1954,-7.2225,-7.2935,-7.4119,-7.5777,-7.7096,-7.7942,-7.916,-7.9938,-8.0209,-8.0209,-7.9972,-7.9532,-7.9228,-7.8483,-7.7299,-7.7029,-7.6454,-7.5709,-7.5709,-7.5709,-7.5709,-7.5709,-7.5709,-7.5709,-7.5709,-7.5709,-7.5709,-7.5709,-7.5709,-7.5709,-8.5268,-8.5311,-8.53,-8.4888,-8.534,-8.5645,-8.5162,-8.3686,-8.241,-8.1871,-8.0159,-7.8662,-7.7818,-7.7708,-7.7598,-7.731,-7.7273,-7.7273,-7.7273,-7.7273,-7.7273,-7.7273,-7.7273,-7.7273,-7.7273,-7.6754,-7.6497,-7.6497,-7.7017,-7.7047,-7.6497,-7.7671,-7.7892,-7.7273,-7.7273,-7.7273,-7.7273,-7.7273,-7.7273,-7.7273,-7.7273,-7.7273,-7.7273,-7.7273,-7.7273,-7.7273,-7.7273,-7.7273,-7.7273,-7.7273,-7.7273,-7.7273,-7.7273,-7.7273,-7.7273,-7.7273,-7.7273,-7.7273,-7.7273,-7.7273,-7.7273,-7.7273,-7.7273,-7.7273,-7.7273,-7.7273,-7.7273,-7.7273,-7.7273,-7.7273,-7.7273,-7.7273,-7.7273,-7.7273,-7.7273,-7.7051,-7.6363,-7.6856,-7.6793,-7.5405,-7.494,-7.4498,-7.3811,-7.254,-7.1981,-7.2458,-7.2655,-7.3375,-7.4864,-7.721,-7.838,-7.8025,-7.9431,-8.0209,-8.0209,-8.0209,-7.9837,-7.9126,-7.8889,-7.8111,-7.6893,-7.6657,-7.6217,-7.5709,-7.5709,-7.5709,-7.5709,-7.5709,-7.5709,-7.5709,-7.5709,-7.5709,-7.5709,-7.5709,-7.5709,-7.5709,-8.7401,-8.6709,-8.6132,-8.6077,-8.5532,-8.5121,-8.51,-8.3339,-8.2025,-8.2025,-8.0695,-7.9507,-7.8699,-7.8589,-7.8259,-7.7384,-7.731,-7.731,-7.7273,-7.7273,-7.7273,-7.7273,-7.7273,-7.7273,-7.7273,-7.7273,-7.7273,-7.7273,-7.7273,-7.7273,-7.7273,-7.7273,-7.7273,-7.7273,-7.7273,-7.7273,-7.7273,-7.7273,-7.7273,-7.7273,-7.7273,-7.7273,-7.7273,-7.7273,-7.7273,-7.7273,-7.7273,-7.7273,-7.7273,-7.7273,-7.7273,-7.7273,-7.7273,-7.7273,-7.7273,-7.7273,-7.7273,-7.7273,-7.7273,-7.7273,-7.7273,-7.7273,-7.7273,-7.7273,-7.7273,-7.7273,-7.7273,-7.7273,-7.7273,-7.7273,-7.7273,-7.7273,-7.7273,-7.7273,-7.7273,-7.7273,-7.7273,-7.7273,-7.7273,-7.7273,-7.6396,-7.5787,-7.5787,-7.4005,-7.2797,-7.2832,-7.3239,-7.42,-7.5608,-7.8178,-7.913,-7.8025,-7.9431,-8.0209,-8.0209,-8.0209,-7.9837,-7.9092,-7.8348,-7.7604,-7.686,-7.6082,-7.5709,-7.5709,-7.5709,-7.5709,-7.5709,-7.5709,-7.5709,-7.5709,-7.5709,-7.5709,-7.5709,-7.5709,-7.5709,-7.5709,-8.7517,-8.7171,-8.6684,-8.5571,-8.5222,-8.4936,-8.4537,-8.3558,-8.263,-8.21,-8.1212,-8.0351,-7.9507,-7.9433,-7.9103,-7.8295,-7.8222,-7.7965,-7.7347,-7.7273,-7.7273,-7.7273,-7.7273,-7.7273,-7.7273,-7.7273,-7.7273,-7.7273,-7.7273,-7.7273,-7.7273,-7.7273,-7.7273,-7.7273,-7.7273,-7.7273,-7.7273,-7.7273,-7.7273,-7.7273,-7.7273,-7.7273,-7.7273,-7.7273,-7.7273,-7.7273,-7.7273,-7.7273,-7.7273,-7.7273,-7.7273,-7.7273,-7.7273,-7.7273,-7.7273,-7.7273,-7.7273,-7.7273,-7.7273,-7.7273,-7.7273,-7.7273,-7.7273,-7.7273,-7.7273,-7.7273,-7.7273,-7.7273,-7.7273,-7.7273,-7.7273,-7.7273,-7.7273,-7.7273,-7.7273,-7.7273,-7.7273,-7.7273,-7.7273,-7.7273,-7.6396,-7.5787,-7.5787,-7.5144,-7.491,-7.5398,-7.5906,-7.6355,-7.6802,-7.784,-7.8647,-7.913,-7.9809,-8.0209,-8.0209,-8.0209,-7.9837,-7.9092,-7.8348,-7.7604,-7.686,-7.6082,-7.5709,-7.5709,-7.5709,-7.5709,-7.5709,-7.5709,-7.5709,-7.5709,-7.5709,-7.5709,-7.5709,-7.5709,-7.5709,-7.5709,-8.8094,-8.7632,-8.6918,-8.5355,-8.4893,-8.4537,-8.3902,-8.3246,-8.2608,-8.2126,-8.1734,-8.1158,-8.0351,-8.0277,-7.9947,-7.914,-7.8772,-7.8222,-7.7347,-7.7273,-7.7273,-7.7273,-7.7273,-7.7273,-7.7273,-7.7273,-7.7273,-7.7273,-7.7273,-7.7273,-7.7273,-7.7273,-7.7273,-7.7273,-7.7273,-7.7273,-7.7273,-7.7273,-7.7273,-7.7273,-7.7273,-7.7273,-7.7273,-7.7273,-7.7273,-7.7273,-7.7273,-7.7273,-7.7273,-7.7273,-7.7273,-7.7273,-7.7273,-7.7273,-7.7273,-7.7273,-7.7273,-7.7273,-7.7273,-7.7273,-7.7273,-7.7273,-7.7273,-7.7273,-7.7273,-7.7273,-7.7273,-7.7273,-7.7273,-7.7273,-7.7273,-7.7273,-7.7273,-7.7273,-7.7273,-7.7273,-7.7273,-7.7273,-7.7273,-7.7273,-7.6761,-7.6396,-7.6396,-7.6193,-7.636,-7.7004,-7.7757,-7.7894,-7.7345,-7.8556,-7.9189,-7.899,-7.976,-8.0209,-8.0209,-8.0209,-7.9837,-7.9092,-7.8348,-7.7604,-7.686,-7.6082,-7.5709,-7.5709,-7.5709,-7.5709,-7.5709,-7.5709,-7.5709,-7.5709,-7.5709,-7.5709,-7.5709,-7.5709,-7.5709,-7.5709,-8.8863,-8.8055,-8.6977,-8.5294,-8.456,-8.3953,-8.3218,-8.2585,-8.2186,-8.2186,-8.2186,-8.1929,-8.1195,-8.1122,-8.0791,-7.9984,-7.9103,-7.8259,-7.7457,-7.7347,-7.7273,-7.7273,-7.7273,-7.7273,-7.7273,-7.7273,-7.7273,-7.7273,-7.7273,-7.7273,-7.7273,-7.7273,-7.7273,-7.7273,-7.7273,-7.7273,-7.7273,-7.7273,-7.7273,-7.7273,-7.7273,-7.7273,-7.7273,-7.7273,-7.7273,-7.7273,-7.7273,-7.7273,-7.7273,-7.7273,-7.7273,-7.7273,-7.7273,-7.7273,-7.7273,-7.7273,-7.7273,-7.7273,-7.7273,-7.7273,-7.7273,-7.7273,-7.7273,-7.7273,-7.7273,-7.7273,-7.7273,-7.7273,-7.7273,-7.7273,-7.7273,-7.7273,-7.7273,-7.7273,-7.7273,-7.7273,-7.7273,-7.7273,-7.7273,-7.7273,-7.7273,-7.731,-7.7384,-7.7371,-7.7559,-7.8015,-7.892,-7.8864,-7.7528,-7.964,-8.0035,-7.8186,-7.9481,-8.0209,-8.0209,-8.0209,-7.987,-7.9194,-7.8382,-7.7638,-7.6961,-7.6082,-7.5709,-7.5709,-7.5709,-7.5709,-7.5709,-7.5709,-7.5709,-7.5709,-7.5709,-7.5709,-7.5709,-7.5709,-7.5709,-7.5709,-8.8979,-8.8556,-8.7578,-8.4871,-8.4276,-8.3772,-8.2585,-8.2279,-8.2186,-8.2186,-8.2186,-8.2113,-8.1966,-8.1929,-8.1636,-8.0828,-7.9433,-7.8516,-7.8332,-7.7708,-7.7273,-7.7273,-7.7273,-7.7273,-7.7273,-7.7273,-7.7273,-7.7273,-7.7273,-7.7273,-7.7273,-7.7273,-7.7273,-7.7273,-7.7273,-7.7273,-7.7273,-7.7273,-7.7273,-7.7273,-7.7273,-7.7273,-7.7273,-7.7273,-7.7273,-7.7273,-7.7273,-7.7273,-7.7273,-7.7273,-7.7273,-7.7273,-7.7273,-7.7273,-7.7273,-7.7273,-7.7273,-7.7273,-7.7273,-7.7273,-7.7273,-7.7273,-7.7273,-7.7273,-7.7273,-7.7273,-7.7273,-7.7273,-7.7273,-7.7273,-7.7273,-7.7273,-7.7273,-7.7273,-7.7273,-7.7273,-7.7273,-7.7273,-7.7273,-7.7273,-7.7273,-7.7598,-7.8259,-7.9421,-8.0094,-8.0007,-7.9441,-7.8966,-7.8659,-7.8646,-7.885,-7.9235,-7.9858,-8.0209,-8.0209,-8.0209,-8.0107,-7.9938,-7.8619,-7.7908,-7.7705,-7.6318,-7.5709,-7.5709,-7.5709,-7.5709,-7.5709,-7.5709,-7.5709,-7.5709,-7.5709,-7.5709,-7.5709,-7.5709,-7.5709,-7.5709,-8.906,-8.8156,-8.6975,-8.4627,-8.3928,-8.3378,-8.2343,-8.2186,-8.2186,-8.2186,-8.2186,-8.2311,-8.2647,-8.2407,-8.198,-8.1501,-8.0051,-7.9142,-7.9054,-7.7922,-7.7273,-7.7273,-7.7273,-7.7273,-7.7273,-7.7273,-7.7273,-7.7273,-7.7273,-7.7273,-7.731,-7.7745,-7.7708,-7.731,-7.7745,-7.7708,-7.7273,-7.7273,-7.7273,-7.7273,-7.7273,-7.7273,-7.7273,-7.7273,-7.7273,-7.7273,-7.7273,-7.7273,-7.7273,-7.7273,-7.7273,-7.7273,-7.7273,-7.7273,-7.7273,-7.7273,-7.7273,-7.7273,-7.7273,-7.7273,-7.7273,-7.7273,-7.7273,-7.7273,-7.7273,-7.7273,-7.7273,-7.7273,-7.7273,-7.7273,-7.7273,-7.7273,-7.7273,-7.7273,-7.7273,-7.7273,-7.7273,-7.7273,-7.7273,-7.7273,-7.7273,-7.7818,-7.9029,-8.0277,-8.111,-8.1332,-8.0366,-7.9536,-7.9023,-7.9365,-7.9612,-7.9658,-8.1067,-8.1569,-8.1014,-8.1014,-8.0755,-8.0175,-7.8686,-7.7976,-7.7942,-7.6386,-7.5709,-7.5709,-7.5709,-7.5709,-7.5709,-7.5709,-7.5709,-7.5709,-7.5709,-7.5709,-7.5709,-7.5709,-7.5709,-7.5709,-8.8861,-8.747,-8.6078,-8.4331,-8.357,-8.2965,-8.2279,-8.2186,-8.2186,-8.2186,-8.2186,-8.2434,-8.3103,-8.2793,-8.2503,-8.2389,-8.1022,-8.003,-7.9725,-7.8308,-7.7457,-7.731,-7.7273,-7.7273,-7.7273,-7.7273,-7.7273,-7.7273,-7.742,-7.7494,-7.7561,-7.8405,-7.8369,-7.753,-7.8295,-7.8112,-7.7273,-7.7273,-7.7273,-7.7273,-7.7273,-7.7273,-7.7273,-7.7273,-7.7273,-7.7273,-7.7273,-7.7273,-7.7273,-7.7273,-7.7273,-7.7273,-7.7273,-7.7273,-7.7273,-7.7273,-7.7273,-7.7273,-7.7273,-7.7273,-7.7273,-7.7273,-7.7273,-7.7273,-7.7273,-7.7273,-7.7273,-7.7273,-7.7273,-7.7273,-7.7273,-7.7273,-7.7273,-7.7273,-7.7273,-7.7273,-7.7273,-7.7273,-7.7273,-7.7273,-7.753,-7.8259,-7.9653,-8.0645,-8.1489,-8.215,-8.1195,-8.0182,-7.9302,-8.0592,-8.0901,-7.9982,-8.2337,-8.3147,-8.2198,-8.2014,-8.1427,-8.0492,-7.8921,-7.8111,-7.7942,-7.6386,-7.5709,-7.5709,-7.5709,-7.5709,-7.5709,-7.5709,-7.5709,-7.5709,-7.5709,-7.5709,-7.5709,-7.5709,-7.5709,-7.5709,-8.8145,-8.714,-8.5924,-8.3732,-8.3275,-8.2965,-8.2279,-8.2186,-8.2186,-8.2186,-8.2186,-8.2434,-8.3103,-8.3651,-8.3916,-8.3904,-8.2563,-8.1391,-8.0581,-7.9194,-7.8112,-7.731,-7.7273,-7.7273,-7.7273,-7.7273,-7.7273,-7.7273,-7.8075,-7.8405,-7.8442,-7.925,-7.9176,-7.8442,-7.8552,-7.8112,-7.7273,-7.7273,-7.7273,-7.7273,-7.7273,-7.7273,-7.7273,-7.7273,-7.7273,-7.7273,-7.7273,-7.7273,-7.7273,-7.7273,-7.7273,-7.7273,-7.7273,-7.7273,-7.7273,-7.7273,-7.7273,-7.7273,-7.7273,-7.7273,-7.7273,-7.7273,-7.7273,-7.7273,-7.7273,-7.7273,-7.7273,-7.7273,-7.7273,-7.7273,-7.7273,-7.7273,-7.7273,-7.7273,-7.7273,-7.7273,-7.7273,-7.7273,-7.7273,-7.7273,-7.8589,-7.9543,-7.9764,-8.1158,-8.2076,-8.2186,-8.1195,-8.0514,-8.0403,-8.0954,-8.1201,-8.1076,-8.2722,-8.3536,-8.3372,-8.2391,-8.1816,-8.1676,-7.9805,-7.8619,-7.7942,-7.6386,-7.5709,-7.5709,-7.5709,-7.5709,-7.5709,-7.5709,-7.5709,-7.5709,-7.5709,-7.5709,-7.5709,-7.5709,-7.5709,-7.5709,-8.7328,-8.5825,-8.4451,-8.3413,-8.2913,-8.256,-8.2251,-8.2186,-8.2186,-8.2186,-8.2186,-8.2585,-8.3651,-8.4349,-8.4696,-8.4696,-8.3047,-8.1968,-8.1918,-8.0274,-7.9103,-7.8699,-7.8699,-7.8699,-7.8699,-7.8699,-7.8699,-7.8699,-7.8626,-7.8589,-7.8626,-7.9874,-8.0021,-7.9286,-7.9727,-7.925,-7.8038,-7.8038,-7.7781,-7.7273,-7.7273,-7.7273,-7.7273,-7.7273,-7.7273,-7.7273,-7.7273,-7.7273,-7.7273,-7.7273,-7.7273,-7.7273,-7.7273,-7.7273,-7.7273,-7.7273,-7.7273,-7.7273,-7.7273,-7.7273,-7.7273,-7.7273,-7.7273,-7.742,-7.7928,-7.8038,-7.7892,-7.7384,-7.7273,-7.7273,-7.7273,-7.7273,-7.7273,-7.7273,-7.7273,-7.7273,-7.7273,-7.7273,-7.7273,-7.7273,-7.8772,-7.98,-7.98,-8.1269,-8.2186,-8.2186,-8.1195,-8.0623,-8.0623,-8.1653,-8.2245,-8.2245,-8.4333,-8.5162,-8.4573,-8.3415,-8.2527,-8.1875,-8.0005,-7.872,-7.7942,-7.686,-7.6115,-7.5709,-7.5709,-7.5709,-7.5709,-7.5709,-7.5709,-7.5709,-7.5709,-7.5709,-7.5709,-7.5709,-7.5709,-7.5709]},{"header":{"parameterUnit":"m.s-1","parameterCategory":1,"la1":30.6,"la2":28.766,"lo1":-90.7593,"lo2":-88.6598,"dx":0.0162,"dy":0.0183,"nx":116,"ny":114,"refTime":"2022-11-28T18:00:00:Z","depth":0,"parameterNumber":3,"parameterNumberName":"V-component_of_WINDS"},"data":[0.0,0.0,0.0,0.0,0.0,0.0,0.0,0.0,0.0,0.0,0.0,0.0,0.0,0.0,0.0,0.0,0.0,0.0,0.0,0.0,0.0,0.0,0.0,0.0,0.0,0.0,0.0,0.0,0.0,0.0,0.0,0.0,0.0,0.0,0.0,0.0,0.0,0.0,0.0,0.0,0.0,0.0,0.0,0.0,0.0,0.0,0.0,0.0,0.0,0.0,0.0,0.0,0.0,0.0,0.0,0.0,0.0,0.0,0.0,0.0,0.0,0.0,0.0,0.0,0.0,0.0,0.0,0.0,0.0,0.0,0.0,0.0,0.0,0.0,0.0,0.0,0.0,0.0,0.0,0.0,0.0,0.0,0.0,0.0,0.0,0.0,0.0,0.0,0.0,0.0,0.0,0.0,0.0,0.0,0.0,0.0,0.0,0.0,0.0,0.0,0.0,0.0,0.0,0.0,0.0,0.0,0.0,0.0,0.0,0.0,0.0,0.0,0.0,0.0,0.0,0.0,0.0,0.0,0.0,0.0,0.0,0.0,0.0,0.0,0.0,0.0,0.0,0.0,0.0,0.0,0.0,0.0,0.0,0.0,0.0,0.0,0.0,0.0,0.0,0.0,0.0,0.0,0.0,0.0,0.0,0.0,0.0,0.0,0.0,0.0,0.0,0.0,0.0,0.0,0.0,0.0,0.0,0.0,0.0,0.0,0.0,0.0,0.0,0.0,0.0,0.0,0.0,0.0,0.0,0.0,0.0,0.0,0.0,0.0,0.0,0.0,0.0,0.0,0.0,0.0,0.0,0.0,0.0,0.0,0.0,0.0,0.0,0.0,0.0,0.0,0.0,0.0,0.0,0.0,0.0,0.0,0.0,0.0,0.0,0.0,0.0,0.0,0.0,0.0,0.0,0.0,0.0,0.0,0.0,0.0,0.0,0.0,0.0,0.0,0.0,0.0,0.0,0.0,0.0,0.0,0.0,0.0,0.0,0.0,0.0,0.0,0.0,0.0,0.0,0.0,0.0,0.0,0.0,0.0,0.0,0.0,0.0,0.0,0.0,0.0,0.0,0.0,0.0,0.0,0.0,0.0,0.0,0.0,0.0,0.0,0.0,0.0,0.0,0.0,0.0,0.0,0.0,0.0,0.0,0.0,0.0,0.0,0.0,0.0,0.0,0.0,0.0,0.0,0.0,0.0,0.0,0.0,0.0,0.0,0.0,0.0,0.0,0.0,0.0,0.0,0.0,0.0,0.0,0.0,0.0,0.0,0.0,0.0,0.0,0.0,0.0,0.0,0.0,0.0,0.0,0.0,0.0,0.0,0.0,0.0,0.0,0.0,0.0,0.0,0.0,0.0,0.0,0.0,0.0,0.0,0.0,0.0,0.0,0.0,0.0,0.0,0.0,0.0,0.0,0.0,0.0,0.0,0.0,0.0,0.0,0.0,0.0,0.0,0.0,0.0,0.0,0.0,0.0,0.0,0.0,0.0,0.0,0.0,0.0,0.0,0.0,0.0,0.0,0.0,0.0,0.0,0.0,0.0,0.0,0.0,0.0,0.0,0.0,0.0,0.0,0.0,0.0,0.0,0.0,0.0,0.0,0.0,0.0,0.0,0.0,0.0,0.0,0.0,0.0,0.0,0.0,0.0,0.0,0.0,0.0,0.0,0.0,0.0,0.0,0.0,0.0,0.0,0.0,0.0,0.0,0.0,0.0,0.0,0.0,0.0,0.0,0.0,0.0,0.0,0.0,0.0,0.0,0.0,0.0,0.0,0.0,0.0,0.0,0.0,0.0,0.0,0.0,0.0,0.0,0.0,0.0,0.0,0.0,0.0,0.0,0.0,0.0,0.0,0.0,0.0,0.0,0.0,0.0,0.0,0.0,0.0,0.0,0.0,0.0,0.0,0.0,0.0,0.0,0.0,0.0,0.0,0.0,0.0,0.0,0.0,0.0,0.0,0.0,0.0,0.0,0.0,0.0,0.0,0.0,0.0,0.0,0.0,0.0,0.0,0.0,0.0,0.0,0.0,0.0,0.0,0.0,0.0,0.0,0.0,0.0,0.0,0.0,0.0,0.0,0.0,0.0,0.0,0.0,0.0,0.0,0.0,0.0,0.0,0.0,0.0,0.0,0.0,0.0,0.0,0.0,0.0,0.0,0.0,0.0,0.0,0.0,0.0,0.0,0.0,0.0,0.0,0.0,0.0,0.0,0.0,0.0,0.0,0.0,0.0,0.0,0.0,0.0,0.0,0.0,0.0,0.0,0.0,0.0,0.0,0.0,0.0,0.0,0.0,0.0,0.0,0.0,0.0,0.0,0.0,0.0,0.0,0.0,0.0,0.0,0.0,0.0,0.0,0.0,0.0,0.0,0.0,0.0,0.0,0.0,0.0,0.0,0.0,0.0,0.0,0.0,0.0,0.0,0.0,0.0,0.0,0.0,0.0,0.0,0.0,0.0,0.0,0.0,0.0,0.0,0.0,0.0,0.0,0.0,0.0,0.0,0.0,0.0,0.0,0.0,0.0,0.0,0.0,0.0,0.0,0.0,0.0,0.0,0.0,0.0,0.0,0.0,0.0,0.0,0.0,0.0,0.0,0.0,0.0,0.0,0.0,0.0,0.0,0.0,0.0,0.0,0.0,0.0,0.0,0.0,0.0,0.0,0.0,0.0,0.0,0.0,0.0,0.0,0.0,0.0,0.0,0.0,0.0,0.0,0.0,0.0,0.0,0.0,0.0,0.0,0.0,0.0,0.0,0.0,0.0,0.0,0.0,0.0,0.0,0.0,0.0,0.0,0.0,0.0,0.0,0.0,0.0,0.0,0.0,0.0,0.0,0.0,0.0,0.0,0.0,0.0,0.0,0.0,0.0,0.0,0.0,0.0,0.0,0.0,0.0,0.0,0.0,0.0,0.0,0.0,0.0,0.0,0.0,0.0,0.0,0.0,0.0,0.0,0.0,0.0,0.0,0.0,0.0,0.0,0.0,0.0,0.0,0.0,0.0,0.0,0.0,0.0,0.0,0.0,0.0,0.0,0.0,0.0,0.0,0.0,0.0,0.0,0.0,0.0,0.0,0.0,0.0,0.0,0.0,0.0,0.0,0.0,0.0,0.0,0.0,0.0,0.0,0.0,0.0,0.0,0.0,0.0,0.0,0.0,0.0,0.0,0.0,0.0,0.0,0.0,0.0,0.0,0.0,0.0,0.0,0.0,0.0,0.0,0.0,0.0,0.0,0.0,0.0,0.0,0.0,0.0,0.0,0.0,0.0,0.0,0.0,0.0,0.0,0.0,0.0,0.0,0.0,0.0,0.0,0.0,0.0,0.0,0.0,0.0,0.0,0.0,0.0,0.0,0.0,0.0,0.0,0.0,0.0,0.0,0.0,0.0,0.0,0.0,0.0,0.0,0.0,0.0,0.0,0.0,0.0,0.0,0.0,0.0,0.0,0.0,0.0,0.0,0.0,0.0,0.0,0.0,0.0,0.0,0.0,0.0,0.0,0.0,0.0,0.0,0.0,0.0,0.0,0.0,0.0,0.0,0.0,0.0,0.0,0.0,0.0,0.0,0.0,0.0,0.0,0.0,0.0,0.0,0.0,0.0,0.0,0.0,0.0,0.0,0.0,0.0,0.0,0.0,0.0,0.0,0.0,0.0,0.0,0.0,0.0,0.0,0.0,0.0,0.0,0.0,0.0,0.0,0.0,0.0,0.0,0.0,0.0,0.0,0.0,0.0,0.0,0.0,0.0,0.0,0.0,0.0,0.0,0.0,0.0,0.0,0.0,0.0,0.0,0.0,0.0,0.0,0.0,0.0,0.0,0.0,0.0,0.0,0.0,0.0,0.0,0.0,0.0,0.0,0.0,0.0,0.0,0.0,0.0,0.0,0.0,0.0,0.0,0.0,0.0,0.0,0.0,0.0,0.0,0.0,0.0,0.0,0.0,0.0,0.0,0.0,0.0,0.0,0.0,0.0,0.0,0.0,0.0,0.0,0.0,0.0,0.0,0.0,0.0,0.0,0.0,0.0,0.0,0.0,0.0,0.0,0.0,0.0,0.0,0.0,0.0,0.0,0.0,0.0,0.0,0.0,0.0,0.0,0.0,0.0,0.0,0.0,0.0,0.0,0.0,0.0,0.0,0.0,0.0,0.0,0.0,0.0,0.0,0.0,0.0,0.0,0.0,0.0,0.0,0.0,0.0,0.0,0.0,0.0,0.0,0.0,0.0,0.0,0.0,0.0,0.0,0.0,0.0,0.0,0.0,0.0,0.0,0.0,0.0,0.0,0.0,0.0,0.0,0.0,0.0,0.0,0.0,0.0,0.0,0.0,0.0,0.0,0.0,0.0,0.0,0.0,0.0,0.0,0.0,0.0,0.0,0.0,0.0,0.0,0.0,0.0,0.0,0.0,0.0,0.0,0.0,0.0,0.0,0.0,0.0,0.0,0.0,0.0,0.0,0.0,0.0,0.0,0.0,0.0,0.0,0.0,0.0,0.0,0.0,0.0,0.0,0.0,0.0,0.0,0.0,0.0,0.0,0.0,0.0,0.0,0.0,0.0,0.0,0.0,0.0,0.0,0.0,0.0,0.0,0.0,0.0,0.0,0.0,0.0,0.0,0.0,0.0,0.0,0.0,0.0,0.0,0.0,0.0,0.0,0.0,0.0,0.0,0.0,0.0,0.0,0.0,0.0,0.0,0.0,0.0,0.0,0.0,0.0,0.0,0.0,0.0,0.0,0.0,0.0,0.0,0.0,0.0,0.0,0.0,0.0,0.0,0.0,0.0,0.0,0.0,0.0,0.0,0.0,0.0,0.0,0.0,0.0,0.0,0.0,0.0,0.0,0.0,0.0,0.0,0.0,0.0,0.0,0.0,0.0,0.0,0.0,0.0,0.0,0.0,0.0,0.0,0.0,0.0,0.0,0.0,0.0,0.0,0.0,0.0,0.0,0.0,0.0,0.0,0.0,0.0,0.0,0.0,0.0,0.0,0.0,0.0,0.0,0.0,0.0,0.0,0.0,0.0,0.0,0.0,0.0,0.0,0.0,0.0,0.0,0.0,0.0,0.0,0.0,0.0,0.0,0.0,0.0,0.0,0.0,0.0,0.0,0.0,0.0,0.0,0.0,0.0,0.0,0.0,0.0,0.0,0.0,0.0,0.0,0.0,0.0,0.0,0.0,0.0,0.0,0.0,0.0,0.0,0.0,0.0,0.0,0.0,0.0,0.0,0.0,0.0,0.0,0.0,0.0,0.0,0.0,0.0,0.0,0.0,0.0,0.0,0.0,0.0,0.0,0.0,0.0,0.0,0.0,0.0,0.0,0.0,0.0,0.0,0.0,0.0,0.0,0.0,0.0,0.0,0.0,0.0,0.0,0.0,0.0,0.0,0.0,0.0,0.0,0.0,0.0,0.0,0.0,0.0,0.0,0.0,0.0,0.0,0.0,0.0,0.0,0.0,0.0,0.0,0.0,0.0,0.0,0.0,0.0,0.0,0.0,0.0,0.0,0.0,0.0,0.0,0.0,0.0,0.0,0.0,0.0,0.0,0.0,0.0,0.0,0.0,0.0,0.0,0.0,0.0,0.0,0.0,0.0,0.0,0.0,0.0,0.0,0.0,0.0,0.0,0.0,0.0,0.0,0.0,0.0,0.0,0.0,0.0,0.0,0.0,0.0,0.0,0.0,0.0,0.0,0.0,0.0,0.0,0.0,0.0,0.0,0.0,0.0,0.0,0.0,0.0,0.0,0.0,0.0,0.0,0.0,0.0,0.0,0.0,0.0,0.0,0.0,0.0,0.0,0.0,0.0,0.0,0.0,0.0,0.0,0.0,0.0,0.0,0.0,0.0,0.0,0.0,0.0,0.0,0.0,0.0,0.0,0.0,0.0,0.0,0.0,0.0,0.0,0.0,0.0,0.0,0.0,0.0,0.0,0.0,0.0,0.0,0.0,0.0,0.0,0.0,0.0,0.0,0.0,0.0,0.0,0.0,0.0,0.0,0.0,0.0,0.0,0.0,0.0,0.0,0.0,0.0,0.0,0.0,0.0,0.0,0.0,0.0,0.0,0.0,0.0,0.0,0.0,0.0,0.0,0.0,0.0,0.0,0.0,0.0,3.1612,2.9101,0.0,0.0,0.0,0.0,0.0,0.0,0.0,0.0,0.0,0.0,0.0,0.0,0.0,0.0,0.0,0.0,0.0,0.0,0.0,0.0,0.0,0.0,0.0,0.8757,0.9051,0.932,0.9443,0.0,0.0,0.0,0.0,0.0,0.0,0.0,0.0,0.0,1.4854,1.566,1.6365,1.7316,1.8478,1.6447,1.4404,1.2507,0.0,0.0,0.0,0.0,0.0,0.0,0.0,0.0,0.0,0.0,0.0,0.0,0.0,0.0,0.0,0.0,0.0,0.0,0.0,0.0,0.0,0.0,0.0,0.0,0.0,0.0,0.0,0.0,0.0,0.0,0.0,0.0,0.0,0.0,0.0,0.0,0.0,0.0,0.0,0.0,0.0,0.0,0.0,0.0,0.0,0.0,0.0,0.0,0.0,0.0,0.0,0.0,0.0,0.0,0.0,0.0,0.0,0.0,0.0,0.0,0.0,0.0,0.0,0.0,0.0,0.0,0.0,0.0,0.0,0.0,3.5662,3.3488,0.0,0.0,0.0,0.0,0.0,0.0,0.0,0.0,0.0,0.0,0.0,0.0,0.0,0.0,0.0,0.0,0.0,0.0,0.0,0.0,0.0,0.8374,0.8465,0.8757,0.8885,0.8885,0.92,0.9446,0.9554,1.0828,0.0,0.0,0.0,0.0,1.5595,1.5835,1.6432,1.7383,1.9454,2.1291,2.2876,2.1598,1.9421,1.6554,1.5821,0.0,0.0,0.0,0.0,0.0,0.0,0.0,0.0,0.0,0.0,0.0,0.0,0.0,0.0,0.0,0.0,0.0,0.0,0.0,0.0,0.0,0.0,0.0,0.0,0.0,0.0,0.0,0.0,0.0,0.0,0.0,0.0,0.0,0.0,0.0,0.0,0.0,0.0,0.0,0.0,0.0,0.0,0.0,0.0,0.0,0.0,0.0,0.0,0.0,0.0,0.0,0.0,0.0,0.0,0.0,0.0,0.0,0.0,0.0,0.0,0.0,0.0,0.0,3.8166,3.922,3.9519,3.9817,4.0085,4.0416,4.0416,3.9003,3.6707,3.5936,0.0,0.0,0.0,0.0,0.0,0.0,0.0,0.0,0.0,0.0,0.0,0.0,0.0,0.0,0.0,0.0,0.0,0.0,0.0,0.8374,0.8465,0.8757,0.8885,0.8885,0.8975,0.9182,0.9731,1.0452,0.0,0.0,0.0,1.4604,1.4755,1.5982,1.7691,1.9979,2.2692,2.4149,2.4388,2.4548,2.4561,2.4274,1.9715,1.8348,1.9274,0.0,0.0,0.0,0.0,0.0,0.0,0.0,0.0,0.0,0.0,0.0,0.0,0.0,0.0,0.0,0.0,0.0,0.0,0.0,0.0,0.0,0.0,0.0,0.0,0.0,0.0,0.0,0.0,0.0,0.0,0.0,0.0,0.0,0.0,0.0,0.0,0.0,0.0,0.0,0.0,0.0,2.3763,2.3204,0.0,0.0,0.0,0.0,0.0,0.0,0.0,0.0,0.0,0.0,0.0,0.0,0.0,3.2782,3.3306,3.4373,3.5658,3.715,3.968,4.1599,4.3056,4.4597,4.5335,4.5349,4.5349,0.0,3.9405,3.9659,0.0,0.0,0.0,0.0,0.0,0.0,0.0,0.0,0.0,0.0,0.0,0.0,0.0,0.0,0.0,0.0,0.0,0.0,0.0,0.0,0.0,0.9771,1.0642,1.0642,1.0758,1.0904,1.1045,1.054,0.0,0.0,1.2884,1.41,1.4609,1.6138,1.8821,2.257,2.5275,2.7089,2.815,2.802,2.8727,3.0002,2.6068,2.4052,2.3355,2.0739,0.0,0.0,0.0,0.0,0.0,0.0,0.0,0.0,0.0,0.0,0.0,0.0,0.0,0.0,0.0,0.0,0.0,0.0,0.0,0.0,0.0,0.0,0.0,0.0,0.0,0.0,0.0,0.0,0.0,0.0,0.0,0.0,0.0,0.0,0.0,0.0,0.0,0.0,0.0,2.4574,2.5941,2.5753,2.6906,2.7445,0.0,0.0,0.0,0.0,0.0,0.0,0.0,0.0,0.0,3.3474,3.3772,3.4199,3.4883,3.6208,3.7291,3.8054,4.1148,4.2958,4.3793,4.5525,4.6301,4.6301,4.6301,4.5253,4.3407,4.2418,4.1276,4.0144,0.0,0.0,0.0,0.0,3.8931,3.9338,0.0,0.0,0.0,0.0,0.0,0.0,0.0,0.0,0.0,0.0,0.0,0.0,0.8635,1.0811,1.2194,1.2093,1.2387,1.2413,1.2041,1.0604,0.9932,1.0287,1.2269,1.3661,1.423,1.7395,2.0757,2.4423,2.7337,2.9231,3.0235,2.9977,3.0891,3.274,3.1127,2.9384,2.7427,2.4731,2.2706,2.1047,0.0,0.0,0.0,0.0,0.0,0.0,0.0,0.0,0.0,0.0,0.0,0.0,0.0,0.0,0.0,0.0,0.0,0.0,0.0,0.0,0.0,0.0,0.0,0.0,0.0,0.0,0.0,0.0,0.0,0.0,0.0,0.0,0.0,0.0,0.0,0.0,0.0,2.6591,2.8043,2.8208,2.9524,3.0221,0.0,0.0,0.0,0.0,0.0,0.0,3.2422,3.2795,3.3658,3.5019,3.5039,3.5351,3.6016,3.7307,3.8154,3.8597,4.1158,4.2643,4.3083,4.4374,4.522,4.5671,4.5671,4.5853,4.6155,4.4744,4.337,4.2272,4.2452,4.2195,4.1739,4.1923,4.2091,4.2378,0.0,0.0,0.0,0.0,0.0,0.0,0.0,0.0,0.0,0.0,0.0,0.8798,0.9146,1.1355,1.2734,1.2431,1.2656,1.2673,1.224,1.0433,0.9357,0.9306,1.1882,1.3342,1.3342,2.0241,2.4238,2.5078,2.8907,3.0001,2.8564,2.9177,3.0113,3.1212,3.2815,3.28,3.1327,2.846,2.6389,2.4747,2.1345,0.0,0.0,0.0,0.0,0.0,0.0,0.0,0.0,0.0,0.0,0.0,0.0,0.0,0.0,0.0,0.0,0.0,0.0,0.0,0.0,0.0,0.0,0.0,0.0,0.0,0.0,0.0,0.0,0.0,0.0,0.0,0.0,0.0,0.0,0.0,0.0,0.0,0.0,2.9704,3.102,0.0,0.0,0.0,0.0,3.1002,3.2361,3.33,3.3692,3.5056,3.585,3.5957,3.5957,3.5976,3.6016,3.6084,3.6991,3.8597,3.8795,3.9693,4.1309,4.1437,4.2328,4.3855,4.3855,4.4767,4.6351,4.6706,4.652,4.6145,4.7109,4.7208,4.6611,4.5746,4.575,4.6124,0.0,0.0,0.0,0.0,0.0,0.7077,0.7827,0.7667,0.7717,0.8319,0.875,0.911,0.9415,1.1616,1.3037,1.3088,1.3229,1.311,1.2798,1.0815,0.9776,1.0091,1.2338,1.4679,1.7158,2.1322,2.3598,2.3847,2.6474,2.7513,2.7146,2.7895,2.9305,3.1269,3.2159,3.3945,3.6042,3.3989,3.1735,2.9287,2.6073,2.2845,0.0,0.0,0.0,0.0,0.0,0.0,0.0,0.0,0.0,0.0,0.0,0.0,0.0,0.0,0.0,0.0,0.0,0.0,0.0,0.0,0.0,0.0,0.0,0.0,0.0,0.0,0.0,0.0,0.0,0.0,0.0,0.0,0.0,0.0,0.0,0.0,0.0,3.1524,3.3133,0.0,3.3198,3.3312,3.3586,3.3823,3.4576,3.5085,3.5239,3.5734,3.6016,3.6016,3.6016,3.6016,3.6016,3.6016,3.6336,3.6924,3.8088,3.8927,3.9562,4.0666,4.1659,4.2532,4.3726,4.4759,4.5712,4.7495,4.7657,4.6903,4.7631,4.7782,4.762,4.7658,4.778,4.7954,0.0,0.0,0.0,0.6872,0.6632,0.6716,0.7534,0.7543,0.7713,0.8419,0.8977,0.9462,0.9863,1.1971,1.3492,1.3604,1.3688,1.3578,1.3135,1.1293,1.0386,1.0883,1.3441,1.6494,1.9874,2.2129,2.3245,2.3245,2.5192,2.5977,2.5707,2.5742,2.7158,2.9645,3.0267,3.3284,3.7801,3.7743,3.6484,3.4178,3.0384,2.6714,2.3327,0.0,0.0,0.0,0.0,0.0,0.0,0.0,0.0,0.0,0.0,0.0,0.0,0.0,0.0,0.0,0.0,0.0,0.0,0.0,0.0,0.0,0.0,0.0,0.0,0.0,0.0,0.0,0.0,0.0,0.0,0.0,0.0,0.0,0.0,3.1107,3.2955,3.3217,3.4525,3.5273,3.4961,3.5215,3.5449,3.5586,3.5859,3.6016,3.6016,3.6016,3.6016,3.6016,3.6016,3.6016,3.6016,3.6016,3.6016,3.6016,3.7193,3.7791,3.8001,3.916,4.0189,4.122,4.2495,4.346,4.4435,4.6673,4.7252,4.6871,4.8008,4.836,4.8259,4.8837,4.9063,4.9063,0.0,0.5437,0.5409,0.5263,0.5682,0.6063,0.6117,0.6941,0.7798,0.8435,0.9163,0.9849,1.0439,1.2566,1.3891,1.3763,1.3982,1.3772,1.3105,1.1713,1.1118,1.1644,1.5285,1.8505,2.1046,2.276,2.3556,2.3542,2.5389,2.5613,2.4251,2.2889,2.3666,2.6132,2.741,3.0998,3.635,3.9249,4.0184,3.9232,3.4194,3.0761,2.8246,0.0,0.0,0.0,0.0,0.0,0.0,0.0,0.0,0.0,0.0,0.0,0.0,0.0,0.0,0.0,0.0,0.0,0.0,0.0,0.0,0.0,0.0,0.0,0.0,0.0,0.0,0.0,0.0,0.0,0.0,0.0,0.0,0.0,3.2581,3.3058,3.3671,3.4595,3.5137,3.541,3.541,3.541,3.5586,3.5996,3.6016,3.6016,3.6016,3.6035,3.6035,3.6035,3.6055,3.6055,3.6035,3.6035,3.6035,3.6016,3.6035,3.6269,3.668,3.668,3.7846,3.9866,3.9935,4.0868,4.2527,4.4417,4.5438,4.6156,4.8605,4.9264,4.8862,4.9389,4.959,4.959,0.5493,0.5768,0.6033,0.6005,0.6111,0.6388,0.683,0.7133,0.761,0.8396,0.934,1.0092,1.0691,1.1599,1.2178,1.2338,1.2257,1.1982,1.1509,1.116,1.2131,1.4849,1.7964,2.0309,2.1737,2.2615,2.288,2.2438,2.3121,2.2671,2.1071,2.1117,2.2294,2.4372,2.5869,2.9747,3.5184,3.6572,3.8116,3.9607,3.828,3.5998,3.3131,0.0,0.0,0.0,0.0,0.0,0.0,0.0,0.0,0.0,0.0,0.0,0.0,0.0,0.0,0.0,0.0,0.0,0.0,0.0,0.0,0.0,0.0,0.0,0.0,0.0,0.0,0.0,0.0,0.0,0.0,0.0,3.098,3.2908,3.2656,3.3851,3.4929,3.5195,3.5586,3.5859,3.5859,3.5859,3.5898,3.6016,3.6016,3.6016,3.6016,3.6328,3.6484,3.6484,3.6797,3.6797,3.6484,3.6484,3.6328,3.6016,3.6348,3.6562,3.668,3.6992,3.7626,3.8496,3.986,4.0932,4.1764,4.3622,4.4459,4.4912,4.7881,4.9163,4.9389,4.954,4.959,4.959,0.499,0.5458,0.598,0.594,0.5967,0.6102,0.6439,0.6704,0.7253,0.8311,0.9175,1.007,1.0995,1.1341,1.1579,1.1809,1.1619,1.1377,1.1216,1.2369,1.4729,1.8337,2.0501,2.153,2.1361,2.1747,2.1158,1.9675,1.9979,1.9681,1.8812,1.8497,1.9798,2.2388,2.3232,2.7097,3.3013,3.4193,3.6493,3.9382,3.9482,3.7655,3.4875,3.5135,3.3749,3.1543,3.058,2.9849,2.8992,2.7208,0.0,0.0,0.0,0.0,0.0,0.0,0.0,0.0,0.0,0.0,0.0,0.0,0.0,0.0,0.0,0.0,0.0,0.0,0.0,0.0,0.0,0.0,0.0,0.0,3.285,3.4375,3.4042,3.4998,3.5664,3.5664,3.5879,3.6094,3.6269,3.6289,3.6289,3.6289,3.6465,3.6484,3.6309,3.6699,3.6934,3.6934,3.7168,3.7187,3.6934,3.6934,3.6816,3.6562,3.6816,3.7031,3.7207,3.7441,3.7793,3.8256,3.9363,3.9932,4.03,4.2171,4.294,0.0,0.0,0.0,0.0,0.0,4.959,4.959,0.4223,0.4828,0.548,0.5398,0.5451,0.5508,0.5508,0.6049,0.6971,0.8245,0.8759,0.9592,1.1264,1.1337,1.1405,1.1743,1.1701,1.172,1.1976,1.461,1.7805,2.1452,2.2294,2.202,2.0545,2.0332,1.8982,1.6516,1.6887,1.7136,1.7191,1.5786,1.7037,2.0393,2.029,2.3873,3.0041,3.184,3.4754,3.8174,3.8358,3.7031,3.5129,3.6247,3.4749,3.2057,3.2684,3.1943,3.0697,3.0507,0.0,0.0,0.0,0.0,0.0,0.0,0.0,0.0,0.0,0.0,0.0,0.0,0.0,0.0,0.0,0.0,0.0,0.0,0.0,0.0,0.0,0.0,0.0,0.0,3.4845,3.6016,3.6016,3.6016,3.6016,3.6016,3.6016,3.6191,3.6621,3.668,3.668,3.6738,3.709,3.7129,3.6758,3.7148,0.0,0.0,0.0,3.7422,3.7363,3.7363,3.7344,3.7305,3.7344,3.7559,3.793,3.7969,3.8203,3.8574,3.8574,3.8574,3.872,4.03,4.1134,4.1679,4.5366,4.6798,4.7022,4.8893,4.959,4.959,0.4249,0.4807,0.548,0.5398,0.5451,0.5508,0.5508,0.6049,0.7,0.836,0.7712,0.8256,1.1206,1.0311,1.0029,1.1683,1.1701,1.2389,1.413,1.5774,1.8173,2.1433,2.1322,2.1067,2.0816,1.9221,1.796,1.7057,1.749,1.6923,1.5371,1.5387,1.643,1.8342,1.9714,2.2579,2.6593,2.8393,3.0823,3.3538,3.4978,3.6708,3.8521,3.8426,3.7995,3.7188,3.5724,3.4993,3.445,3.2667,3.1439,3.0493,2.9531,2.8415,0.0,0.0,0.0,0.0,0.0,0.0,0.0,0.0,0.0,0.0,0.0,0.0,0.0,0.0,0.0,0.0,0.0,0.0,0.0,3.3283,3.4845,3.6016,3.6016,3.6016,3.6016,3.6016,3.6016,3.6191,3.6621,3.668,3.6816,3.7148,3.7246,3.7266,3.7187,3.7578,3.7812,3.7812,3.8144,3.8164,3.7812,3.7812,3.7637,3.7305,0.0,0.0,3.793,3.8281,3.8496,3.8574,3.8574,3.8574,3.8647,3.8991,3.9962,4.1679,4.5366,4.6798,4.7022,4.8893,4.959,4.959,0.4254,0.494,0.559,0.541,0.5815,0.604,0.564,0.6223,0.7011,0.7961,0.7377,0.7568,0.9318,0.9375,0.9509,1.0004,1.0991,1.2467,1.4497,1.5569,1.7338,2.0106,1.9933,1.9192,1.814,1.7109,1.5912,1.4369,1.4813,1.4522,1.3581,1.3908,1.5447,1.809,1.8696,2.1512,2.5824,2.6517,2.8309,3.075,3.1769,3.326,3.5218,3.8179,3.8636,3.7635,3.7197,3.6456,3.5726,3.5043,3.4062,3.3077,3.2898,3.172,2.9966,0.0,0.0,0.0,0.0,0.0,0.0,0.0,0.0,0.0,0.0,0.0,0.0,0.0,0.0,3.1791,3.2516,0.0,3.4452,3.4595,3.5385,3.6016,3.6016,3.6016,3.6016,3.6016,3.6211,3.6523,3.6953,3.7168,3.7383,3.7598,3.7812,3.7851,3.7617,3.8008,3.8242,3.8242,3.8457,3.8476,3.8242,3.8242,3.8144,3.7949,3.8144,3.8242,3.8262,3.8476,3.8574,3.8574,3.8574,3.8574,3.8574,3.8574,3.9136,4.0228,4.2966,4.5163,4.6979,4.8154,4.9248,5.0042,0.4593,0.5252,0.5729,0.5475,0.6094,0.6414,0.5739,0.6228,0.6878,0.7457,0.7062,0.69,0.7391,0.8411,0.9004,0.8734,1.0484,1.2429,1.4318,1.5168,1.6536,1.8772,1.8425,1.7309,1.5395,1.4549,1.3118,1.1076,1.136,1.1629,1.1752,1.2306,1.4453,1.7864,1.7847,2.0491,2.5054,2.5095,2.6588,2.8818,2.9121,2.9743,3.0963,3.5922,3.6725,3.5295,3.6101,3.5831,3.5187,3.596,3.5636,3.498,3.5762,3.4632,3.2533,3.0012,2.7571,0.0,0.0,0.0,0.0,0.0,0.0,0.0,0.0,3.0183,3.091,3.2106,3.2842,3.3614,3.4751,3.5254,3.5625,3.5957,3.6016,3.6016,3.6016,3.6094,3.6152,3.6152,3.6465,3.6875,3.7363,3.7734,3.7969,3.8047,3.8379,3.8418,3.8066,3.8379,3.8574,3.8574,3.8574,3.8574,3.8574,3.8574,3.8574,3.8574,3.8574,3.8574,3.8574,3.8574,3.8574,3.8574,3.8574,3.8574,3.8574,3.8574,3.8773,3.9208,4.0474,4.3189,4.652,4.7397,4.867,5.0157,0.5633,0.5786,0.5843,0.5588,0.5767,0.5898,0.5765,0.5912,0.6385,0.7447,0.5838,0.5386,0.7284,0.7228,0.7888,1.0058,1.1177,1.2589,1.4469,1.5342,1.6715,1.8866,1.7229,1.6043,1.5514,1.1895,0.9796,0.9223,0.9451,0.9574,0.9747,1.1784,1.3781,1.5932,1.755,1.9489,2.1595,2.3255,2.5229,2.7292,2.7583,2.8913,3.0755,3.1087,3.0907,3.0411,3.0156,3.0979,3.2441,3.2881,3.4029,3.5391,3.5879,3.5802,3.4844,3.1105,2.9309,2.7698,2.4007,2.4435,2.6111,2.7036,2.8806,3.0443,0.0,3.2132,3.3028,3.3505,3.4681,3.5685,3.5792,3.5918,3.5957,3.6016,3.6016,3.6016,3.6016,3.6348,3.6601,3.6601,3.6641,3.6992,3.7773,3.7891,3.8086,3.8476,3.8555,3.8555,3.8496,3.8555,3.8574,3.8574,3.8574,3.8574,3.8574,3.8574,3.8574,3.8574,3.8574,3.8574,3.8574,3.8574,3.8574,3.8574,3.8574,3.8574,3.8574,3.8574,3.955,4.0891,3.9825,4.1647,4.5161,4.704,4.8052,4.88,0.5754,0.5399,0.5158,0.5694,0.6133,0.6081,0.5065,0.5794,0.6531,0.6646,0.5313,0.4524,0.4899,0.5204,0.6663,0.9711,1.0636,1.1552,1.2787,1.3499,1.4367,1.5601,1.4823,1.4199,1.3871,1.1041,0.931,0.8899,0.7816,0.8092,0.9563,1.0442,1.2668,1.5805,1.6368,1.8225,2.1117,2.1751,2.3301,2.541,2.566,2.6355,2.7188,2.7174,2.6998,2.6833,2.7523,2.8202,0.0,2.9493,3.0835,3.2533,3.3948,3.4015,3.3073,3.0751,2.8544,2.6428,2.4367,2.452,2.5757,2.8163,2.9575,3.0937,3.2943,3.3975,3.4614,3.4969,3.5539,3.6016,3.6016,3.6016,3.6016,3.6016,3.623,3.6406,3.6406,3.6777,3.7129,3.7363,3.7402,3.7539,3.7891,3.8164,3.8379,3.8555,3.8574,3.8574,3.8574,3.8574,3.8574,3.8574,3.8574,3.8574,3.8574,3.8574,3.8574,3.8574,3.8574,3.8574,3.8574,3.8828,3.8945,3.8926,3.8691,3.8574,3.8574,3.8574,3.9202,4.0004,3.9416,4.0438,4.249,4.4467,4.6033,4.7254,0.5432,0.4872,0.4561,0.4991,0.5847,0.6067,0.4915,0.5807,0.6491,0.6006,0.5065,0.4252,0.3899,0.449,0.6178,0.9228,1.0141,1.0839,1.1511,1.2189,1.2766,1.3214,1.3234,1.3098,1.28,1.0152,0.8563,0.8182,0.621,0.6469,0.8828,0.9337,1.1573,1.5209,1.5405,1.7065,1.9767,2.0631,2.1971,2.3598,2.4414,2.4756,2.4783,2.4997,2.4688,2.4176,2.5268,2.5838,2.6215,2.6125,2.7352,2.9059,3.0478,3.0691,3.025,2.8959,2.6858,2.4826,2.4148,2.4469,2.5761,2.8873,3.0377,3.1762,3.4441,3.5332,3.5644,3.5957,3.6016,3.6016,3.6016,3.6113,3.6191,3.6191,3.6562,3.6836,3.6836,3.7207,3.7578,3.7891,3.8027,3.8105,3.8105,3.8398,3.8574,3.8574,3.8574,3.8574,3.8574,3.8574,3.8574,3.8574,3.8574,3.8574,3.8574,3.8574,3.8574,3.8574,3.8691,3.875,3.875,3.9062,3.9141,3.9004,3.8711,3.8574,3.8594,3.8691,3.92,3.9937,3.9676,4.0243,4.1403,4.2467,4.4039,4.5757,0.4648,0.4438,0.413,0.3264,0.4367,0.5536,0.579,0.5916,0.5916,0.5921,0.4983,0.4651,0.5626,0.5842,0.6806,0.9051,1.0114,1.0907,1.1369,1.223,1.2922,1.3376,1.3397,1.3254,1.2963,0.8898,0.668,0.6368,0.4247,0.4457,0.6843,0.8696,1.0907,1.3396,1.505,1.5819,1.6182,2.0016,2.1578,2.1912,2.4181,2.5064,2.5064,2.5077,2.411,2.2604,2.2447,2.359,2.4875,2.3079,2.3866,2.558,2.5233,2.608,2.6846,2.5479,2.4596,2.3884,2.3147,2.4718,2.7031,2.8946,3.1288,3.3619,3.5549,3.5996,3.5996,3.6016,3.6016,3.6016,3.6016,3.6367,3.666,3.666,3.7012,3.7285,3.7285,3.7637,3.791,3.793,3.8301,3.8555,3.8555,3.8574,3.8574,3.8574,3.8574,3.8574,3.8574,3.8574,3.8574,3.8574,3.8574,3.8574,3.8574,3.8574,3.8574,3.8574,3.8984,3.918,3.918,3.9199,3.8984,3.8594,3.8574,3.8574,3.8613,3.9004,4.0245,4.1834,4.0873,4.157,4.3019,4.1728,4.2463,4.4452,0.4636,0.3908,0.3584,0.3867,0.4309,0.506,0.65,0.6628,0.6403,0.5978,0.5022,0.0,0.0,0.0,0.0,0.0,0.8871,0.9615,1.0293,1.147,1.2332,1.2786,1.3091,1.2495,1.0925,0.8029,0.5786,0.4199,0.3478,0.4298,0.6601,0.8611,1.0741,1.2874,1.3476,1.4446,1.571,1.7007,1.8345,1.9715,2.048,2.0815,2.0793,2.0624,2.0513,2.0127,0.0,1.8868,1.9622,1.9029,2.0014,2.173,2.266,2.3457,2.3853,2.2984,2.2979,2.3296,2.3423,2.4238,2.5484,2.7601,2.8814,2.9916,3.1808,3.324,3.4158,3.4158,3.4315,3.4554,3.4554,3.4914,3.5268,3.5268,3.663,3.7715,3.7715,3.8086,3.8359,3.8359,3.8476,3.8574,3.8574,3.8574,3.8574,3.8574,3.8574,3.8574,3.8574,3.8574,3.8574,3.8574,3.8574,3.8574,3.8574,3.8574,3.8574,3.8574,3.9004,3.9355,3.9648,3.9336,3.9121,3.8965,3.8691,3.873,3.9004,3.9141,3.9904,4.0983,4.0619,4.1067,4.1842,4.1346,4.1618,4.2273,0.0,0.0,0.0,0.4115,0.4437,0.0,0.0,0.0,0.0,0.0,0.0,0.0,0.0,0.0,0.0,0.0,0.0,0.8952,0.9602,1.076,1.1681,1.2237,1.2488,1.1862,1.0131,0.7577,0.5388,0.3607,0.2499,0.3555,0.6522,0.7856,0.9935,1.2725,1.2671,1.3283,1.4475,1.5157,1.6294,1.7578,1.8176,1.8414,1.8374,1.8132,1.8124,0.0,1.6654,1.6108,1.61,1.6012,1.701,1.8538,1.9394,2.0565,2.1651,2.1854,2.2418,2.3166,2.3768,2.4062,2.4698,2.6924,2.7505,2.7996,2.9884,3.1245,3.2386,3.3101,3.3019,3.3038,3.3669,3.3866,3.4006,3.4421,3.5971,3.7253,3.7819,3.8164,3.8398,3.8555,3.8574,3.8574,3.8574,3.8574,3.8574,3.8574,3.8574,3.8574,3.8574,3.8574,3.8574,3.8574,3.8574,3.8574,3.8574,3.8574,3.873,3.9043,3.9473,3.9824,4.0117,3.9805,3.959,3.9434,3.916,3.9199,3.9453,3.9609,4.0,4.0547,4.0684,4.0918,4.1172,4.1172,4.1172,4.1172,0.0,0.0,0.0,0.0,0.0,0.0,0.0,0.0,0.0,0.0,0.0,0.0,0.0,0.0,0.0,0.0,0.0,0.0,0.926,1.0202,1.1023,1.1742,1.1667,1.1247,1.0515,0.7467,0.5475,0.4583,0.1745,0.2406,0.649,0.6497,0.8632,1.2507,1.2367,1.2383,1.2461,1.4428,1.526,1.5387,1.7099,1.7802,1.7762,1.746,1.6827,1.604,1.5872,1.5277,1.4508,1.4237,1.512,1.6297,1.5987,1.792,2.0588,2.2151,2.301,2.3614,2.4048,2.4209,2.4711,2.6852,2.736,2.7852,2.9599,3.0097,3.0664,3.2525,3.1809,3.1478,3.3311,3.3161,3.3155,3.4301,3.5238,3.627,3.7747,3.7969,3.8105,3.8535,3.8574,3.8574,3.8574,3.8574,3.8574,3.8574,0.0,3.8574,3.8574,3.8574,3.8574,3.8574,3.8574,3.8574,3.8574,3.8594,3.9043,3.9902,4.0332,4.0527,4.0527,4.0527,4.0293,3.9902,3.9902,3.9902,3.9961,4.0351,4.0527,4.0605,4.1016,4.1172,4.1172,4.1172,4.1172,4.1172,0.0,0.0,0.0,0.0,0.0,0.0,0.0,0.0,0.0,0.0,0.0,0.0,0.0,0.0,0.0,0.0,0.0,0.0,0.811,0.9526,1.0575,1.0982,1.1287,1.0657,0.8942,0.7513,0.5951,0.4251,0.4611,0.5327,0.6474,0.7965,0.9234,1.0349,1.0314,1.0275,1.0426,1.1356,1.181,1.1972,1.2881,1.3233,1.321,1.3059,1.3129,1.3243,1.3469,1.3665,1.4034,1.5309,1.6775,1.8499,2.0981,2.2315,2.3228,2.4752,2.5505,2.5509,2.4449,2.4369,2.4616,2.5185,2.5359,2.5492,2.5918,2.7201,2.8341,2.8844,2.9163,2.9862,3.1443,3.2313,3.3314,3.4743,3.6537,3.7991,3.8398,3.8418,3.8457,3.8555,3.8574,3.8574,3.8574,3.8574,3.8574,3.8574,3.8574,3.8574,3.8574,3.8574,3.8574,3.8574,3.8574,3.8574,3.8574,3.8887,3.9336,3.9902,4.0332,4.0527,4.0527,4.0527,4.0293,3.9902,3.9902,4.0078,4.0371,4.0469,4.0723,4.1016,4.1133,4.1172,4.1172,4.1172,4.1172,4.1172,0.0,0.0,0.0,0.0,0.0,0.0,0.0,0.0,0.0,0.0,0.0,0.0,0.0,0.0,0.0,0.0,0.0,0.0,0.0,0.9166,1.012,1.0348,1.0602,1.006,0.8706,0.7761,0.6473,0.4724,0.5384,0.5951,0.6342,0.7808,0.8926,0.9788,0.9788,0.9858,0.9963,1.0615,1.0809,0.0,0.0,1.1416,1.1396,1.1179,1.1453,1.2037,1.2319,1.3828,1.5968,1.7462,1.874,2.016,2.2782,2.3636,2.383,2.5015,2.5398,2.5399,2.4593,2.4516,2.4636,2.4636,2.4636,2.4449,2.3801,2.4934,2.6099,2.6357,2.6653,2.7661,3.0275,3.115,3.2158,3.4473,3.6223,3.749,3.8189,3.8281,3.8359,3.8555,3.8574,3.8574,3.8574,3.8574,3.8574,3.8574,3.8574,3.8574,3.8574,3.8574,3.8574,3.8574,3.8574,3.8574,3.8574,3.9199,3.9629,3.9902,4.0527,4.0801,4.0801,4.0801,4.0684,4.0449,4.0449,4.0586,4.0801,4.0801,4.0957,4.1172,4.1172,4.1172,4.1172,4.1172,4.1172,4.1172,0.0,0.0,0.0,0.0,0.0,0.0,0.0,0.0,0.0,0.0,0.481,0.0,0.0,0.0,0.0,0.0,0.0,0.0,0.0,0.0,0.9734,0.9943,0.989,0.9638,0.9206,0.8149,0.7037,0.5992,0.5527,0.5705,0.6477,0.688,0.8148,0.9886,0.9817,0.9826,0.9958,1.0766,1.0786,1.028,1.0846,1.1152,1.1077,0.0,1.115,1.1703,1.1925,1.474,1.8433,1.9625,2.0683,2.1777,2.3367,2.3934,2.4069,2.4585,2.4707,2.4661,2.4697,2.4663,2.4636,2.4636,2.4636,2.4261,2.279,2.3237,2.4088,2.441,2.4358,2.5386,2.9321,2.9876,3.0749,3.3992,3.5294,3.6361,3.7806,3.8008,3.8144,3.8535,3.8574,3.8574,3.8574,3.8574,3.8574,3.8574,3.8574,3.8574,3.8574,3.8574,3.8574,3.8574,3.8574,3.8613,3.8652,3.9473,3.9922,3.998,4.0781,4.1172,4.1172,4.1172,4.1172,4.1172,4.1172,4.1172,4.1172,4.1172,4.1172,4.1172,4.1172,4.1172,4.1172,4.1172,4.1172,4.1172,0.0,0.0,0.0,0.0,0.0,0.0,0.0,0.0,0.0,0.0,0.6467,0.5376,0.0,0.0,0.0,0.0,0.0,0.0,0.0,0.0,0.0,0.9849,0.9836,0.9775,0.9673,0.9045,0.8637,0.8385,0.7852,0.7612,0.7732,0.7387,0.7637,0.8421,0.7966,0.7817,0.7998,0.9127,0.9365,0.9114,1.0193,1.0683,1.0806,1.088,1.0907,0.0,1.1891,1.431,1.7339,1.8957,2.151,2.4375,2.6444,2.7261,2.757,2.7613,2.7452,2.6967,2.5419,2.4823,2.4636,2.4636,2.4636,2.4261,2.279,2.2654,2.2784,2.2637,2.2769,2.3967,2.7055,2.94,3.167,3.4124,3.6161,3.7753,3.8398,3.8457,3.8496,3.8555,3.8574,3.8574,3.8574,3.8574,3.8574,3.8574,3.8574,3.8574,3.8574,3.8574,3.8574,3.8574,3.8574,3.875,3.9082,3.9629,4.0078,4.041,4.0937,4.1172,4.1172,4.1172,4.1172,4.1172,4.1172,0.0,4.1172,4.1172,4.1172,4.1172,4.1172,4.1172,4.1172,4.1172,4.1172,4.123,0.0,0.0,0.0,0.0,0.0,0.0,0.0,0.8168,0.822,0.9166,0.8544,0.7182,0.5161,0.6096,0.6858,0.0,0.0,0.0,0.0,0.0,0.0,0.9815,0.9822,0.9856,0.9876,0.9634,0.9431,0.9194,0.0,0.8904,0.8323,0.8322,0.8231,0.8161,0.7842,0.7552,0.7436,0.8762,0.905,0.8733,1.0069,1.0704,1.0779,1.0853,1.1043,0.0,1.2088,1.3858,1.6025,1.7112,1.9635,2.2657,2.4953,2.6253,2.6771,2.6136,2.6157,2.6248,2.5377,2.4863,2.4636,2.4636,2.4636,2.4074,2.1874,2.1849,2.2028,2.097,2.134,2.2889,2.6036,2.7865,2.9748,3.2386,3.4017,3.5513,3.688,3.7292,3.7667,3.8482,3.8574,3.8574,3.8574,3.8574,3.8574,3.8574,3.8574,3.8574,3.8574,3.8789,3.8906,3.8906,3.9141,3.9238,3.9199,3.9883,4.0332,4.0527,4.0976,4.1172,4.1172,4.1172,4.1172,4.1172,4.1172,4.1172,4.1172,4.1172,4.1172,4.1172,4.1172,4.1172,4.1172,4.1172,4.1308,4.1523,0.0,0.0,0.0,0.0,0.0,0.0,0.0,0.7164,0.7913,0.9938,1.026,0.907,0.6093,0.7396,0.7996,0.0,0.0,0.0,0.0,0.0,0.0,0.0,0.0,0.0,0.9984,0.0,0.0,0.9605,1.0082,0.0,0.0,0.0,0.0,0.0,0.8417,0.8097,0.7626,0.9033,0.9306,0.0,0.0,1.0812,1.0887,0.0,0.0,0.0,0.0,1.3222,1.4571,1.5435,1.7282,1.965,2.1761,2.3488,2.4572,2.3868,2.4214,2.4776,2.5002,2.4863,2.4636,2.4636,2.4636,2.3888,2.1051,2.1078,2.1293,1.9772,2.0028,2.1546,2.4936,2.5998,2.7185,2.994,3.1282,3.2861,3.5166,3.5915,3.6762,3.8443,3.8574,3.8574,3.8574,3.8574,3.8574,3.8574,3.8652,3.8711,3.8711,3.9023,3.9258,3.9355,3.9609,3.9668,3.9492,4.0176,4.0566,4.0664,4.1016,4.1172,4.1172,4.1172,4.1172,4.1172,4.1172,4.1172,4.1172,4.1172,4.1172,4.1172,4.1172,4.1172,4.1191,4.1269,4.1523,4.1836,0.0,0.0,0.0,0.0,0.0,0.0,0.0,0.671,0.7937,0.9924,1.0753,1.0763,0.9882,0.9527,0.9257,0.0,0.0,0.0,0.0,0.0,0.0,0.0,0.0,0.0,0.0,0.0,0.0,1.024,1.0283,0.0,0.0,0.0,0.0,0.0,0.0,0.8875,0.8399,0.9646,0.0,0.0,0.0,0.0,0.0,0.0,0.0,0.0,0.0,1.2252,1.3244,1.4829,1.5938,1.6933,1.8056,2.0157,2.24,2.3405,2.3591,2.3694,2.4776,2.4863,2.4636,2.4636,2.4636,2.3888,2.1051,2.05,2.0362,1.9644,1.8843,1.9329,2.2898,2.4164,2.5374,2.7286,2.9638,3.2106,3.4484,3.5349,3.6474,3.8404,3.8574,3.8574,3.8574,3.8574,3.8574,3.8574,3.8926,3.9141,3.9141,3.918,3.9394,3.9824,3.9453,3.9629,4.0391,4.0488,4.0723,4.1113,4.1152,4.1172,4.1172,4.1172,4.1172,4.1172,4.1172,4.1172,0.0,4.1172,4.1172,4.1172,4.1172,4.1172,4.1211,4.1601,4.1758,4.1914,0.0,0.0,0.0,0.0,0.0,0.0,0.4203,0.5048,0.6438,0.8497,0.9941,1.0638,1.026,1.0404,1.0101,0.9027,0.0,0.0,0.0,0.0,0.0,0.0,0.0,0.0,0.0,0.0,1.0439,1.0683,1.0683,0.0,0.0,0.0,0.0,0.0,0.0,0.9192,0.858,0.9514,0.0,0.0,0.0,0.0,0.0,0.0,0.0,0.0,0.0,0.0,1.2194,1.2783,1.3576,1.4473,1.4723,1.6055,1.8069,2.122,2.2724,2.3543,2.4776,2.4863,2.4636,2.4636,2.4636,2.3888,2.1051,2.0428,2.0063,1.8801,1.8703,1.9494,2.1634,2.2868,2.3901,2.5051,2.6709,2.8915,3.2176,3.3372,3.4997,3.7831,3.8184,3.8281,3.8555,3.8574,3.8672,3.8926,3.9609,4.0,4.0,4.0,3.9961,3.9902,4.0215,4.0312,4.0156,4.0664,4.0996,4.1172,4.1172,4.1172,4.1172,4.1172,4.1172,4.1172,4.1172,4.1172,0.0,4.1172,4.1172,4.1172,4.1172,4.1328,4.1562,4.1738,4.2129,4.2617,0.0,0.0,0.0,0.0,0.0,0.3201,0.2759,0.3543,0.4792,0.6674,0.8469,0.9623,0.9467,1.0333,1.0285,0.8676,0.8957,0.0,0.0,0.0,0.0,0.0,0.0,0.0,0.0,0.0,1.0643,1.088,1.088,1.1023,0.0,0.0,1.0574,0.9918,0.0,0.0,0.0,0.0,0.0,0.0,0.0,0.0,0.0,0.0,0.0,0.0,0.0,0.0,0.0,0.0,0.0,1.2699,1.279,1.3382,1.4933,1.9415,2.1412,2.2629,2.4468,2.4796,2.4636,2.4636,2.4275,2.3331,2.0955,2.0082,1.941,1.8156,1.8212,1.9041,2.0861,2.1553,2.231,2.3475,2.5013,2.7046,2.9843,3.1583,3.3596,3.6148,3.6918,3.735,3.7731,3.8389,3.8945,3.9375,4.0098,4.0586,4.0703,4.0723,4.0527,4.0098,4.0547,4.0566,4.0078,4.0801,4.1172,4.1172,4.1172,4.1172,4.1172,4.1172,4.1172,4.1172,4.1172,4.1172,0.0,4.1172,4.1172,4.1172,4.1172,4.1426,4.1816,4.1933,4.2441,4.3105,0.0,0.0,0.0,0.0,0.0,0.0,0.1884,0.238,0.339,0.4563,0.6395,0.7625,0.7625,0.9188,0.9623,0.8135,0.8386,0.0,0.0,0.0,0.0,0.0,0.0,0.0,0.0,0.0,1.0643,1.088,1.088,1.1023,1.1234,1.1227,1.0741,0.9918,0.0,0.0,0.0,0.0,0.0,0.0,0.0,0.0,1.1619,0.0,0.0,0.0,0.0,0.0,0.0,0.0,0.0,0.0,0.0,1.2944,1.3945,1.8359,1.9604,2.0399,2.3732,2.4562,2.4636,2.4636,2.3529,2.2141,2.0703,1.9299,1.8214,1.7984,1.7026,1.7228,2.0584,2.0306,2.0295,2.2516,2.5339,2.7364,2.7846,3.0411,3.2412,3.291,3.4566,3.5706,3.5706,3.7855,3.9394,3.9863,4.0273,0.0,4.1152,4.1172,4.0976,4.0527,4.0117,4.0098,4.0508,4.0957,4.1172,4.1172,4.1172,4.1172,4.1172,4.1172,4.1172,4.1172,4.1172,4.1172,0.0,4.1172,4.1172,4.1172,4.1172,4.1426,4.1855,4.2266,4.2695,4.3144,0.0,0.0,0.0,0.0,0.0,0.0,0.0,0.3104,0.3426,0.3848,0.4872,0.5884,0.6684,0.8107,0.8758,0.8064,0.8459,0.0,0.0,0.0,0.0,0.0,0.0,0.0,0.0,1.0697,1.09,1.1097,1.1199,1.1328,1.147,1.1369,1.1224,1.0961,1.1069,1.0926,0.0,0.0,0.0,0.0,0.0,1.1572,1.1619,0.0,0.0,0.0,0.0,0.0,0.0,0.0,0.0,0.0,0.0,0.0,0.0,1.5636,1.7301,1.8571,2.0466,2.1388,2.1764,2.1764,2.1401,2.0703,1.9299,1.8606,1.799,1.6925,1.7097,1.7721,1.8773,1.9251,2.0134,2.2057,2.35,2.527,2.7702,2.9455,3.1073,3.263,3.4733,3.6632,3.7932,3.9016,3.9844,4.0293,4.0723,4.1035,4.1172,4.0898,4.0664,4.0527,4.0684,4.0684,4.0527,4.0957,4.1172,4.1172,4.1172,4.1172,4.1172,4.1172,4.1172,4.1172,4.1172,4.1172,4.1172,4.1172,4.1172,4.1211,4.1484,4.1855,4.2285,4.2715,4.3144,4.3535,0.0,0.0,0.0,0.0,0.0,0.0,0.0,0.273,0.2621,0.2237,0.2962,0.3977,0.5159,0.6777,0.7674,0.7621,0.8178,0.0,0.0,0.0,0.0,0.0,0.0,0.0,1.0493,1.0738,1.0962,1.1234,1.126,1.1409,1.1619,1.1518,1.145,1.1389,1.1294,1.1219,0.0,0.0,0.0,0.0,1.164,1.1667,1.1619,0.0,0.0,0.0,0.0,0.0,0.0,0.0,0.0,0.0,0.0,0.0,0.0,0.0,1.5147,1.6575,1.8746,1.9826,2.0428,2.0428,1.9998,1.9382,1.8524,1.7918,1.7257,1.6349,1.6744,1.751,1.8352,1.9041,2.0122,2.2077,2.4174,2.5944,2.6974,2.9131,3.1299,3.3109,3.4612,3.6548,3.9187,3.9863,4.0234,4.0508,4.0918,4.1172,4.1172,4.0918,4.0762,4.0762,4.0879,4.0801,4.0527,4.0957,4.1172,4.1172,4.1172,4.1172,4.1172,4.1172,4.1172,4.1172,4.1172,4.1172,0.0,4.1172,4.1269,4.1426,4.1699,4.2148,4.2695,4.2969,4.334,4.3711,0.0,0.0,0.0,0.0,0.0,0.0,0.0,0.1785,0.1386,0.0356,0.1001,0.2011,0.3272,0.5017,0.6326,0.6841,0.0,0.0,0.0,0.0,0.0,0.0,0.0,0.0,1.0572,1.0736,1.0954,1.1303,1.1255,1.1341,1.1619,1.1619,1.1545,1.1409,1.1409,1.1328,0.0,0.0,0.0,1.1633,1.1762,1.1735,0.0,0.0,0.0,0.0,0.0,0.0,0.0,0.0,0.0,0.0,0.0,0.0,0.0,0.0,0.0,0.0,0.0,1.9554,2.0082,2.0082,1.9123,1.8174,1.8174,1.7166,0.0,1.6178,1.6178,1.6885,1.8971,1.939,2.0167,2.25,2.6375,2.8349,2.5953,2.9349,3.2611,3.4108,3.427,3.5797,3.954,4.0293,4.0527,4.0566,4.0937,4.1172,4.1172,4.1172,4.1172,4.1172,4.0781,4.0566,4.0566,4.0976,4.1172,4.1172,4.1172,4.1172,4.1172,4.1172,4.1172,0.0,4.1172,4.1172,4.1172,4.1211,4.1445,4.1816,4.1875,4.2383,4.3086,4.3105,4.3359,4.3711,0.0,0.0,0.0,0.0,0.0,0.0,0.0,0.0,0.0,0.0,0.1287,0.0863,0.1965,0.3056,0.4216,0.0,0.0,0.0,0.0,0.0,0.0,0.0,0.0,0.0,1.1454,1.1731,1.1913,1.1986,1.1678,1.1552,1.1619,1.1619,1.1599,1.1565,1.1565,1.1545,0.0,0.0,1.1619,1.1619,1.1653,1.1647,0.0,0.0,0.0,0.0,1.1619,1.1619,0.0,0.0,0.0,0.0,0.0,0.0,0.0,0.0,1.3465,1.4198,1.5631,0.0,1.7176,1.7176,1.6923,1.6671,0.0,1.6429,1.6178,1.6178,1.6178,1.6603,1.8002,1.8282,1.9175,2.1836,2.4563,2.6337,2.6195,2.9135,3.2577,3.587,3.6201,3.7333,4.0082,4.0469,4.0664,4.0996,4.1113,4.1172,4.1172,4.1172,4.1172,4.1172,4.1074,4.1016,4.1016,4.1113,4.1172,4.1172,4.1172,4.1172,4.1172,4.1172,4.1172,4.1172,4.1172,4.1172,4.1191,4.1523,4.1699,4.1875,4.2519,4.2891,4.3125,4.3437,4.3613,4.3711,0.0,0.0,0.0,0.0,0.0,0.0,0.0,0.0,0.0,0.0,0.0,0.0,0.0,0.0,0.0,0.0,0.0,0.0,0.0,0.0,0.0,0.0,0.0,1.0864,1.1665,1.1985,1.2118,1.2192,1.1748,1.1552,1.1619,1.1619,1.1619,1.1619,1.1619,1.1619,1.1619,1.1687,1.1681,1.1626,1.1687,0.0,0.0,0.0,0.0,0.0,1.1619,1.1619,0.0,1.1694,1.1674,1.1653,0.0,0.0,0.0,0.0,1.3682,1.411,1.5248,1.596,1.6301,1.6207,1.6254,1.6292,1.6207,1.6178,1.6178,1.6178,1.6178,1.6805,1.8751,1.9259,2.0227,2.3007,2.5596,2.7844,2.9577,3.0916,3.2989,3.6738,3.739,3.8292,0.0,4.0703,4.0918,4.1152,4.1172,4.1172,4.1172,4.1172,4.1172,4.1172,4.1172,4.1172,4.1172,4.1172,4.1172,4.1172,4.1172,4.1172,4.1172,4.1172,4.1172,4.1172,4.1172,4.1289,4.1484,4.1699,4.2031,4.2441,4.2891,4.3203,4.3398,4.3613,4.3711,4.3711,0.0,0.0,0.0,0.0,0.0,0.0,0.0,0.0,0.0,0.0,0.0,0.0,0.0,0.0,0.0,0.0,0.0,0.0,0.0,0.0,0.0,0.0,0.8094,0.985,1.18,1.1962,1.2134,1.2436,1.1769,1.1491,1.1619,1.1619,1.1619,1.1619,1.1619,1.1619,1.1626,1.1748,1.1728,1.1633,1.1748,0.0,0.0,0.0,0.0,0.0,0.0,0.0,0.0,1.1755,1.1714,1.1667,1.1918,0.0,0.0,0.0,0.0,0.0,1.579,1.6377,1.6471,1.6245,1.6311,1.6396,1.6226,1.6178,1.6178,1.6178,1.632,1.7298,2.0167,2.1056,2.2287,2.5066,2.7956,3.0926,3.4091,3.3634,3.4112,3.739,3.8141,0.0,4.0392,4.0918,4.1172,4.1172,4.1172,4.1172,4.1172,4.1172,4.1172,4.1172,4.1172,4.1172,4.1172,4.1172,4.1172,4.1172,4.1172,4.1172,4.1172,4.1172,4.1211,4.1269,0.0,0.0,4.1894,4.1973,4.2422,4.3086,4.3144,4.3398,4.3711,4.3711,4.3711,4.3711,0.0,0.0,0.0,0.0,0.0,0.0,0.0,0.0,0.0,0.0,0.0,0.0,0.0,0.0,0.0,0.0,0.0,0.0,0.0,0.0,0.0,0.5605,0.7895,1.024,1.281,1.2399,1.2582,1.3378,1.2144,1.1599,1.1619,1.1619,1.1619,1.1619,1.1619,1.1619,1.1619,1.164,1.164,1.1619,1.164,0.0,0.0,0.0,0.0,0.0,0.0,0.0,0.0,1.1647,1.164,1.1626,1.1674,0.0,0.0,0.0,0.0,0.0,1.5956,1.6594,1.666,1.6282,1.6207,1.6216,1.6188,1.6178,1.6178,1.6178,1.6956,1.8336,2.0614,2.1823,2.3687,2.733,3.0086,3.3108,3.6747,3.6375,3.6494,3.8712,3.9385,3.9907,4.0412,4.0918,4.1172,4.1172,4.1172,4.1172,4.1172,4.1172,4.1172,4.1172,4.1172,4.1172,4.1172,4.1172,4.1172,4.1172,4.1172,4.1172,4.1172,4.1172,4.1367,4.1699,0.0,4.1953,4.2363,4.2734,4.2969,4.3105,4.3476,4.3652,4.3711,4.3711,4.3711,4.3711,0.0,0.0,0.0,0.0,0.0,0.0,0.0,0.0,0.0,0.0,0.0,0.0,0.0,0.0,0.0,0.0,0.0,0.0,0.0,0.0,0.1709,0.5434,0.6639,0.8911,1.2558,1.2382,1.2547,1.313,1.2158,1.1775,1.1857,1.1775,1.1694,1.1619,1.1619,1.1619,1.1619,1.1619,1.1619,1.1619,0.0,0.0,0.0,0.0,0.0,0.0,0.0,0.0,0.0,0.0,1.1619,1.1619,1.1619,0.0,0.0,0.0,0.0,0.0,1.5864,1.6396,1.6616,1.7365,1.7609,1.7804,1.833,1.8441,1.841,1.8283,1.8687,1.9758,2.2186,2.3839,2.6349,3.0684,3.2256,3.3911,3.6948,3.6953,3.7253,3.8973,0.0,4.0215,4.0195,4.0781,4.1172,4.1172,4.1172,4.1172,4.1172,4.1172,4.1172,4.1172,4.1172,4.1172,4.1172,4.1172,4.1172,4.1172,4.1172,4.1289,4.1504,4.1504,4.1738,4.2129,0.0,4.2383,4.2793,4.2988,4.3203,4.3437,4.3633,4.3711,4.3711,4.3711,4.3711,4.3711,0.0,0.0,0.0,0.0,0.0,0.0,0.0,0.0,0.0,0.0,0.0,0.0,0.0,0.0,0.0,0.0,0.0,0.0,0.0,0.065,0.1578,0.5223,0.5524,0.7729,1.2182,1.2204,1.2364,1.2733,1.2175,1.1925,1.2006,1.1884,1.1755,1.1619,1.1619,1.1619,1.1619,1.1619,1.1619,1.1619,0.0,0.0,0.0,0.0,0.0,0.0,0.0,0.0,0.0,0.0,0.0,0.0,0.0,0.0,0.0,1.3476,1.3904,1.4269,1.5809,1.6254,1.6706,1.8643,1.8958,1.9232,2.0941,2.1257,2.1306,2.165,2.1648,2.2274,2.4525,2.6848,2.9592,3.3158,3.4216,3.5263,3.7031,3.731,3.7756,3.9086,3.9902,4.0293,4.0059,4.0723,4.1172,4.1172,4.1172,4.1172,4.1172,4.1172,4.1172,4.1172,4.1172,4.1172,4.1172,4.1172,4.1172,4.1172,4.1172,4.1387,4.1797,4.1797,4.209,4.2578,4.2578,4.2832,4.3223,4.3223,4.3418,4.3711,4.3711,4.3711,4.3711,4.3711,4.3711,4.3711,0.0,0.0,0.0,0.0,0.0,0.0,0.0,0.0,0.0,0.0,0.0,0.0,0.0,0.0,0.0,0.0,0.0,0.0,0.0,0.0656,0.1455,0.4643,0.5433,0.7912,1.2359,1.1952,1.2107,1.2984,1.2342,1.1979,1.1843,1.1837,1.1755,1.1619,1.1619,1.1619,1.1619,1.1619,1.1619,1.1619,1.1619,0.0,0.0,0.0,0.0,0.0,0.0,0.0,0.0,0.0,0.0,0.0,0.0,0.0,1.1907,1.3476,1.3904,1.4294,1.5974,1.6462,1.7135,1.9903,1.9413,1.9321,2.3155,2.3845,2.4291,2.6445,2.6528,2.6597,2.7753,3.0932,3.3355,3.3447,3.6134,3.8312,3.8409,0.0,3.8657,3.916,3.9648,4.0078,4.0449,4.0898,4.1172,4.1172,4.1172,4.1172,4.1172,4.1172,4.1172,4.1172,4.1172,4.1172,4.1172,4.1172,4.1172,4.1172,4.1172,4.1387,4.1797,4.1797,4.2246,4.3027,4.3027,4.3262,4.3652,4.3652,4.3672,4.3711,4.3711,4.3711,4.3711,4.3711,4.3711,4.3711,0.0,0.0,0.0,0.0,0.0,0.0,0.0,0.0,0.0,0.0,0.0,0.0,0.0,0.0,0.0,0.0,0.0,0.0,0.0,0.0219,0.1093,0.349,0.4576,0.6661,1.0078,1.1161,1.2017,1.2564,1.2326,1.2121,1.1972,1.1877,1.1755,1.1619,1.1619,1.1619,1.1619,1.1619,1.1674,1.1742,1.1653,1.1674,0.0,0.0,0.0,0.0,0.0,0.0,0.0,0.0,1.1619,1.1619,1.1619,1.1619,1.1907,1.3476,1.3904,1.4269,1.5845,1.6386,1.7155,2.0083,2.0281,2.1012,2.5593,2.6559,2.7144,2.9337,2.9633,2.9679,3.0326,3.2377,3.4126,3.477,3.6937,3.8574,3.8574,3.8809,3.9023,3.918,3.9844,4.0351,4.0508,0.0,0.0,0.0,4.1172,4.1172,4.1172,4.1172,4.1172,4.1172,4.1172,4.1172,4.1172,4.1172,4.1172,4.1172,4.1426,4.1777,4.2207,4.248,4.291,4.3457,4.3457,4.3555,4.3711,4.3711,4.3711,4.3711,4.3711,4.3711,4.3711,4.3711,4.3711,4.3711,0.0,0.0,0.0,0.0,0.0,0.0,0.0,0.0,0.0,0.0,0.0,0.0,0.0,0.0,0.0,0.0,0.0,0.0,0.0511,0.0219,0.0729,0.2474,0.3925,0.5749,0.7956,1.0018,1.144,1.2216,1.2311,1.2381,1.2356,1.2079,1.1976,1.2049,1.1712,1.1647,1.1681,1.164,1.1674,1.1762,1.1708,1.1714,0.0,0.0,0.0,0.0,0.0,0.0,0.0,0.0,1.1619,1.1619,1.1619,1.1619,1.1835,1.319,1.3793,1.4272,1.556,1.6234,1.7083,1.9569,2.0501,2.1957,2.6595,2.797,2.8918,3.1186,3.1638,3.1803,3.2226,3.35,3.4685,3.5545,3.734,3.8574,3.8574,3.8945,3.9258,0.0,0.0,0.0,0.0,0.0,0.0,0.0,0.0,0.0,0.0,4.1172,4.1172,4.1172,4.1172,4.1172,4.1172,4.1172,4.125,4.1387,4.1797,4.2148,4.2441,4.2871,4.3301,4.3711,4.3711,4.3711,4.3711,4.3711,4.3711,4.3711,4.3711,4.3711,4.3711,4.3711,4.3711,4.3711,0.0,0.0,0.0,0.0,0.0,0.0,0.0,0.0,0.0,0.0,0.0,0.0,0.0,0.0,0.0,0.0,0.0,0.0,0.1677,0.0657,0.0511,0.1677,0.3637,0.5262,0.6588,0.8519,1.0361,1.206,1.2352,1.265,1.3006,1.243,1.2423,1.2991,1.2042,1.1701,1.1823,1.1681,1.1619,1.1633,1.1775,1.1748,1.164,0.0,0.0,0.0,0.0,0.0,0.0,0.0,1.1619,1.1619,1.1619,1.1619,1.1763,1.261,1.3514,1.4374,1.5107,1.5903,1.6875,1.8548,1.9848,2.1882,2.5876,2.7696,2.9334,3.1978,3.2541,3.2809,3.3287,3.4644,3.5653,3.5706,3.734,3.8574,3.8574,3.8945,0.0,0.0,0.0,0.0,0.0,0.0,0.0,0.0,0.0,0.0,0.0,4.1172,4.1172,4.1172,4.1172,4.1172,4.1172,4.1172,4.1387,4.1816,4.2226,4.2441,4.2441,4.2891,4.3301,4.3711,4.3711,4.3711,4.3711,4.3711,4.3711,4.3711,4.3711,4.3711,4.3711,4.3711,4.3711,4.3711,0.0,0.0,0.0,0.0,0.0,0.0,0.0,0.0,0.0,0.0,0.0,0.0,0.0,0.0,0.0,0.0,0.0,0.0,0.1677,0.0657,0.0511,0.1677,0.3057,0.4662,0.6428,0.8993,1.0656,1.1239,1.2449,1.2962,1.3006,1.3417,1.3348,1.2827,1.2685,1.2243,1.1681,1.164,1.1681,1.1769,1.1816,1.1809,1.1775,0.0,0.0,0.0,0.0,0.0,0.0,0.0,0.0,0.0,1.1619,1.2121,1.2764,1.3364,1.4242,1.5081,1.5739,1.7083,1.8559,1.9878,2.1574,2.3453,2.5755,2.7616,2.9988,3.3822,3.3787,3.3409,3.479,3.564,3.5989,3.5743,3.734,3.8672,3.8965,0.0,0.0,0.0,0.0,0.0,0.0,0.0,0.0,0.0,0.0,0.0,0.0,4.1172,4.1172,4.1172,4.1172,4.1308,4.1621,4.1621,4.1816,4.2246,4.2676,4.2891,4.2891,4.332,4.3594,4.3711,4.3711,4.3711,4.3711,4.3711,4.3711,4.3711,4.3711,4.3711,4.3711,4.3711,4.3711,4.3711,0.0,0.0,0.0,0.0,0.0,0.0,0.0,0.0,0.0,0.0,1.1619,1.1619,0.0,0.0,0.0,0.828,0.4654,0.2404,0.2404,0.0875,0.0511,0.1677,0.2841,0.4657,0.705,0.9166,1.0429,1.078,1.237,1.328,1.3344,1.3986,1.3954,1.329,1.324,1.2641,1.1701,1.1701,1.1721,1.1755,1.1877,1.185,1.1762,0.0,0.0,0.0,0.0,0.0,0.0,0.0,0.0,0.0,1.1619,1.2042,1.2627,1.3447,1.479,1.6259,1.7045,1.8744,2.0362,2.122,2.2589,2.4122,2.5791,2.712,2.8901,3.2347,3.2885,3.3283,3.5285,3.6321,3.6884,3.6861,3.7861,3.873,0.0,0.0,0.0,0.0,0.0,0.0,0.0,0.0,0.0,0.0,0.0,0.0,0.0,4.1172,4.1172,4.1172,4.1328,4.1543,4.1797,4.1973,4.2266,4.2695,4.2949,4.3164,4.334,4.3594,4.3711,4.3711,4.3711,4.3711,4.3711,4.3711,4.3711,4.3711,4.3711,4.3711,4.3711,4.3711,4.3711,4.3711,0.0,0.0,0.0,0.0,0.0,0.0,0.0,0.0,0.0,1.1619,1.1619,1.1619,0.0,0.0,0.0,0.9302,0.5891,0.3714,0.3496,0.1385,0.0657,0.1821,0.3136,0.5174,0.7937,0.9086,0.9974,1.0527,1.2339,1.3506,1.3904,1.4391,1.4457,1.414,1.3583,1.2831,1.1882,1.1809,1.1735,1.1647,1.1925,1.187,1.1647,1.1932,0.0,0.0,0.0,0.0,0.0,0.0,0.0,0.0,1.1619,1.1626,1.1976,1.3044,1.5235,1.7531,1.8601,2.0511,2.2295,2.2414,2.3273,2.4519,2.6096,2.6466,2.7073,2.8997,3.0573,3.2392,3.4979,3.6732,3.7889,3.8516,0.0,0.0,0.0,0.0,0.0,0.0,0.0,0.0,0.0,0.0,0.0,0.0,0.0,0.0,0.0,4.1172,4.1172,4.1172,4.1582,4.1816,4.1855,4.2266,4.2695,4.3125,4.3125,4.334,4.3711,4.3711,4.3711,4.3711,4.3711,4.3711,4.3711,4.3711,4.3711,4.3711,4.3711,4.3711,4.3711,4.3711,4.3711,4.3711,0.0,0.0,0.0,0.0,0.0,0.0,0.0,0.0,1.1619,1.1619,1.1619,1.1619,1.1619,1.0822,0.0,0.9374,0.7123,0.5162,0.3569,0.2113,0.1894,0.3059,0.5146,0.6651,0.7317,0.8755,0.9809,1.0443,1.2794,1.389,1.3904,1.5353,1.5569,1.4811,1.4276,1.3463,1.2517,1.1877,1.1647,1.1633,1.1809,1.1775,1.164,1.1816,1.1769,0.0,0.0,0.0,0.0,0.0,0.0,0.0,1.1619,1.2128,1.2794,1.288,1.5402,1.8128,1.819,2.1134,2.4086,2.3926,2.5043,2.6307,2.7001,2.7081,2.7579,2.9086,2.9698,3.102,3.4808,3.5814,3.6552,0.0,0.0,0.0,0.0,0.0,0.0,0.0,0.0,0.0,0.0,0.0,0.0,0.0,0.0,0.0,4.1172,4.1172,4.1172,4.1172,4.1582,4.1953,4.2285,4.2715,4.3144,4.3574,4.3574,4.3613,4.3711,4.3711,4.3711,4.3711,4.3711,4.3711,4.3711,4.3711,4.3711,4.3711,4.3711,4.3711,4.3711,4.3711,4.3711,4.3711,0.0,0.0,0.0,0.0,0.0,0.0,0.0,0.0,1.1694,1.1626,1.1619,1.1592,1.1518,1.0792,0.0,0.0,0.763,0.5705,0.4146,0.255,0.2258,0.3423,0.5823,0.7252,0.7568,0.8793,0.9933,1.0946,1.2971,1.4129,1.4466,1.5884,1.5937,1.4972,1.4536,1.3704,1.276,1.1976,1.1681,1.1633,1.1775,1.1748,1.1633,1.1775,1.1742,1.1619,1.1619,0.0,0.0,0.0,0.0,0.0,0.0,0.0,1.254,1.3333,1.5271,1.753,1.9716,2.2165,2.44,2.5497,2.6398,2.7068,2.7228,2.7268,2.75,2.8269,2.9099,3.0236,3.2201,3.4209,0.0,0.0,0.0,0.0,0.0,0.0,0.0,0.0,0.0,0.0,0.0,0.0,0.0,0.0,0.0,4.1172,4.1172,4.1172,4.1269,4.1465,4.1875,4.2305,4.2734,4.3164,4.3496,4.3711,4.3711,4.3711,4.3711,4.3711,4.3711,4.3711,4.3711,4.3711,4.3711,4.3711,4.3711,4.3711,4.3711,4.3711,4.3711,4.3711,4.3711,4.3711,0.0,0.0,0.0,0.0,0.0,0.0,0.0,0.0,0.0,1.1633,1.1619,1.1558,1.1409,1.0825,1.0324,0.0,0.0,0.0,0.521,0.3488,0.2988,0.3944,0.5977,0.7383,0.7879,0.8919,1.0152,1.1599,1.3111,1.4324,1.5248,1.6062,1.5981,1.5186,1.4569,1.3792,1.293,1.2063,1.1687,1.1592,1.1708,1.1701,1.1633,1.1894,1.1866,1.1835,1.1835,1.1835,1.1835,1.1835,0.0,0.0,0.0,0.0,1.21,1.3602,1.4786,1.6566,2.0537,2.2567,2.417,2.6341,2.7129,2.7348,2.7402,2.7497,2.7402,2.7348,2.84,2.9395,2.9505,0.0,0.0,0.0,0.0,0.0,0.0,0.0,0.0,0.0,0.0,0.0,0.0,0.0,0.0,0.0,0.0,4.1172,4.1172,4.1172,4.1367,4.1797,4.2207,4.2637,4.3066,4.3496,4.3711,4.3711,4.3711,4.3711,4.3711,4.3711,4.3711,4.3711,4.3711,4.3711,4.3711,4.3711,4.3711,4.3711,4.3711,4.3711,4.3711,4.3711,4.3711,4.3711,0.0,0.0,0.0,0.0,0.0,0.0,0.0,0.0,0.0,0.0,1.1619,1.1558,1.1409,1.1318,1.0914,1.0095,0.9842,0.891,0.7069,0.0,0.0,0.6058,0.6744,0.7121,0.7252,0.8666,1.0146,1.1586,1.3103,1.4617,1.6037,1.6207,1.6136,1.5966,1.4597,1.3784,1.3458,1.2073,1.1436,1.1423,1.1443,1.1518,1.1691,1.2424,1.2632,1.261,1.261,1.261,1.261,1.261,1.261,0.0,0.0,0.0,1.2553,1.2093,1.378,1.5847,1.6681,2.0243,2.3972,2.4819,2.6381,2.7709,2.8047,2.8114,2.8033,2.7696,2.7446,2.7748,0.0,0.0,0.0,0.0,0.0,0.0,0.0,0.0,0.0,0.0,0.0,0.0,0.0,0.0,0.0,0.0,4.1172,4.1172,4.1172,4.1172,4.1367,4.1797,4.2207,4.2637,4.3066,4.3496,4.3711,4.3711,4.3711,4.3711,4.3711,4.3711,4.3711,4.3711,4.3711,4.3711,4.3711,4.3711,4.3711,4.3711,4.3711,4.3711,4.3711,4.3711,4.3711,4.3711,0.0,0.0,0.0,0.0,0.0,0.0,0.0,0.0,0.0,0.0,0.0,1.1531,1.1287,1.126,1.1067,1.0577,1.0278,0.9355,0.7554,0.7238,0.6918,0.6447,0.7258,0.7486,0.7047,0.8139,0.9418,1.094,1.2364,1.3932,1.5532,1.5845,1.6065,1.6178,1.5664,1.4991,1.4187,1.3068,1.2647,1.2647,1.2647,1.2858,1.3233,1.3403,1.3594,1.3735,1.3467,1.3396,1.3396,1.3396,1.3396,1.3396,1.3396,0.0,0.0,0.0,1.3481,1.4375,1.5812,2.0054,2.414,2.4611,2.6318,2.7989,2.8194,2.8221,2.8194,2.7976,2.7602,0.0,0.0,0.0,0.0,0.0,0.0,0.0,0.0,0.0,0.0,0.0,0.0,0.0,0.0,0.0,0.0,0.0,4.1172,4.1172,4.1172,4.1172,4.1484,4.2129,4.2324,4.2754,4.3418,4.3613,4.3711,4.3711,4.3711,4.3711,4.3711,4.3711,4.3711,4.3711,4.3711,4.3711,4.3711,4.3711,4.3711,4.3711,4.3711,4.3711,4.3711,4.3711,4.3711,4.3711,0.0,0.0,0.0,0.0,0.0,0.0,0.0,0.0,0.0,0.0,0.0,1.1504,1.1199,0.0,0.0,0.0,1.0477,0.9765,0.8658,0.8385,0.7891,0.7191,0.7774,0.7779,0.699,0.7711,0.8858,1.0365,1.1761,1.3326,1.5026,1.5938,1.6308,1.6178,1.623,1.5686,1.4675,1.3858,1.3563,1.3571,1.366,1.3961,1.4424,1.4513,1.4702,1.4894,1.4527,1.4394,1.4305,1.4214,1.4181,1.4181,1.4181,1.4181,0.0,0.0,0.0,1.3283,1.5102,1.8787,2.2237,2.2872,2.5107,2.7245,2.7486,2.7915,2.8221,0.0,0.0,0.0,0.0,0.0,0.0,0.0,0.0,0.0,0.0,0.0,0.0,0.0,0.0,0.0,0.0,0.0,0.0,0.0,4.1172,4.1172,4.1172,4.1172,4.1562,4.2402,4.2422,4.2832,4.3691,4.3711,4.3711,4.3711,4.3711,4.3711,4.3711,4.3711,4.3711,4.3711,4.3711,4.3711,4.3711,4.3711,4.3711,4.3711,4.3711,4.3711,4.3711,4.3711,4.3711,4.3711,0.0,0.0,0.0,0.0,0.0,0.0,0.0,0.0,0.0,0.0,0.0,1.1504,1.1199,1.1234,1.1043,1.0758,1.0806,1.0946,1.1171,1.0484,0.9758,0.9152,0.8502,0.0,0.699,0.7711,0.8858,1.0365,1.1937,1.3508,1.5026,1.6926,1.7218,1.6178,1.539,1.5,1.4745,1.3802,1.3384,1.3417,1.382,1.4073,1.4375,1.5697,1.6218,1.6183,1.572,1.558,1.5527,1.5077,1.4955,1.4955,1.4955,1.4955,1.4813,0.0,0.0,0.0,1.3424,1.4939,1.6733,1.8161,2.1366,2.4547,2.5654,2.7084,2.8221,2.8221,0.0,0.0,0.0,0.0,0.0,0.0,0.0,0.0,0.0,0.0,0.0,0.0,0.0,0.0,0.0,0.0,0.0,0.0,4.1172,4.1172,4.1172,4.1172,4.1562,4.2402,4.2422,4.2832,4.3691,4.3711,4.3711,4.3711,4.3711,4.3711,4.3711,4.3711,4.3711,4.3711,4.3711,4.3711,4.3711,4.3711,4.3711,4.3711,4.3711,4.3711,4.3711,4.3711,4.3711,4.3711,0.0,0.0,0.0,0.0,0.0,0.0,0.0,0.0,0.0,0.0,0.0,0.0,0.0,1.1234,1.1043,1.0744,1.0941,1.1172,1.1375,1.12,1.0771,1.0095,0.9302,0.8507,0.7711,0.7494,0.8107,0.9538,1.0434,1.1776,1.3444,1.4996,1.5626,1.5452,1.6228,1.6202,1.5492,1.481,1.462,1.4841,1.5237,1.5669,1.6249,1.7718,1.8412,1.8755,1.9135,1.8558,1.7633,1.7402,1.6577,1.5551,1.5551,1.5459,1.5247,1.4605,1.408,1.3652,1.3469,1.5042,1.6744,1.6969,1.9755,2.2808,2.4313,2.5662,2.6974,2.8012,0.0,0.0,0.0,0.0,0.0,0.0,0.0,0.0,0.0,0.0,0.0,0.0,0.0,0.0,0.0,0.0,0.0,0.0,0.0,4.1172,4.1172,4.1172,4.1562,4.2402,4.2422,4.2832,4.3691,4.3711,4.3711,4.3711,4.3711,4.3711,4.3711,4.3711,4.3711,4.3711,4.3711,4.3711,4.3711,4.3711,4.3711,4.3711,4.3711,4.3711,4.3711,4.3711,4.3711,4.3711,0.0,0.0,0.0,0.0,0.0,0.0,0.0,0.0,1.1619,1.1619,0.0,0.0,0.0,0.0,1.1138,1.0887,1.105,1.1226,1.1382,1.1484,1.1201,1.0521,1.0023,0.923,0.814,0.7607,0.7916,0.9122,0.9689,1.0783,1.2432,1.3623,1.4276,1.4638,1.5832,1.6245,1.6012,1.5593,1.5489,1.568,1.6732,1.6967,1.7071,1.9304,2.0067,1.9983,2.0872,2.0493,1.9615,1.9602,1.8467,1.7053,1.6836,1.6244,1.5534,1.5178,1.4718,1.4258,1.3974,1.4803,1.5662,1.5795,1.7723,2.0226,2.2716,2.4303,2.5783,2.7777,0.0,0.0,0.0,0.0,0.0,0.0,0.0,0.0,0.0,0.0,0.0,0.0,0.0,0.0,0.0,0.0,0.0,0.0,0.0,0.0,4.1172,4.1172,4.1562,4.2402,4.2695,4.3125,4.3691,4.3711,4.3711,4.3711,4.3711,4.3711,4.3711,4.3711,4.3711,4.3711,4.3711,4.3711,4.3711,4.3711,4.3711,4.3711,4.3711,4.3711,4.3711,4.3711,4.3711,4.3711,0.0,0.0,0.0,0.0,0.0,0.0,1.1619,1.1619,1.1619,1.1619,0.0,0.0,0.0,0.0,0.0,1.1241,1.1165,1.1233,1.1382,1.1396,1.1173,1.0593,1.0527,0.9801,0.8213,0.8117,0.8419,0.9117,0.9759,1.0875,1.2261,1.3001,1.3441,1.3673,1.401,1.4909,1.615,1.5923,1.5803,1.5864,1.8104,1.7885,1.6706,2.0396,2.088,1.9815,2.0796,2.1307,2.1532,2.1441,2.0511,1.9308,1.8579,1.7067,1.5661,1.586,1.5371,1.4789,0.0,0.0,0.0,1.4314,1.5102,1.6675,2.0776,2.283,2.4711,2.7491,0.0,0.0,0.0,0.0,0.0,0.0,0.0,0.0,0.0,0.0,0.0,0.0,0.0,0.0,0.0,0.0,0.0,0.0,4.1172,4.1172,4.1172,4.1191,4.1562,4.2402,4.3242,4.3691,4.3711,4.3711,4.3711,4.3711,4.3711,4.3711,4.3711,4.3711,4.3711,4.3711,4.3711,4.3711,4.3711,4.3711,4.3711,4.3711,4.3711,4.3711,4.3711,4.3711,4.3711,4.373,0.0,0.0,0.0,0.0,0.0,1.1619,1.1619,1.1619,1.1619,0.0,0.0,0.0,1.1409,1.1294,1.1206,1.1165,1.1267,1.1348,1.1389,1.1497,1.15,1.1325,1.0743,1.0311,0.9873,0.9269,0.9242,0.9765,0.9932,1.0485,1.1281,1.2082,1.2513,1.2743,1.3327,1.4122,1.5009,1.5136,1.5885,1.7042,1.7874,1.8859,2.0051,2.2461,2.3344,2.3516,2.4727,2.4284,2.3166,2.3442,2.1869,1.9614,1.7876,1.6395,1.5366,1.5583,1.5606,1.5487,1.5115,0.0,0.0,0.0,0.0,0.0,0.0,0.0,2.235,0.0,0.0,0.0,0.0,0.0,0.0,0.0,0.0,0.0,0.0,0.0,0.0,0.0,0.0,0.0,0.0,0.0,0.0,0.0,4.1172,4.1172,4.1172,4.1465,4.1875,4.2402,4.2969,4.3398,4.3691,4.3711,4.3711,4.3711,4.3711,4.3711,4.3711,4.3711,4.3711,4.3711,4.3711,4.3711,4.3711,4.3711,4.3711,4.3711,4.3711,4.3711,4.3711,4.3711,4.3926,4.416,0.0,0.0,1.1619,1.1619,1.1667,1.1687,1.1626,1.1667,1.1687,0.0,0.0,0.0,1.1497,1.1409,1.1375,1.1436,1.147,1.1511,1.1572,1.1599,1.1619,1.1619,1.1181,1.0815,1.0527,0.997,0.9842,0.9989,0.9997,1.0246,1.0853,1.1316,1.1603,1.1754,1.2429,1.3222,1.4087,1.4373,1.5253,1.6674,1.8599,1.9591,2.045,2.3612,2.4655,2.4606,2.6017,2.5648,2.4572,2.5177,2.3529,2.103,1.8941,1.7266,1.6057,1.6185,1.6382,1.6381,1.5689,1.531,1.4901,1.4057,0.0,0.0,1.6469,1.8802,0.0,0.0,0.0,0.0,0.0,0.0,0.0,0.0,0.0,0.0,0.0,0.0,0.0,0.0,0.0,0.0,0.0,0.0,0.0,4.1094,4.1172,4.1172,4.1172,4.1562,4.1992,4.2422,4.2851,4.3281,4.3691,4.3711,4.3711,4.3711,4.3711,4.3711,4.3711,4.3711,4.3711,4.3711,4.3711,4.3711,4.3711,4.3711,4.3711,4.3711,4.3711,4.3711,4.3711,4.3711,4.3867,4.4101,0.0,0.0,1.1476,1.1496,1.1676,1.1789,1.166,1.1748,1.1782,0.0,1.1619,1.1619,1.1619,1.1619,1.1674,1.1816,1.1714,1.1694,1.1823,1.1714,1.1633,1.1619,1.1619,1.1253,1.0671,1.0476,1.0352,1.0146,1.0079,1.028,1.0744,1.0731,1.0792,1.0921,1.1445,1.2275,1.3355,1.3652,1.4506,1.5856,1.9681,2.0433,1.9754,2.4329,2.527,2.4326,2.5687,2.5905,2.5772,2.652,2.5179,2.2943,2.1122,1.9175,1.758,1.736,1.7586,1.7621,1.6766,1.6725,1.6683,1.5678,1.4297,0.0,1.7549,1.897,2.0608,0.0,0.0,0.0,0.0,0.0,0.0,0.0,0.0,0.0,0.0,0.0,0.0,0.0,0.0,0.0,0.0,3.7657,3.8724,4.0685,4.1094,4.1172,4.1172,4.1523,4.1953,4.2402,4.2812,4.3223,4.3691,4.3711,4.3711,4.3711,4.3711,4.3711,4.3711,4.3711,4.3711,4.3711,4.3711,4.3711,4.3711,4.3711,4.3711,4.3711,4.3711,4.3711,4.3711,4.3711,4.373,4.3828,0.9613,1.0239,1.0781,1.0894,1.1377,1.1823,1.1796,1.1816,1.1782,1.164,1.1619,1.1619,1.1619,1.1619,1.1674,1.1816,1.1809,1.1803,1.183,1.1803,1.1742,1.1626,1.1619,1.1548,1.1404,1.137,1.1284,1.1137,1.0984,1.0906,1.0833,1.0778,1.0738,1.0765,1.0864,1.1674,1.2929,1.3144,1.4937,1.7774,1.9693,2.1898,2.4352,2.6016,2.66,2.6678,2.6907,2.6814,2.656,2.6493,2.5413,2.3843,2.2312,2.1007,1.9861,1.9049,1.9185,1.9501,1.9016,1.8471,1.783,1.6693,1.5753,0.0,1.4881,1.635,1.8087,0.0,0.0,0.0,0.0,0.0,0.0,0.0,0.0,0.0,0.0,0.0,0.0,0.0,0.0,0.0,0.0,3.5863,3.8054,3.8548,4.0197,4.1172,4.1172,4.125,4.1641,4.2402,4.25,4.293,4.3691,4.3711,4.3711,4.3711,4.3711,4.3711,4.3711,4.3711,4.3711,4.3711,4.3711,4.3711,4.3711,4.3711,4.3711,4.3711,4.3711,4.3711,4.3711,4.3711,4.3945,4.4219,0.9197,0.9977,1.0578,1.0645,1.1382,1.1918,1.1843,1.1898,1.1864,1.1647,1.1619,1.1647,1.1714,1.166,1.1674,1.1816,1.183,1.1864,1.1938,1.187,1.1796,1.1728,1.1728,1.1728,1.1728,1.1803,1.1728,1.1504,1.143,1.1274,1.105,1.09,1.0887,1.1158,1.1189,1.1977,1.3138,1.3436,1.5041,1.7754,1.9923,2.258,2.5335,2.6678,2.7348,2.7482,2.7482,2.7388,2.7188,2.6747,2.599,2.5011,2.4142,2.284,2.1426,2.0625,2.0613,2.0627,1.9738,1.9565,1.9347,1.8369,1.7549,0.0,0.0,1.726,1.8435,1.8792,0.0,0.0,0.0,0.0,0.0,0.0,0.0,0.0,0.0,0.0,0.0,0.0,0.0,0.0,0.0,3.4408,3.7179,3.9374,4.0588,4.1172,4.1172,4.1367,4.1777,4.2402,4.2637,4.3066,4.3691,4.3711,4.3711,4.3711,4.3711,4.3711,4.3711,4.3711,4.3711,4.3711,4.3711,4.3711,4.3711,4.3711,4.3711,4.3711,4.3711,4.3711,4.3711,4.3711,4.3848,4.4043,0.8923,0.9702,1.0363,1.0443,1.1347,1.1972,1.185,1.1938,1.1925,1.1653,1.1667,1.1762,1.1904,1.187,1.1891,1.2033,1.2047,1.2074,1.2142,1.2026,1.1945,1.1918,1.1891,1.1877,1.1877,1.1972,1.1884,1.1619,1.1592,1.1436,1.1227,1.1016,1.1055,1.143,1.1847,1.2504,1.3498,1.422,1.5644,1.7675,2.0585,2.2782,2.4412,2.6365,2.7251,2.7388,2.7615,2.7669,2.7535,2.7001,2.6466,2.5959,2.5491,2.4357,2.3037,2.2195,2.2082,2.1894,2.0553,2.0691,2.0966,1.9969,1.9299,1.8832,0.0,0.0,0.0,0.0,0.0,0.0,0.0,0.0,0.0,0.0,0.0,0.0,0.0,0.0,0.0,0.0,0.0,0.0,0.0,3.2348,3.572,4.0256,4.0376,4.0628,4.1269,4.1621,4.2031,4.2539,4.2891,4.3281,4.3691,4.3711,4.3711,4.3711,4.3711,4.3711,4.3711,4.3711,4.3711,4.3711,4.3711,4.3711,4.3711,4.3711,4.3711,4.3711,4.3711,4.3711,4.3711,4.3711,4.3711,4.375,0.7529,0.8528,0.956,0.9634,1.0816,1.185,1.1837,1.1843,1.1796,1.164,1.185,1.2067,1.2223,1.2454,1.2664,1.282,1.2834,1.2725,1.2467,1.2433,1.2372,1.2244,1.2108,1.2033,1.2033,1.1918,1.1782,1.1619,1.1484,1.1328,1.1227,1.1016,1.09,1.0833,1.2054,1.2773,1.3325,1.5789,1.7784,1.9447,2.219,2.2843,2.2341,2.4389,2.5568,2.6293,2.7335,2.7535,2.7268,0.0,2.66,2.6146,2.5077,2.5135,2.5285,2.3594,2.366,2.403,2.2806,2.2559,2.2343,2.1021,2.0619,2.0163,1.8857,0.0,1.7339,1.7412,0.0,0.0,0.0,0.0,0.0,0.0,0.0,0.0,0.0,0.0,0.0,0.0,0.0,0.0,0.0,0.0,3.2744,3.7903,3.7558,3.8459,4.1562,4.1777,4.2168,4.2969,4.3047,4.3281,4.3691,4.3711,4.3711,4.3711,4.3711,4.3711,4.3711,4.3711,4.3711,4.3711,4.3711,4.3711,4.3711,4.3711,4.3711,4.3711,4.3711,4.3711,4.3711,4.3711,4.3711,4.3711,0.7986,0.9143,1.0236,1.0234,1.1097,1.183,1.183,1.1762,1.1859,1.2322,1.2503,1.2729,1.3259,1.3115,1.3089,1.3247,1.3123,1.2908,1.2779,1.2684,1.2569,1.242,1.2271,1.2155,1.206,1.2088,1.1979,1.1742,1.1681,1.1525,1.1294,1.1145,1.1179,1.1369,1.2879,1.4206,1.5478,1.7448,1.8884,2.0056,2.1476,2.2007,0.0,2.5295,2.6848,2.7377,2.7776,2.7762,2.7522,0.0,2.6947,0.0,2.636,2.5852,2.5077,2.4516,2.4128,2.3728,2.3046,2.2993,2.2881,2.1984,2.1991,2.1808,1.9977,1.9193,1.846,1.7332,0.0,0.0,0.0,0.0,0.0,0.0,1.743,0.0,0.0,0.0,0.0,0.0,0.0,0.0,0.0,0.0,0.0,0.0,0.0,3.8098,4.162,4.2031,4.2441,4.3066,4.332,4.3535,4.3711,4.3711,4.3711,4.3711,4.3711,4.3711,4.3711,4.3711,4.3711,4.3711,4.3711,4.3711,4.3711,4.3711,4.3711,4.3711,4.3711,4.3711,4.3711,4.3711,4.3711,4.3711,0.9137,0.9983,1.0748,1.0682,1.1291,1.1775,1.1775,1.1825,1.2158,1.2844,1.3127,1.36,1.4571,1.4041,1.3699,1.4114,1.3639,1.3554,1.4106,1.3865,1.3742,1.3749,1.3472,1.2977,1.2388,1.2257,1.2101,1.183,1.1789,1.164,1.1389,1.1233,1.1314,1.1664,1.3309,1.4924,1.6467,1.872,1.9947,2.0501,2.1912,2.2868,2.3738,2.6374,2.7669,2.8221,2.8221,2.7949,2.7709,2.7762,2.7068,0.0,2.7001,2.6306,2.5251,2.5304,2.477,2.4048,2.35,2.3447,2.338,2.2605,2.2686,2.2534,2.0923,2.0251,1.9507,1.7761,1.7047,0.0,0.0,0.0,1.5319,1.5319,0.0,1.7805,0.0,0.0,0.0,0.0,0.0,0.0,0.0,0.0,0.0,0.0,0.0,0.0,4.0865,4.1346,4.201,4.3223,4.2939,4.3093,4.3711,4.3711,4.3711,4.3711,4.3711,4.3711,4.3711,4.3711,4.3711,4.3711,4.3711,4.3711,4.3711,4.3711,4.3711,4.3711,4.3711,4.3711,4.3711,4.3711,4.3711,4.3711,1.0896,1.0875,1.0748,1.0682,1.1213,1.1626,1.1626,1.2259,1.2753,1.2832,1.3613,1.4695,1.5993,1.5138,1.4915,1.6041,1.4861,1.4929,1.6843,1.6641,1.6616,1.6959,1.6262,1.4955,1.3009,1.2366,1.1993,1.183,1.1694,1.1545,1.1389,1.1233,1.1097,1.0995,1.3169,1.4217,1.4813,1.9467,2.1168,2.0996,2.4698,2.6733,2.7386,0.0,2.7148,2.8221,2.8221,0.0,0.0,2.7054,2.6827,0.0,0.0,0.0,0.0,0.0,0.0,0.0,0.0,0.0,2.3888,2.2712,2.2218,2.1871,2.1206,2.0503,1.9654,1.8476,1.7662,1.6881,1.5749,1.5623,1.5623,1.5623,1.5642,0.0,0.0,0.0,0.0,0.0,0.0,0.0,0.0,0.0,0.0,0.0,0.0,0.0,3.8969,3.915,4.0536,4.357,4.1537,4.1453,4.3711,4.3711,4.3711,4.3711,4.3711,4.3711,4.3711,4.3711,4.3711,4.3711,4.3711,4.3711,4.3711,4.3711,4.3711,4.3711,4.3711,4.3711,4.3711,4.3711,4.3711,4.3711,1.1771,1.1786,1.1641,1.149,1.1497,1.1619,1.1619,1.2259,1.3051,1.3856,1.4645,1.5655,1.6887,1.5939,1.5412,1.5933,1.6257,1.6677,1.7307,1.8421,1.9163,1.9396,1.7288,1.5822,1.5152,1.3274,1.2182,1.183,1.1782,1.1633,1.1389,1.1233,1.1192,1.1323,1.2809,1.472,1.6821,1.9183,2.1424,2.3584,2.5579,2.68,2.7402,0.0,0.0,2.8221,2.8221,2.7949,0.0,2.7696,2.7308,2.6894,2.7281,2.6867,2.6279,2.648,2.6186,0.0,0.0,0.0,2.5037,2.3661,0.0,0.0,0.0,2.1371,2.1043,1.991,1.9046,1.8211,1.7196,1.6265,1.5632,1.5632,1.5632,1.5536,0.0,0.0,0.0,0.0,0.0,0.0,0.0,0.0,0.0,0.0,0.0,0.0,0.0,3.6034,3.7947,4.1027,4.0618,4.137,4.3711,4.3711,4.3711,4.3711,4.3711,4.3711,4.3711,4.3711,4.3711,4.3711,4.3711,4.3711,4.3711,4.3711,4.3711,4.3711,4.3711,4.3711,4.3711,4.3711,4.3711,4.3711,1.2242,1.2169,1.2013,1.1857,1.1714,1.1691,1.1972,1.3328,1.4326,1.4497,1.5812,1.717,1.8365,1.7297,1.7048,1.8475,1.8705,1.9103,1.9885,2.1044,0.0,2.1886,2.0059,1.8281,1.6638,1.4853,1.3329,1.2149,1.1938,1.1735,1.1545,1.1341,1.1294,1.1473,1.2516,1.4423,1.7045,1.85,2.1195,2.4625,2.6349,2.7175,0.0,0.0,2.7843,2.7939,0.0,2.8016,2.7883,2.8167,2.7762,2.7388,2.8047,2.7578,2.6894,2.7188,2.6894,2.64,2.6186,2.6199,0.0,2.4703,2.4315,0.0,2.2498,0.0,2.244,2.1132,2.04,1.9704,1.8507,1.7247,1.6264,1.5851,1.5659,1.546,0.0,1.4249,0.0,0.0,0.0,0.0,0.0,0.0,0.0,0.0,0.0,0.0,0.0,0.0,3.5378,3.8443,3.8807,4.003,4.2493,4.3278,4.3711,4.3711,4.3711,4.3711,4.3711,4.3711,4.3711,4.3711,4.3711,4.3711,4.3711,4.3711,4.3711,4.3711,4.3711,4.3711,4.3711,4.3711,4.3711,4.3711,1.2311,1.2149,1.1993,1.1843,1.1787,1.1986,1.2624,1.5078,1.6355,1.4816,1.6888,1.9054,2.0252,1.9076,1.961,2.3062,2.2117,2.2161,2.4086,2.4303,0.0,0.0,2.4318,2.2078,1.7561,1.6918,1.5336,1.2739,1.2142,1.1843,1.1823,1.1531,1.1396,1.1473,1.217,1.3579,1.5557,1.7564,2.0572,2.4178,2.6986,2.7923,2.7682,2.8003,2.7846,2.7348,2.802,2.8221,2.8221,2.8221,2.8221,2.8221,2.8221,2.8221,2.8221,2.8221,2.8221,2.81,2.7455,2.7094,2.6653,2.5798,0.0,0.0,0.0,0.0,2.3799,0.0,0.0,0.0,0.0,1.8695,1.7661,1.6503,1.6017,1.5606,1.5119,1.4736,1.4301,0.0,0.0,0.0,0.0,0.0,0.0,0.0,0.0,0.0,0.0,0.0,3.2684,3.6034,3.6286,3.764,4.0223,4.2576,4.3711,4.3711,4.3711,4.3711,4.3711,4.3711,4.3711,4.3711,4.3711,4.3711,4.3711,4.3711,4.3711,4.3711,4.3711,4.3711,4.3711,4.3711,4.3711,4.3711,1.2169,1.1911,1.1932,1.2467,1.337,1.3569,1.2278,1.4753,1.6195,1.4555,1.5722,1.7456,1.9798,1.9287,1.9731,2.2346,2.3353,0.0,0.0,0.0,0.0,2.7162,2.5443,2.3084,2.0118,1.8117,1.5772,1.2901,1.2413,1.2054,1.1823,1.1531,1.145,1.1558,1.2221,1.328,1.4805,1.6529,1.9816,2.3817,2.5391,2.6475,0.0,0.0,2.7589,2.7348,2.802,2.8221,2.8221,2.8221,2.8221,2.8221,2.8221,2.8221,2.8221,2.8221,2.8221,2.8194,2.8047,2.7696,2.7321,2.6653,2.6106,2.5531,0.0,0.0,0.0,0.0,0.0,0.0,0.0,0.0,1.9141,1.8118,1.7771,1.7533,1.7239,1.6055,0.0,1.5304,0.0,0.0,0.0,0.0,0.0,0.0,0.0,0.0,0.0,0.0,0.0,3.3007,3.5245,3.7521,3.9891,4.2423,4.3711,4.3711,4.3711,4.3711,4.3711,4.3711,4.3711,4.3711,4.3711,4.3711,4.3711,4.3711,4.3711,4.3711,4.3711,4.3711,4.3711,4.3711,4.3711,4.3711,1.2196,1.2268,1.2445,1.28,1.4489,1.5132,1.3297,1.4926,0.0,1.4441,1.5581,0.0,2.0051,2.0092,2.1221,2.4564,2.5725,0.0,2.5977,0.0,0.0,2.7949,2.7037,2.5275,2.2814,2.0512,0.0,1.486,1.3276,1.2291,1.1925,1.1626,1.1646,1.1945,1.2421,1.3544,1.5273,1.7734,2.057,2.3511,2.5045,2.63,0.0,2.7722,2.7789,2.7709,2.8177,2.8341,2.8248,2.8297,2.8341,2.8221,2.8221,2.8221,2.8221,2.8221,2.8221,2.8221,2.8221,2.8016,2.7816,2.7482,2.7148,2.6694,2.5838,2.5758,2.5732,0.0,0.0,0.0,0.0,0.0,0.0,1.8924,1.8413,1.8128,1.7992,1.7369,1.6629,0.0,1.5634,0.0,0.0,0.0,0.0,0.0,0.0,0.0,0.0,0.0,0.0,3.0438,3.2899,3.5475,3.831,3.9537,4.0832,4.2224,4.2224,4.2224,4.2243,4.3278,4.3711,4.3711,4.3711,4.3711,4.3711,4.3711,4.3711,4.3711,4.3711,4.3711,4.3711,4.3711,4.3711,4.3711,1.2567,1.3028,1.3377,1.329,1.5068,1.6156,0.0,1.5965,0.0,1.531,0.0,1.8715,2.1075,2.1511,2.3384,2.7799,0.0,2.8114,2.7776,2.8003,2.8114,2.7762,2.8577,2.7756,2.5212,2.3009,2.047,0.0,1.4391,1.2663,1.2175,1.1873,1.1952,1.2481,1.2813,1.4124,1.6442,1.9664,2.1843,2.3188,2.5227,2.6748,2.7736,2.8114,2.8221,2.8261,2.8497,2.8404,2.8274,2.8497,2.8404,2.8221,2.8221,2.8221,2.8221,2.8221,2.8221,2.8221,2.8221,2.8221,2.8221,2.8221,2.8221,2.7953,2.68,2.672,2.6653,2.5852,2.5451,2.5132,0.0,0.0,0.0,0.0,0.0,0.0,1.8711,1.8948,1.8429,1.6593,0.0,0.0,0.0,0.0,0.0,0.0,0.0,0.0,0.0,0.0,0.0,2.8497,3.0588,0.0,3.5733,0.0,3.7652,4.018,4.0487,4.0727,4.0764,4.2844,4.3711,4.3711,4.3711,4.3711,4.3711,4.3711,4.3711,4.3711,4.3711,4.3711,4.3711,4.3711,4.3711,4.3711,1.409,1.404,1.4148,1.4614,1.4773,1.5613,1.767,1.8765,1.9476,1.9605,2.0128,2.1453,2.3784,2.4023,2.5203,2.7968,2.8221,0.0,0.0,0.0,0.0,2.8154,2.8684,2.7859,2.5395,2.3168,2.0781,0.0,1.5312,1.3479,1.2824,1.2501,1.247,1.2779,1.3302,1.495,1.7517,1.8972,0.0,2.3419,2.519,2.6569,2.7736,2.8114,2.8221,2.8261,2.8497,2.8404,2.8274,2.8497,2.8404,2.8221,2.8221,2.8221,2.8221,2.8221,2.8221,2.8221,2.8221,2.8221,2.8221,2.8221,2.8221,2.8114,2.7575,2.7321,2.7068,2.668,2.636,2.5908,2.5106,0.0,0.0,0.0,0.0,0.0,0.0,2.1508,2.052,2.0575,0.0,0.0,0.0,0.0,0.0,0.0,0.0,0.0,0.0,0.0,0.0,0.0,3.2379,0.0,0.0,0.0,4.0653,3.9614,4.1644,4.2765,4.3093,4.3526,4.3711,4.3711,4.3711,4.3711,4.3711,4.3711,4.3711,4.3711,4.3711,4.3711,4.3711,4.3711,4.3711,4.3711,1.4619,1.4869,1.5032,1.4958,1.594,1.747,0.0,2.1377,2.1994,2.0899,2.0739,2.1684,2.4184,2.4611,2.5641,2.7968,2.8221,2.8221,2.8221,2.8221,2.8221,2.8221,2.8577,2.8351,2.7247,2.514,2.2836,2.0495,0.0,1.5339,1.3707,1.327,1.3326,1.3837,1.5524,1.716,1.8768,0.0,0.0,2.4495,2.5564,2.6748,2.7949,2.8167,2.8221,2.8261,2.8497,2.8404,2.8274,2.8497,2.8404,2.8221,2.8221,2.8221,2.8221,2.8221,2.8221,2.8221,2.8221,2.8221,2.8221,2.8221,2.8114,2.7843,2.7535,2.7255,2.6947,2.6653,2.6493,2.6172,2.5438,2.4583,0.0,0.0,0.0,0.0,0.0,0.0,2.2518,0.0,0.0,0.0,0.0,0.0,0.0,0.0,0.0,0.0,0.0,0.0,0.0,0.0,0.0,0.0,0.0,0.0,0.0,3.925,4.0573,4.1384,4.1654,4.3079,4.3711,4.3711,4.3711,4.3711,4.3711,4.3711,4.3711,4.3711,4.3711,4.3711,4.3711,4.3711,4.3711,4.3711,1.6241,1.6754,1.7037,1.6581,1.8251,2.0247,2.2039,2.3633,2.4102,2.2565,2.2139,2.2759,2.4804,2.5288,2.6151,2.8052,2.8221,2.8221,2.8221,2.8221,2.8221,2.8221,2.8444,2.8711,2.8938,2.6866,2.4893,0.0,0.0,1.7734,1.5502,1.4714,1.4701,1.5441,1.7763,0.0,0.0,0.0,2.4326,2.5657,2.6242,2.7207,2.8221,2.8221,2.8221,2.8261,2.8417,2.835,2.8261,2.843,2.835,2.8221,2.8221,2.8221,2.8221,2.8221,2.8221,2.8221,2.8221,2.8221,2.8221,2.8221,2.7923,2.7629,2.7335,2.7041,2.6734,2.6453,2.6386,2.6186,2.5545,2.5371,0.0,0.0,0.0,0.0,0.0,0.0,2.4037,0.0,0.0,0.0,0.0,0.0,0.0,0.0,0.0,0.0,2.4835,0.0,0.0,0.0,0.0,3.3387,3.6794,0.0,3.7228,0.0,3.9393,3.9793,4.0556,4.2175,4.3278,4.3711,4.3711,4.3711,4.3711,4.3711,4.3711,4.3711,4.3711,4.3711,4.3711,4.3711,4.3711,4.3711,2.1245,2.1367,2.1456,2.1545,2.2043,2.2946,2.4615,2.5099,2.5803,2.7304,2.7512,2.7512,2.7791,2.7844,2.7968,2.815,2.8221,2.8221,2.8221,2.8221,2.8221,2.8221,2.8444,2.8617,2.8644,2.6768,2.5775,0.0,0.0,2.0485,1.917,1.7408,1.6891,1.7573,0.0,0.0,0.0,2.43,2.5325,2.592,2.7415,2.8052,2.8221,2.8221,2.8221,2.8234,2.8261,2.8248,2.8234,2.8261,2.8248,2.8221,2.8221,2.8221,2.8221,2.8221,2.8221,2.8221,2.8221,2.8221,2.8221,2.8221,2.7923,2.7629,2.7335,2.7041,2.6734,2.6453,2.6386,2.6132,2.5277,2.7197,2.7911,0.0,0.0,0.0,0.0,0.0,2.4722,2.5166,0.0,0.0,0.0,0.0,0.0,0.0,2.0843,0.0,0.0,0.0,0.0,2.7635,0.0,3.2871,3.1422,3.7553,4.0201,3.9332,3.9104,4.0509,4.322,4.1435,4.1723,4.3711,4.3711,4.3711,4.3711,4.3711,4.3711,4.3711,4.3711,4.3711,4.3711,4.3711,4.3711,4.3769,2.2451,2.2347,2.2257,0.0,0.0,0.0,0.0,2.6082,2.7284,2.811,2.7989,2.7949,2.8207,2.7989,2.7949,2.8207,2.7976,2.7949,2.8221,2.8221,2.8221,2.8221,2.8257,2.8417,2.8604,2.7853,2.7043,0.0,0.0,0.0,2.0782,1.9591,1.9519,0.0,0.0,2.317,2.4324,2.5993,2.6913,2.7291,2.7928,2.8221,2.8221,2.8221,2.8221,2.8221,2.8221,2.8221,2.8221,2.8221,2.8221,2.8221,2.8221,2.8221,2.8221,2.8221,2.8221,2.8221,2.8221,2.8221,2.8221,2.8221,2.7872,2.7415,2.7295,2.6894,2.6533,2.6413,2.6386,2.6279,2.5932,2.6534,2.6759,0.0,0.0,0.0,0.0,0.0,0.0,2.6266,0.0,2.54,0.0,0.0,0.0,0.0,0.0,0.0,0.0,0.0,0.0,2.8368,0.0,3.4484,3.4518,3.943,4.1556,4.0896,4.1228,4.2135,4.334,4.2646,4.2844,4.3711,4.3711,4.3711,4.3711,4.3711,4.3711,4.3711,4.3711,4.3711,4.373,4.4023,4.4121,4.418,2.4223,0.0,2.3941,0.0,2.5034,2.5925,2.5635,2.7065,2.8221,2.8221,2.7963,2.7909,2.8207,2.7883,2.7816,2.8207,2.7869,2.7829,2.8207,2.8221,2.8221,2.8221,2.8221,0.0,2.847,2.8564,2.807,2.7081,2.5903,0.0,2.308,2.1888,2.1873,0.0,2.4239,2.5299,2.6164,2.731,2.7949,2.8221,2.8221,2.8221,2.8221,2.8221,2.8221,2.8221,2.8221,2.8221,2.8221,2.8221,2.8221,2.8221,2.8221,2.8221,2.8221,2.8221,2.8221,2.8221,2.8221,2.8221,2.8221,2.8221,2.7779,2.7268,2.7268,2.6814,2.6386,2.6386,2.6386,2.6386,2.6386,2.7037,2.7429,2.7079,0.0,0.0,0.0,2.6849,0.0,2.6333,2.6266,2.5727,2.4271,0.0,0.0,0.0,0.0,0.0,0.0,0.0,0.0,0.0,0.0,0.0,0.0,3.9926,4.1946,4.1361,4.1819,4.2452,4.3281,4.3574,4.3711,4.3711,4.3711,4.3711,4.3711,4.3711,4.3711,4.3711,4.3711,4.3711,4.3769,4.4219,4.4394,4.4473,2.7629,2.7682,2.7776,2.807,2.8123,2.8123,2.8136,2.8136,2.8221,2.8221,2.8221,2.8221,2.8221,2.7883,2.7816,2.8207,2.7869,2.7829,2.8207,2.8221,2.8221,0.0,0.0,2.8221,2.8234,2.8444,2.8604,2.8604,0.0,0.0,2.6693,2.4431,2.403,2.5175,2.5175,2.6311,2.8207,2.8221,2.8221,2.8221,2.8221,2.8221,2.8221,2.8221,2.8221,2.8221,2.8221,2.8221,2.8221,2.8221,2.8221,2.8221,2.8221,2.8221,2.8221,2.8221,2.8221,2.8221,2.8221,2.8221,2.8221,2.8221,2.7779,2.7268,2.7268,2.6814,2.6386,2.6386,2.6386,2.6386,2.6386,2.9681,3.1577,2.8958,0.0,0.0,0.0,2.7319,0.0,2.5197,2.4342,2.3739,2.3627,0.0,0.0,0.0,0.0,0.0,0.0,0.0,0.0,2.6787,3.1352,0.0,3.1707,3.8453,4.1337,4.0307,3.9844,4.1064,4.3691,4.3711,4.3711,4.3711,4.3711,4.3711,4.3711,4.3711,4.3711,4.3711,4.3711,4.3711,4.3769,4.4219,4.4394,4.4512,2.7989,2.8003,2.803,2.8207,2.8221,2.8221,2.8221,2.8221,2.8221,2.8221,2.8221,2.8221,2.8221,2.7696,2.7522,0.0,2.7388,2.7308,0.0,2.7843,2.7936,2.8221,2.8221,2.8221,2.8221,2.8243,2.8484,2.8898,0.0,0.0,0.0,2.6505,2.6593,2.7512,2.7315,2.7619,2.8221,2.8221,2.8221,2.8221,2.8221,2.8221,2.8221,2.8221,2.8221,2.8221,2.8221,2.8221,2.8221,2.8221,2.8221,2.8221,2.8221,2.8221,2.8221,2.8221,2.8221,2.8221,2.8221,2.8221,2.8221,2.8221,2.7779,2.7268,2.7268,2.6814,2.6386,2.6386,2.6386,2.6386,2.6386,2.7629,2.8318,2.7518,2.8287,0.0,2.7824,0.0,2.9392,2.8855,3.0035,3.019,0.0,2.6634,0.0,0.0,0.0,0.0,0.0,0.0,0.0,0.0,3.1213,0.0,3.1227,3.7108,3.9968,3.9844,4.1526,4.2875,4.3711,4.3711,4.3711,4.3711,4.3711,4.3711,4.3711,4.3711,4.3711,4.3711,4.3711,4.3906,4.4238,4.4668,4.5019,4.5351,2.8221,2.8221,2.8221,2.8221,2.8221,2.8221,2.8221,2.8221,2.8221,2.8221,2.8221,2.8221,2.8221,2.7709,0.0,2.7843,2.7335,2.7241,2.7829,2.7762,2.7829,2.8207,2.8221,2.8221,2.8221,2.8221,0.0,2.8698,2.807,2.7869,2.803,2.7856,2.8003,2.843,2.823,2.8221,2.8221,2.8221,2.8221,2.8221,2.8221,2.8221,2.8221,2.8221,2.8221,2.8221,2.8221,2.8221,2.8221,2.8221,2.8221,2.8221,2.8221,2.8221,2.8221,2.8221,2.8221,2.8221,2.8221,2.8221,2.8221,2.8221,2.7779,2.7201,2.6987,2.6734,2.6547,2.6547,2.664,2.672,2.672,2.7483,2.8075,2.8075,2.8323,2.8448,2.8448,0.0,3.074,0.0,0.0,0.0,0.0,3.0284,0.0,0.0,0.0,0.0,0.0,0.0,0.0,2.8769,3.3381,0.0,3.2757,3.8018,4.0501,4.0114,4.2709,4.3867,4.3711,4.3711,4.3711,4.3711,4.3711,4.3711,4.3711,4.3711,4.3711,4.3711,4.3711,4.3984,4.4453,4.4863,4.5312,4.5742,2.8221,2.8221,2.8221,0.0,2.8221,0.0,2.8221,2.8221,2.8221,2.8221,2.8221,2.8221,2.8221,2.7896,2.7843,2.8207,0.0,0.0,0.0,2.7829,2.7816,2.8207,2.8221,2.8221,2.8221,2.8221,2.8248,2.8288,2.8511,2.8671,2.8671,2.8671,2.8484,2.8261,2.8261,2.8248,2.8221,2.8221,2.8221,2.8221,2.8221,2.8221,2.8221,2.8221,2.8221,2.8221,2.8221,2.8221,2.8221,2.8221,2.8221,2.8221,2.8221,2.8221,2.8221,2.8221,2.8221,2.8221,2.8221,2.8221,2.8221,2.8221,2.7792,2.7148,2.656,2.664,2.6854,2.6827,2.7054,2.7268,2.7268,2.8868,3.0144,3.0144,3.0239,3.0415,3.0415,3.0992,3.1041,0.0,0.0,0.0,0.0,3.3019,3.2364,0.0,0.0,0.0,0.0,0.0,2.9793,3.409,3.7018,3.7614,3.579,4.0546,4.2359,4.1183,4.3346,4.418,4.375,4.3711,4.3711,4.3711,4.3711,4.3711,4.3711,4.3711,4.3711,4.3711,4.3711,4.3984,4.4453,4.4863,4.5273,4.5703,0.0,0.0,2.8221,2.8221,2.8221,2.8221,2.8221,2.8221,2.8221,2.8221,2.8221,2.8221,2.8221,2.8167,2.8154,2.8221,2.7402,2.7175,2.7762,2.7535,2.7602,2.8207,2.8221,2.8221,2.8221,2.8221,2.8364,2.8831,2.9125,2.9272,2.9272,2.9272,2.9005,2.8497,2.8497,2.8364,2.8221,2.8221,2.8221,2.8221,2.8221,2.8221,2.8221,2.8221,2.8221,2.8221,2.8221,2.8221,2.8221,2.8221,2.8221,2.8221,2.8221,2.8221,2.8221,2.8221,2.8221,2.8221,2.8221,2.8221,2.8221,2.8221,2.7869,2.7442,2.6854,2.6947,2.7094,2.6867,2.7054,2.7268,2.7268,2.7839,2.8318,2.8318,2.9885,3.1168,3.1168,3.4066,3.6164,0.0,3.7847,3.8561,3.6866,3.6699,3.5557,0.0,0.0,0.0,0.0,3.4946,3.4822,3.4745,3.7158,3.7959,3.6721,3.9658,4.2106,4.406,4.4278,4.4336,4.4219,4.3867,4.3711,4.3711,4.3711,4.3711,4.3711,4.3711,4.3711,4.3711,4.3711,4.3984,4.4453,4.4863,4.5098,4.5293,2.835,2.8457,2.8551,2.8551,2.7564,2.7119,2.818,2.7369,2.7012,2.8052,2.8221,2.8221,2.8221,2.8221,2.8221,2.8221,2.7575,2.7415,2.7869,2.7629,2.7669,2.8207,2.8221,2.8221,2.8221,2.8221,2.8377,2.8845,2.9005,2.9085,2.9085,2.9085,2.8831,2.839,2.839,2.8297,2.8221,2.8221,2.8221,2.8221,2.8221,2.8221,2.8221,2.8221,2.8221,2.8221,2.8221,2.8221,2.8221,2.8221,2.8221,2.8221,2.8221,2.8221,2.8221,2.8221,2.8221,2.8221,2.8221,2.8221,2.8194,2.7976,2.7816,2.7549,2.6961,2.7161,2.7375,2.7081,2.7362,2.7752,2.7752,2.7789,2.7896,2.7896,2.9091,3.026,3.1227,3.4327,3.6762,3.7816,3.9864,4.0763,3.9531,3.9453,3.8273,3.5635,3.6301,0.0,3.7444,3.8617,3.8933,3.8068,3.9714,4.0435,4.009,4.1963,4.3604,4.5019,4.4785,4.459,4.4375,4.3926,4.3711,4.3711,4.3711,4.3711,4.3711,4.3711,4.3711,4.3711,4.3711,4.3984,4.4433,4.4648,4.4863,4.5098,2.8572,2.8871,2.8857,2.8496,2.6611,2.5658,2.734,2.5958,2.5433,2.7428,2.7994,2.8221,2.8221,2.8221,2.8221,2.8221,2.7909,2.7869,2.8207,2.7869,2.7829,2.8207,2.8221,2.8221,2.8221,2.8221,2.8297,2.8604,2.8604,2.8604,2.8604,2.8644,2.8484,2.8234,2.8274,2.8274,2.8221,2.8221,2.8221,2.8221,2.8221,2.8221,2.8221,2.8221,2.8221,2.8221,2.8221,2.8221,2.8221,2.8221,2.8221,2.8221,2.8221,2.8221,2.8221,2.8221,2.8221,2.8221,2.8221,2.8221,2.8167,2.7829,2.7762,2.7629,2.7081,2.7375,2.7682,2.7388,2.7846,2.8221,2.8221,2.8221,2.8194,2.8114,2.8379,2.9369,3.1504,0.0,3.5972,3.8134,4.0021,4.1172,4.1172,4.1172,4.0431,3.8548,4.0099,4.0526,3.9116,4.0865,4.1953,4.209,4.2793,4.3437,4.4004,4.5176,4.5586,4.5215,4.5156,4.4902,4.4473,4.4023,4.3769,4.3711,4.3711,4.3711,4.3711,4.3711,4.3711,4.3711,4.3711,4.3945,4.4297,4.4375,4.457,4.4844,2.8478,2.9005,2.8321,2.627,2.5519,2.4692,2.2991,2.3928,2.4996,2.5342,2.7068,2.8221,2.8221,2.8221,2.8221,2.8221,2.8181,2.8181,2.8221,2.7869,2.7829,2.8207,2.8221,2.8221,2.8221,2.8221,2.8297,2.8604,2.8604,2.8604,2.8604,2.8858,2.8671,2.8234,2.8417,2.839,2.8221,2.8221,2.8221,2.8221,2.8221,2.8221,2.8221,2.8221,2.8221,2.8221,2.8221,2.8221,2.8221,2.8221,2.8221,2.8221,2.8221,2.8221,2.8221,2.8221,2.8221,2.8221,2.8221,2.8221,2.8221,2.8167,2.8154,2.7989,2.7642,2.7829,2.7989,2.7696,2.7909,2.8221,2.8221,2.8221,2.806,2.7482,2.9207,3.1209,3.3159,0.0,3.7946,4.0393,4.1016,4.1172,4.1172,4.1172,4.1094,4.0685,4.1016,4.1191,4.1283,4.197,4.2656,4.3379,4.3535,4.418,4.5351,4.5918,4.6172,4.6094,4.5742,4.5351,4.4902,4.4492,4.4082,4.3711,4.3711,4.3711,4.3711,4.3711,4.3711,4.3711,4.3711,4.375,4.3867,4.4258,4.4199,4.4023,2.8793,2.832,2.7508,2.7775,2.4408,2.216,2.3683,2.3369,2.3479,2.4708,2.6838,2.8221,2.8221,2.8221,2.8221,2.8221,2.8221,2.8221,2.8221,2.81,2.8003,2.8221,2.8221,2.8221,2.8221,2.7989,2.7976,2.8123,2.8283,2.827,2.8123,2.8591,2.8564,2.8234,2.8297,2.8283,2.8221,2.8221,2.8221,2.8221,2.8221,2.8221,2.8221,2.8221,2.8221,2.8221,2.8221,2.8221,2.8221,2.8221,2.8221,2.8221,2.8221,2.8221,2.8221,2.8221,2.8221,2.8221,2.8221,2.8221,2.8221,2.8221,2.8221,2.8154,2.7762,2.7923,2.814,2.7762,2.7936,2.8221,2.8221,2.8221,2.814,2.7859,2.8745,3.0645,3.3852,3.4224,3.5914,4.0646,4.0178,3.9864,4.1094,4.1172,4.1172,4.1172,4.1172,4.1465,4.2109,4.2324,4.293,4.4043,4.4531,4.5058,4.5664,4.6094,4.6308,4.6289,4.5879,4.5449,4.5,4.459,4.4141,4.3711,4.3711,4.3711,4.3711,4.3711,4.3711,4.3711,4.3711,4.3711,4.373,4.3945,4.3887,4.3769,2.738,2.6551,2.5764,2.7148,2.2505,1.9751,2.2847,2.2275,2.2153,2.3917,2.6521,2.8221,2.8221,2.8221,2.8221,2.8221,2.8221,2.8221,2.8221,2.8221,2.8221,2.8221,2.8221,2.8221,2.8221,2.7923,2.7802,2.7802,2.803,2.8114,2.7816,2.8283,2.8377,2.8221,2.8221,2.8221,2.8221,2.8221,2.8221,2.8221,2.8221,2.8221,2.8221,2.8221,2.8221,2.8221,2.8221,2.8221,2.8221,2.8221,2.8221,2.8221,2.8221,2.8221,2.8221,2.8221,2.8221,2.8221,2.8221,2.8221,2.8221,2.8221,2.8221,2.8167,2.7856,2.7976,2.8167,2.7856,2.7989,2.8221,2.8221,2.8221,2.8181,2.8047,2.8073,2.9397,3.3208,3.2293,3.3417,3.904,3.8627,3.8548,4.0275,4.0919,4.1172,4.1172,4.1269,4.1641,4.2383,4.2519,4.3183,4.4492,4.5273,4.5723,4.582,4.6152,4.6308,4.6289,4.5879,4.5449,4.5,4.459,4.4141,4.3711,4.3711,4.3711,4.3711,4.3711,4.3711,4.3711,4.3711,4.3711,4.3711,4.3711,4.3711,4.3711,2.2587,2.2912,2.2096,2.0067,1.9225,1.8204,1.6277,1.9261,2.1769,2.1937,2.5589,2.8221,2.8221,2.8221,2.8221,2.8221,2.8221,2.8221,2.8221,2.8221,2.8221,2.8221,2.8221,2.8221,2.8221,2.8207,2.8194,2.8194,2.8221,2.8221,2.8194,2.8248,2.8248,2.8221,2.8221,2.8221,2.8221,2.8221,2.8221,2.8221,2.8221,2.8221,2.8221,2.8221,2.8221,2.8221,2.8221,2.8221,2.8221,2.8221,2.8221,2.8221,2.8221,2.8221,2.8221,2.8221,2.8221,2.8221,2.8221,2.8221,2.8221,2.8221,2.8221,2.8221,2.8207,2.8207,2.8221,2.8194,2.8207,2.8221,2.8221,2.8221,2.8047,2.7415,2.7549,2.8441,3.054,3.0911,3.2027,3.4861,3.6762,3.7975,3.8152,4.0021,4.1172,4.1172,4.1543,4.1953,4.2402,4.2812,4.3633,4.4941,4.543,4.5859,4.625,4.6289,4.6308,4.6289,4.5879,4.5449,4.5,4.459,4.4141,4.3711,4.3711,4.3711,4.3711,4.3711,4.3711,4.3711,4.3711,4.3711,4.3711,4.3711,4.3711,4.3711,2.2086,2.1267,2.0437,2.0991,1.86,1.6845,1.7398,2.0007,2.185,2.172,2.567,2.835,2.8248,2.8221,2.8221,2.8221,2.8221,2.8221,2.8221,2.8221,2.8221,2.8221,2.8221,2.8221,2.8221,2.7963,2.7869,2.7869,2.814,2.8127,2.7883,2.8257,2.8323,2.8221,2.8221,2.8221,2.8221,2.8221,2.8221,2.8221,2.8221,2.8221,2.8221,2.8221,2.8221,2.8221,2.8221,2.8221,2.8221,2.8221,2.8221,2.8221,2.8221,2.8221,2.8221,2.8221,2.8221,2.8221,2.8221,2.8221,2.8221,2.8221,2.8221,2.8221,2.8221,2.8221,2.8221,2.8221,2.8221,2.8221,2.8221,2.8221,2.8154,2.7926,2.7896,2.8744,3.0803,3.0015,3.0612,3.4229,3.5379,3.6442,3.7737,3.9864,4.1289,4.1543,4.1699,4.2109,4.2793,4.375,4.4512,4.5,4.5703,4.6152,4.6308,4.6308,4.6172,4.5918,4.5742,4.5312,4.4629,4.4473,4.4141,4.3711,4.3711,4.3711,4.3711,4.3711,4.3711,4.3711,4.3711,4.3711,4.3711,4.3711,4.3711,4.3711,1.998,1.8913,1.8228,1.9891,1.8042,1.6939,1.8685,2.1351,2.3242,2.2994,2.6336,2.8631,2.8323,2.8283,2.8243,2.8234,2.8221,2.8221,2.8221,2.8221,2.8221,2.8221,2.8221,2.8221,2.8221,2.7936,2.7843,2.7843,2.8127,2.8043,2.7843,2.827,2.835,2.8221,2.8221,2.8221,2.8221,2.8221,2.8221,2.8221,2.8221,2.8221,2.8221,2.8221,2.8221,2.8221,2.8221,2.8221,2.8221,2.8221,2.8221,2.8221,2.8221,2.8221,2.8221,2.8221,2.8221,2.8221,2.8221,2.8221,2.8221,2.8221,2.8221,2.8221,2.8221,2.8221,2.8221,2.8221,2.8221,2.8221,2.8221,2.8221,2.8221,2.8221,2.8221,2.8712,3.0176,2.9118,2.9286,3.2299,3.3267,3.4246,3.5702,3.8469,4.0311,4.0578,4.1421,4.2363,4.3223,4.3683,4.4233,4.4934,4.5859,4.6308,4.6308,4.6308,4.6094,4.5683,4.5547,4.5098,4.4394,4.4258,4.4004,4.3711,4.3711,4.3711,4.3711,4.3711,4.3711,4.3711,4.3711,4.3711,4.3711,4.3711,4.3711,4.3711,1.5411,1.5289,1.5187,1.5275,1.7305,1.8871,1.8964,2.2818,2.5764,2.5764,2.7687,2.8938,2.8644,2.8604,2.8484,2.8261,2.8234,2.8234,2.8221,2.8221,2.8221,2.8221,2.8221,2.8221,2.8221,2.8221,2.8221,2.8221,2.8221,2.8221,2.8221,2.8221,2.8221,2.8221,2.8221,2.8221,2.8221,2.8221,2.8221,2.8221,2.8221,2.8221,2.8221,2.8221,2.8221,2.8221,2.8221,2.8221,2.8221,2.8221,2.8221,2.8221,2.8221,2.8221,2.8221,2.8221,2.8221,2.8221,2.8221,2.8221,2.8221,2.8221,2.8221,2.8221,2.8221,2.8221,2.8221,2.8221,2.8221,2.8221,2.8221,2.8221,2.8221,2.8221,2.8221,2.8221,2.8221,2.8221,2.8221,2.8221,3.0093,3.1392,3.1392,3.5298,3.7896,3.7914,4.0702,4.2731,4.3652,4.2337,4.263,4.4934,4.5859,4.6308,4.6308,4.6308,4.6094,4.5664,4.5234,4.4805,4.4375,4.3926,4.3711,4.3711,4.3711,4.3711,4.3711,4.3711,4.3711,4.3711,4.3711,4.3711,4.3711,4.3711,4.3711,4.3711,1.5432,1.5371,1.587,1.7507,1.8406,1.9511,2.1175,2.4059,2.6053,2.5788,2.7864,2.9245,2.8938,2.8911,2.8791,2.8497,2.847,2.8377,2.8248,2.8221,2.8221,2.8221,2.8221,2.8221,2.8221,2.8221,2.8221,2.8221,2.8221,2.8221,2.8221,2.8221,2.8221,2.8221,2.8221,2.8221,2.8221,2.8221,2.8221,2.8221,2.8221,2.8221,2.8221,2.8221,2.8221,2.8221,2.8221,2.8221,2.8221,2.8221,2.8221,2.8221,2.8221,2.8221,2.8221,2.8221,2.8221,2.8221,2.8221,2.8221,2.8221,2.8221,2.8221,2.8221,2.8221,2.8221,2.8221,2.8221,2.8221,2.8221,2.8221,2.8221,2.8221,2.8221,2.8221,2.8221,2.8221,2.8221,2.8221,2.8221,3.0093,3.1392,3.1392,3.4146,3.6031,3.6368,3.9199,4.1027,4.1267,4.3037,4.3595,4.263,4.5039,4.6308,4.6308,4.6308,4.6094,4.5664,4.5234,4.4805,4.4375,4.3926,4.3711,4.3711,4.3711,4.3711,4.3711,4.3711,4.3711,4.3711,4.3711,4.3711,4.3711,4.3711,4.3711,4.3711,1.5533,1.5452,1.6109,1.8532,1.9697,2.1175,2.3564,2.6048,2.764,2.7479,2.8743,2.9539,2.9245,2.9219,2.9098,2.8804,2.8671,2.847,2.8248,2.8221,2.8221,2.8221,2.8221,2.8221,2.8221,2.8221,2.8221,2.8221,2.8221,2.8221,2.8221,2.8221,2.8221,2.8221,2.8221,2.8221,2.8221,2.8221,2.8221,2.8221,2.8221,2.8221,2.8221,2.8221,2.8221,2.8221,2.8221,2.8221,2.8221,2.8221,2.8221,2.8221,2.8221,2.8221,2.8221,2.8221,2.8221,2.8221,2.8221,2.8221,2.8221,2.8221,2.8221,2.8221,2.8221,2.8221,2.8221,2.8221,2.8221,2.8221,2.8221,2.8221,2.8221,2.8221,2.8221,2.8221,2.8221,2.8221,2.8221,2.8221,2.937,3.0093,3.0093,3.2342,3.4398,3.5805,3.6776,3.8202,4.0156,4.1549,4.2438,4.2888,4.5126,4.6308,4.6308,4.6308,4.6094,4.5664,4.5234,4.4805,4.4375,4.3926,4.3711,4.3711,4.3711,4.3711,4.3711,4.3711,4.3711,4.3711,4.3711,4.3711,4.3711,4.3711,4.3711,4.3711,1.5669,1.5527,1.6218,1.8812,2.1083,2.3381,2.6139,2.8436,2.9913,2.9913,2.9913,2.982,2.9553,2.9526,2.9406,2.9112,2.8791,2.8484,2.8288,2.8248,2.8221,2.8221,2.8221,2.8221,2.8221,2.8221,2.8221,2.8221,2.8221,2.8221,2.8221,2.8221,2.8221,2.8221,2.8221,2.8221,2.8221,2.8221,2.8221,2.8221,2.8221,2.8221,2.8221,2.8221,2.8221,2.8221,2.8221,2.8221,2.8221,2.8221,2.8221,2.8221,2.8221,2.8221,2.8221,2.8221,2.8221,2.8221,2.8221,2.8221,2.8221,2.8221,2.8221,2.8221,2.8221,2.8221,2.8221,2.8221,2.8221,2.8221,2.8221,2.8221,2.8221,2.8221,2.8221,2.8221,2.8221,2.8221,2.8221,2.8221,2.8221,2.8234,2.8261,3.0282,3.2822,3.5759,3.4111,3.5113,3.9716,3.9166,4.056,4.4574,4.5773,4.6308,4.6308,4.6308,4.6113,4.5723,4.5254,4.4824,4.4433,4.3926,4.3711,4.3711,4.3711,4.3711,4.3711,4.3711,4.3711,4.3711,4.3711,4.3711,4.3711,4.3711,4.3711,4.3711,1.5689,1.5615,1.6825,2.0964,2.2188,2.4021,2.8436,2.9541,2.9913,2.9913,2.9913,2.9887,2.9833,2.982,2.9713,2.9419,2.8911,2.8577,2.8511,2.8283,2.8221,2.8221,2.8221,2.8221,2.8221,2.8221,2.8221,2.8221,2.8221,2.8221,2.8221,2.8221,2.8221,2.8221,2.8221,2.8221,2.8221,2.8221,2.8221,2.8221,2.8221,2.8221,2.8221,2.8221,2.8221,2.8221,2.8221,2.8221,2.8221,2.8221,2.8221,2.8221,2.8221,2.8221,2.8221,2.8221,2.8221,2.8221,2.8221,2.8221,2.8221,2.8221,2.8221,2.8221,2.8221,2.8221,2.8221,2.8221,2.8221,2.8221,2.8221,2.8221,2.8221,2.8221,2.8221,2.8221,2.8221,2.8221,2.8221,2.8221,2.8221,2.8243,2.8484,2.9398,3.1147,3.3755,3.5162,3.6404,3.7518,4.1378,4.3147,4.2352,4.4952,4.6308,4.6308,4.6308,4.625,4.6152,4.5391,4.498,4.4863,4.4062,4.3711,4.3711,4.3711,4.3711,4.3711,4.3711,4.3711,4.3711,4.3711,4.3711,4.3711,4.3711,4.3711,4.3711,1.5904,1.7535,1.988,2.2083,2.3473,2.5491,2.9362,2.9913,2.9913,2.9913,2.9913,2.9451,2.8256,2.9182,2.9333,2.7864,2.8347,2.822,2.6931,2.7689,2.8221,2.8221,2.8221,2.8221,2.8221,2.8221,2.8221,2.8221,2.8221,2.8221,2.8234,2.8297,2.8283,2.8234,2.8297,2.8283,2.8221,2.8221,2.8221,2.8221,2.8221,2.8221,2.8221,2.8221,2.8221,2.8221,2.8221,2.8221,2.8221,2.8221,2.8221,2.8221,2.8221,2.8221,2.8221,2.8221,2.8221,2.8221,2.8221,2.8221,2.8221,2.8221,2.8221,2.8221,2.8221,2.8221,2.8221,2.8221,2.8221,2.8221,2.8221,2.8221,2.8221,2.8221,2.8221,2.8221,2.8221,2.8221,2.8221,2.8221,2.8221,2.8323,2.8764,2.9219,3.0124,3.1628,3.3907,3.562,3.6744,3.9895,4.1554,4.1467,4.2313,4.3371,4.4561,4.4561,4.5109,4.6289,4.543,4.5019,4.5,4.4101,4.3711,4.3711,4.3711,4.3711,4.3711,4.3711,4.3711,4.3711,4.3711,4.3711,4.3711,4.3711,4.3711,4.3711,1.677,1.9993,2.3165,2.3189,2.4854,2.7057,2.9541,2.9913,2.9913,2.9913,2.9913,2.8989,2.6502,2.7702,2.7705,2.5385,2.7208,2.7459,2.5137,2.7059,2.8288,2.8234,2.8221,2.8221,2.8221,2.8221,2.8221,2.8221,2.8274,2.8301,2.823,2.8537,2.8524,2.8315,2.8497,2.843,2.8221,2.8221,2.8221,2.8221,2.8221,2.8221,2.8221,2.8221,2.8221,2.8221,2.8221,2.8221,2.8221,2.8221,2.8221,2.8221,2.8221,2.8221,2.8221,2.8221,2.8221,2.8221,2.8221,2.8221,2.8221,2.8221,2.8221,2.8221,2.8221,2.8221,2.8221,2.8221,2.8221,2.8221,2.8221,2.8221,2.8221,2.8221,2.8221,2.8221,2.8221,2.8221,2.8221,2.8221,2.8315,2.8484,2.8991,2.9352,2.9659,2.99,3.2086,3.4242,3.614,3.726,3.8805,4.0753,3.9604,3.9994,4.1995,4.2353,4.3638,4.5656,4.5336,4.5098,4.5,4.4101,4.3711,4.3711,4.3711,4.3711,4.3711,4.3711,4.3711,4.3711,4.3711,4.3711,4.3711,4.3711,4.3711,4.3711,1.8937,2.1222,2.3728,2.54,2.5957,2.7057,2.9541,2.9913,2.9913,2.9913,2.9913,2.8989,2.6502,2.458,2.337,2.2973,2.4947,2.5956,2.5407,2.7365,2.843,2.8234,2.8221,2.8221,2.8221,2.8221,2.8221,2.8221,2.8417,2.8537,2.8551,2.8845,2.8818,2.8551,2.8591,2.843,2.8221,2.8221,2.8221,2.8221,2.8221,2.8221,2.8221,2.8221,2.8221,2.8221,2.8221,2.8221,2.8221,2.8221,2.8221,2.8221,2.8221,2.8221,2.8221,2.8221,2.8221,2.8221,2.8221,2.8221,2.8221,2.8221,2.8221,2.8221,2.8221,2.8221,2.8221,2.8221,2.8221,2.8221,2.8221,2.8221,2.8221,2.8221,2.8221,2.8221,2.8221,2.8221,2.8221,2.8221,2.8604,2.8951,2.9032,2.9539,2.9873,2.9913,3.2086,3.3556,3.3819,3.6467,3.8081,3.8346,3.8794,3.9175,3.9432,4.1529,4.2818,4.3086,4.4807,4.5391,4.5,4.4101,4.3711,4.3711,4.3711,4.3711,4.3711,4.3711,4.3711,4.3711,4.3711,4.3711,4.3711,4.3711,4.3711,4.3711,1.956,2.3499,2.7033,2.63,2.7341,2.8629,2.9734,2.9913,2.9913,2.9913,2.9913,2.8436,2.458,2.1912,2.0529,2.0529,2.3715,2.5158,2.3683,2.6859,2.8791,2.8644,2.8644,2.8644,2.8644,2.8644,2.8644,2.8644,2.8617,2.8604,2.8617,2.9072,2.9125,2.8858,2.9018,2.8845,2.8404,2.8404,2.831,2.8221,2.8221,2.8221,2.8221,2.8221,2.8221,2.8221,2.8221,2.8221,2.8221,2.8221,2.8221,2.8221,2.8221,2.8221,2.8221,2.8221,2.8221,2.8221,2.8221,2.8221,2.8221,2.8221,2.8221,2.8274,2.8364,2.8404,2.835,2.8261,2.8221,2.8221,2.8221,2.8221,2.8221,2.8221,2.8221,2.8221,2.8221,2.8221,2.8221,2.8221,2.8671,2.9045,2.9045,2.9579,2.9913,2.9913,3.2086,3.3395,3.3395,3.4975,3.5868,3.5868,3.5256,3.5602,3.6883,3.9341,4.1259,4.2621,4.469,4.5449,4.5,4.4375,4.3945,4.3711,4.3711,4.3711,4.3711,4.3711,4.3711,4.3711,4.3711,4.3711,4.3711,4.3711,4.3711,4.3711]}]]